GFSCGP_850_spd_000.txt.gz
Wind_Speed
17 7 11 11 12 13 9 8 10 5 7 2 8 10 2 6 13 7 15 19 17 15 11 8 8 9 17 15 12 19 24 27 29 32 33 35 37 36 35 36 37 36 36 34
11 12 11 13 11 3 7 7 8 2 4 1 8 6 4 4 5 9 22 18 16 15 16 17 16 16 11 7 15 20 15 20 24 29 32 33 33 36 35 35 36 36 36 36
13 11 10 6 5 4 6 6 5 4 1 8 6 5 6 5 15 21 17 15 16 17 16 17 19 20 19 16 12 7 20 13 18 21 25 29 28 30 31 32 32 33 33 34
11 1 9 7 6 7 6 2 2 5 5 2 7 2 6 7 7 9 15 12 14 15 16 17 19 20 20 20 19 16 11 12 14 15 18 23 27 30 30 29 29 29 28 29
3 8 8 6 7 2 2 2 2 4 6 6 6 1 6 10 8 8 11 12 13 12 14 17 17 17 19 19 19 17 16 12 2 14 17 20 23 26 27 27 27 28 28 29
5 4 4 1 4 1 0 4 6 5 3 3 3 2 5 10 10 8 11 12 11 10 10 14 14 14 16 18 19 20 19 19 16 12 8 7 13 19 22 24 26 27 27 25
5 4 3 1 4 3 5 4 1 2 2 3 3 1 7 6 12 10 11 14 10 9 7 8 10 12 13 15 16 17 17 18 18 17 16 14 13 13 15 17 19 21 22 22
5 3 6 5 2 4 7 2 2 3 3 2 2 4 2 9 17 19 14 13 10 7 6 5 8 10 12 13 15 16 17 18 18 19 19 19 18 19 18 18 18 19 20 21
6 4 3 4 3 4 3 3 1 4 1 1 3 4 5 10 9 15 13 12 9 5 4 5 6 7 8 10 13 15 16 17 18 20 20 21 22 22 23 23 23 23 23 22
4 6 3 2 3 1 2 4 1 2 2 3 4 3 4 8 8 9 10 9 9 5 4 2 3 5 7 10 13 14 16 16 17 19 19 20 22 23 22 21 23 24 24 24
5 3 3 3 5 2 2 2 3 1 0 1 1 3 5 6 8 10 9 10 7 4 1 1 2 6 9 8 10 12 13 15 18 18 20 18 18 16 18 19 21 23 27 27
1 2 4 2 2 2 2 3 7 2 1 3 3 6 5 9 8 12 8 8 6 6 6 3 1 3 6 10 9 8 9 13 16 20 22 23 22 22 23 24 26 27 30 31
3 1 4 2 2 3 2 2 3 5 2 3 3 4 2 8 8 8 11 11 8 8 6 3 0 2 5 8 11 14 17 19 20 21 21 21 23 26 27 28 29 32 33 34
1 2 3 2 5 2 3 2 3 3 2 3 8 9 9 5 6 7 8 8 9 8 5 1 0 4 8 11 13 16 20 19 19 20 21 22 23 25 26 29 33 37 37 38
3 2 5 5 3 2 5 8 8 10 12 6 15 12 14 11 12 18 1 6 5 5 5 2 5 7 10 12 14 17 16 18 19 21 22 22 24 27 30 33 35 35 35 35
3 1 3 2 7 4 6 11 11 14 17 15 16 20 18 23 3 3 4 3 7 7 4 3 5 9 10 11 15 20 20 22 23 24 26 23 25 28 30 31 31 29 30 31
2 1 3 3 4 4 9 12 14 10 11 8 12 16 9 4 5 6 7 4 7 10 4 2 5 8 13 18 19 20 23 24 23 24 26 25 30 31 30 30 30 29 30 32
2 3 1 3 4 3 7 5 6 5 7 10 11 9 7 1 5 5 2 2 3 8 3 2 9 15 17 18 18 20 22 23 23 23 23 28 30 30 31 31 32 32 33 31
3 2 3 3 4 8 10 5 2 1 5 6 7 9 4 6 8 13 6 8 8 5 3 8 11 13 13 11 15 20 21 19 20 20 26 28 30 32 33 34 35 36 33 33
1 3 2 3 3 5 2 5 10 4 5 4 8 6 5 6 2 1 8 7 3 3 7 10 12 12 11 14 16 16 16 19 20 26 29 30 32 33 34 34 37 36 33 38
3 3 6 6 4 6 9 12 6 1 3 4 4 6 6 4 4 10 8 6 3 4 8 11 13 11 13 13 15 18 21 23 26 30 32 34 34 35 35 35 35 35 40 35
6 6 4 3 3 6 3 6 2 5 17 9 6 8 6 4 5 6 2 2 5 7 11 13 11 11 12 15 20 24 27 29 31 34 35 35 35 35 35 33 34 37 36 36
4 5 2 6 5 4 1 14 17 24 19 13 14 6 5 3 4 4 7 8 13 17 15 13 14 14 17 18 22 27 29 30 31 32 33 34 35 36 34 34 37 35 32 34
5 15 6 7 2 6 22 30 18 21 16 15 14 14 9 8 13 18 20 16 18 15 11 13 15 18 20 22 24 25 27 28 30 32 34 36 37 37 39 39 34 35 33 32
5 11 4 7 14 21 20 15 14 15 15 14 13 13 12 12 12 12 17 16 10 11 12 14 17 19 22 24 26 26 27 28 30 33 36 37 38 39 40 39 37 31 30 31
11 8 4 7 15 18 20 23 26 22 18 13 12 13 13 11 13 14 8 6 9 11 14 16 18 21 24 26 27 27 27 28 30 33 35 37 37 37 39 37 38 37 33 33

GFSCGP_850_spd_003.txt.gz
Wind_Speed
15 4 9 13 8 5 5 4 7 3 1 4 6 7 12 8 10 19 18 20 19 15 11 9 8 9 6 10 9 16 23 29 30 28 28 28 31 32 32 34 35 36 36 37
7 9 12 9 11 9 9 7 6 3 5 4 4 7 3 4 7 18 19 17 16 13 13 15 16 16 15 12 7 9 12 9 19 30 30 29 29 31 31 31 33 34 35 35
11 8 11 13 6 10 7 2 1 3 5 3 2 7 3 5 16 18 16 15 12 12 13 14 16 17 16 17 17 13 6 11 8 9 15 26 28 28 28 31 31 31 32 32
7 8 13 8 7 6 4 4 3 3 5 3 5 4 3 6 5 5 13 14 12 11 12 13 16 17 17 16 15 16 14 6 8 8 8 9 18 23 25 27 28 28 27 29
7 8 11 7 7 6 4 1 2 1 1 3 3 3 6 6 5 6 9 15 12 12 13 14 13 14 14 14 14 14 13 12 9 4 12 15 16 19 22 20 22 22 22 21
6 8 6 7 3 5 5 1 2 3 3 1 6 6 4 9 9 6 8 17 14 11 11 11 11 10 12 12 12 13 14 15 14 14 12 11 10 11 13 13 14 16 16 16
5 3 0 3 5 3 4 5 1 2 1 5 3 2 8 12 12 12 12 19 16 10 8 8 8 8 8 10 11 11 12 13 14 15 16 18 18 18 19 19 19 19 18 18
5 3 5 3 4 5 5 7 4 3 3 4 2 5 6 12 18 26 25 21 17 10 6 5 5 5 7 10 11 12 13 13 14 15 15 15 15 16 16 16 17 16 17 17
5 1 1 3 2 3 4 4 4 2 2 2 3 4 5 7 9 16 21 19 14 9 4 3 3 4 6 8 11 13 14 14 15 15 16 17 17 18 19 19 19 20 21 23
4 5 1 1 2 2 3 1 2 2 3 2 5 3 3 6 8 7 9 18 15 12 9 4 2 3 5 8 9 7 8 10 13 16 18 19 18 19 19 21 22 23 23 24
2 4 2 3 4 5 2 1 1 2 4 4 2 5 5 7 8 10 10 17 17 14 9 4 1 3 4 4 1 4 8 13 17 19 19 20 21 23 24 25 24 24 26 29
1 5 4 2 2 2 2 4 5 4 1 1 4 5 3 5 8 16 17 16 12 11 8 4 4 3 2 3 2 7 13 17 19 19 19 21 22 24 25 25 26 30 35 37
0 3 4 4 3 2 3 2 3 3 2 3 3 5 1 2 7 13 12 14 14 11 8 8 8 6 4 3 7 12 16 19 19 21 22 23 24 26 27 28 30 33 36 38
2 3 3 5 4 4 4 3 3 5 3 4 7 5 5 4 3 2 6 13 17 13 11 9 6 3 3 7 10 14 18 20 20 20 23 25 26 29 30 32 35 36 34 33
3 3 3 2 2 1 4 6 6 7 5 6 2 8 8 5 6 8 5 16 17 15 15 10 6 2 3 9 13 17 20 20 22 25 26 27 28 29 31 32 32 32 31 31
4 2 3 2 3 4 6 8 9 10 8 8 9 17 9 17 15 4 11 19 18 19 14 10 5 1 7 12 15 17 19 22 23 25 26 27 28 30 31 32 32 32 32 32
3 3 3 0 4 5 8 8 10 4 3 5 7 9 5 3 4 4 4 14 18 18 14 9 3 3 8 11 15 18 20 23 24 24 24 26 29 32 32 33 33 33 34 35
3 4 3 2 3 2 4 4 5 7 5 5 5 7 6 5 3 5 4 13 21 17 11 6 1 7 12 15 16 18 20 20 20 23 25 28 30 32 32 33 33 34 34 34
3 4 3 4 3 7 6 5 4 3 4 2 1 4 4 3 1 8 9 12 15 13 9 3 6 12 15 17 19 19 17 19 21 23 26 28 29 31 31 32 33 33 34 34
3 5 4 3 3 4 4 1 1 3 4 3 2 1 3 3 5 3 11 12 12 9 5 4 10 20 21 18 16 15 18 19 22 24 26 27 27 28 30 31 32 32 33 35
3 2 4 3 2 7 7 5 2 2 4 16 8 8 9 5 8 15 16 11 8 5 6 13 19 23 15 13 14 17 19 22 23 25 26 27 28 30 31 33 33 34 34 33
6 5 4 3 3 6 0 3 2 2 7 11 14 14 12 7 16 16 11 7 7 11 14 18 19 12 11 13 17 19 22 23 24 26 27 29 30 31 33 34 36 36 35 34
2 5 4 7 5 5 9 8 10 8 7 7 8 10 7 6 11 9 9 15 18 20 17 21 13 11 12 15 19 22 24 24 26 28 30 31 33 34 34 36 37 37 36 35
3 4 3 2 1 2 9 9 6 8 9 6 7 7 8 11 12 12 12 11 11 18 19 11 11 13 17 19 21 23 25 25 27 29 32 34 36 37 36 36 36 37 36 35
7 2 2 6 11 13 3 18 16 10 10 8 7 6 9 9 13 15 11 13 19 13 9 10 14 17 19 21 23 24 25 26 29 31 34 36 37 37 38 37 36 36 35 29
9 7 5 6 5 3 10 12 15 14 13 10 10 10 11 11 11 13 15 13 8 7 10 13 15 19 21 23 24 25 25 26 29 32 33 34 36 37 39 38 40 37 35 32

GFSCGP_850_spd_006.txt.gz
Wind_Speed
15 4 10 12 9 5 4 3 4 8 9 7 8 6 11 6 9 14 15 14 12 10 10 10 10 10 8 4 8 7 11 19 26 27 28 27 26 26 26 26 27 27 29 30
5 17 12 9 6 5 5 7 9 9 4 1 1 8 7 3 5 15 16 12 10 10 10 12 13 14 16 16 14 10 6 10 11 11 22 28 30 30 28 26 26 27 28 27
8 8 13 9 5 9 7 8 5 6 6 4 1 6 2 3 6 11 11 12 10 10 12 12 13 14 14 16 17 16 14 9 8 8 7 12 20 26 25 23 24 24 24 25
5 7 15 11 11 8 8 9 8 3 2 3 2 4 3 4 5 3 10 12 11 9 9 10 12 13 15 17 16 15 14 10 6 5 4 4 7 12 14 18 19 20 21 23
7 12 15 12 10 9 10 6 2 0 1 3 2 1 6 6 6 7 9 13 12 10 9 10 12 13 14 14 14 14 13 13 14 13 13 10 8 9 10 10 10 11 11 12
2 15 9 9 5 7 6 4 7 4 2 2 7 7 4 8 10 6 6 16 15 11 9 9 9 9 10 11 11 12 12 14 13 12 12 13 13 12 11 12 12 12 12 12
4 3 1 5 5 2 5 6 1 1 1 6 1 3 8 9 8 15 13 21 17 13 10 8 7 6 7 8 9 11 11 12 12 13 14 14 14 14 14 15 16 18 20 20
6 9 8 5 6 7 6 7 5 6 4 3 1 6 6 5 4 17 29 25 20 14 9 6 5 5 6 7 7 7 8 8 10 12 13 12 13 13 14 15 18 20 21 22
7 4 1 1 3 6 5 4 4 2 1 2 3 6 3 7 8 17 23 24 20 14 10 7 5 4 6 4 4 4 6 7 9 12 13 14 14 16 18 19 20 21 21 23
5 5 1 2 3 2 4 4 2 2 3 4 4 5 4 2 7 8 10 20 18 15 12 8 6 6 5 2 0 0 3 8 11 14 15 16 17 19 21 22 24 24 25 28
6 4 1 3 4 7 2 1 2 3 4 4 1 5 5 8 8 13 11 22 20 18 13 9 7 8 7 6 4 1 6 11 14 15 16 18 20 22 24 25 27 29 32 34
2 5 4 3 1 1 3 7 5 4 3 1 3 5 4 1 7 13 20 24 19 15 13 11 10 10 9 7 4 7 11 13 15 17 18 20 23 25 26 27 29 31 33 34
5 3 4 3 4 2 4 4 4 4 3 4 5 5 4 6 7 9 12 13 16 16 15 13 13 12 10 6 6 10 13 16 18 19 21 22 24 25 27 29 30 31 31 31
2 3 5 7 4 5 5 5 5 5 4 3 5 2 1 2 4 5 9 14 17 17 17 17 15 12 8 5 7 10 14 17 20 22 24 25 25 25 26 27 29 31 31 32
3 4 2 3 3 3 4 6 8 7 4 6 1 5 3 6 6 12 15 13 17 21 20 18 15 11 5 5 7 12 16 20 21 22 22 21 22 25 27 29 30 30 31 31
3 3 2 2 4 2 3 5 6 5 4 6 2 11 5 7 6 3 4 12 23 23 21 17 13 9 8 6 10 15 19 21 21 20 20 22 25 27 28 29 29 29 30 30
3 3 2 2 3 5 5 6 5 4 4 5 4 5 4 5 6 7 3 14 22 23 21 18 14 9 4 9 14 17 18 19 17 18 20 22 25 26 27 28 29 29 31 32
4 4 2 2 2 1 1 4 6 5 3 3 4 5 3 4 5 4 1 12 19 22 20 15 8 4 8 14 15 17 17 15 18 21 23 24 25 27 28 29 30 32 32 34
3 4 3 3 2 5 2 3 3 3 2 2 4 1 1 2 4 5 4 11 14 17 15 10 4 7 13 17 19 17 15 18 21 23 24 25 26 28 29 31 32 32 34 35
5 6 4 3 3 5 3 2 2 2 2 3 2 3 3 2 4 4 6 10 15 15 9 4 8 11 18 19 17 16 18 21 22 24 24 25 26 27 29 30 32 34 34 35
3 3 5 3 2 6 5 7 1 4 3 6 10 10 11 2 6 10 9 10 10 7 6 8 12 18 24 21 17 18 20 22 23 24 25 26 26 28 30 32 32 34 35 36
6 6 4 3 2 7 3 0 3 4 5 8 10 9 8 7 7 8 12 13 12 10 9 12 15 21 22 15 17 18 20 22 23 24 26 27 29 30 31 32 34 35 36 36
2 5 4 7 5 1 7 9 10 7 5 1 4 5 5 7 10 12 13 13 11 11 12 12 21 18 12 14 16 19 21 23 25 26 28 30 31 31 32 33 35 36 36 35
2 3 2 1 1 6 9 11 3 2 1 3 3 5 5 8 11 13 15 14 13 12 12 16 13 10 13 15 16 19 22 24 26 29 31 32 33 34 33 34 35 35 34 33
6 2 2 3 6 1 11 3 3 3 5 6 7 8 10 12 11 13 14 12 12 14 12 9 9 13 15 17 18 19 21 24 27 30 32 33 33 33 35 37 37 35 33 26
7 6 4 4 4 3 2 6 8 7 7 7 11 13 13 13 14 14 12 13 12 9 7 9 12 15 17 19 20 22 22 25 28 32 32 31 32 34 38 39 40 36 32 30

GFSCGP_850_spd_009.txt.gz
Wind_Speed
12 6 13 12 12 4 4 4 3 5 6 5 9 10 14 11 11 6 13 12 11 10 10 10 11 11 12 11 8 7 8 8 8 12 20 23 25 25 24 25 27 27 26 26
6 20 15 7 4 5 3 2 5 8 4 4 3 9 10 4 5 9 15 13 10 12 11 12 13 14 16 16 15 12 10 9 8 4 6 14 19 21 20 21 20 19 21 24
12 9 11 13 8 6 5 5 4 6 8 3 5 7 6 2 2 8 9 10 11 12 13 14 14 16 16 17 18 17 16 13 12 10 7 4 7 9 12 13 14 15 16 17
8 6 13 10 8 9 9 8 4 6 4 3 3 5 5 4 4 4 9 12 13 12 12 14 15 16 16 17 16 14 13 14 14 12 9 7 7 7 8 10 10 10 10 11
7 9 14 9 6 8 8 6 7 5 4 3 2 2 6 3 7 8 9 13 14 13 11 14 14 14 14 13 12 12 11 12 13 13 13 12 11 11 9 8 8 9 9 11
3 13 12 14 5 9 2 4 5 3 3 2 8 7 5 5 10 5 6 14 16 15 13 12 12 11 10 9 8 9 10 11 10 10 10 10 10 9 9 11 13 15 17 19
2 9 5 7 6 3 5 5 1 2 1 6 1 3 9 5 7 11 13 21 19 15 13 12 10 8 7 6 7 7 8 8 9 10 11 12 12 12 14 16 19 21 24 25
7 6 10 5 7 8 7 7 5 6 4 4 4 6 6 5 9 17 29 26 20 17 13 11 9 6 4 3 3 5 7 8 9 11 13 13 13 14 16 18 20 22 23 24
5 4 3 2 4 9 5 4 5 2 0 1 4 7 4 5 5 11 24 26 22 18 14 12 9 6 4 2 1 4 6 7 10 12 13 14 15 17 20 21 23 25 27 29
7 5 2 2 4 3 6 7 3 2 3 4 4 5 5 2 3 4 10 23 24 19 14 12 10 8 5 3 1 2 3 8 11 13 14 16 17 19 22 24 27 29 31 32
6 4 2 5 4 7 2 2 4 4 4 3 2 6 5 4 8 11 10 27 25 18 15 13 12 10 8 6 4 4 6 9 12 14 16 18 21 24 26 28 29 30 30 31
3 5 4 2 0 2 2 7 6 4 4 2 3 6 4 6 7 12 18 21 16 13 14 14 13 11 10 9 7 6 7 11 13 15 18 22 25 27 28 27 28 30 32 32
6 1 4 3 4 2 4 5 4 4 3 5 5 5 4 7 6 7 8 12 14 15 17 16 15 14 13 10 6 6 10 13 16 20 23 26 27 26 26 28 29 30 30 30
6 3 6 9 6 6 5 5 5 6 4 4 6 4 4 7 6 3 7 11 14 17 18 18 18 16 12 9 7 7 10 14 18 22 24 24 23 24 26 26 26 27 28 29
3 4 3 2 5 4 5 6 9 7 5 6 3 6 3 1 4 6 10 13 11 17 20 20 18 15 12 6 4 8 13 17 21 23 22 22 23 25 25 26 27 27 28 30
2 2 3 1 3 4 1 2 7 4 3 4 3 4 5 3 2 3 3 6 10 18 20 18 16 14 7 3 6 11 17 22 24 22 21 23 24 25 25 26 27 28 30 31
2 5 3 2 3 2 4 8 7 4 4 6 5 3 2 3 5 5 4 2 9 15 19 19 16 10 4 3 10 18 23 24 21 20 21 23 24 25 26 27 29 31 33 35
4 3 3 2 2 2 2 3 4 5 3 3 6 4 4 6 5 2 1 4 8 16 19 17 12 7 3 8 17 21 21 20 19 20 22 23 24 26 28 30 31 33 34 36
5 4 3 4 3 3 2 3 6 5 2 3 4 4 5 2 1 4 4 6 10 14 15 13 10 6 7 14 19 22 20 18 19 21 23 24 26 28 30 32 33 33 35 36
5 5 3 2 3 5 2 1 3 4 1 2 4 4 2 3 2 4 5 5 5 8 11 8 7 8 12 14 17 16 17 19 21 23 24 24 26 28 30 31 33 33 33 35
2 2 4 2 2 5 5 3 3 4 4 5 7 6 4 3 2 10 11 8 5 6 8 10 8 10 11 15 16 16 18 21 22 23 24 25 26 29 30 31 31 33 35 36
6 5 3 3 2 6 0 2 5 6 9 10 5 3 7 7 8 8 8 8 8 10 10 8 9 11 16 15 16 17 19 21 22 24 25 27 29 30 31 31 34 35 36 36
2 5 4 7 4 2 3 9 14 10 10 4 2 1 3 5 6 7 9 11 11 12 12 11 11 15 13 14 16 18 20 22 24 26 28 29 31 32 32 33 35 36 36 35
1 3 3 2 2 3 10 12 8 4 3 2 4 4 4 3 6 10 12 12 13 13 12 13 15 14 12 14 16 18 20 22 25 28 30 32 33 34 34 34 36 36 35 35
3 4 4 1 1 3 8 4 5 6 6 5 5 5 7 9 10 10 10 11 12 12 13 14 11 11 13 15 17 18 21 24 27 29 32 34 35 35 36 37 37 36 34 26
6 6 4 4 7 5 6 6 3 3 1 3 6 9 12 12 11 11 10 11 12 13 12 10 11 13 15 17 18 19 21 24 28 32 34 33 34 35 36 39 41 37 32 28

GFSCGP_850_spd_012.txt.gz
Wind_Speed
20 6 13 15 13 3 6 4 5 4 4 3 7 8 15 15 11 9 7 7 7 11 11 11 11 11 12 13 11 14 14 13 8 4 5 9 13 14 15 17 19 19 19 19
8 17 15 7 7 4 3 4 4 7 1 3 8 10 12 8 7 5 10 11 9 12 12 12 13 13 14 15 16 15 15 14 12 9 7 6 7 7 8 9 11 12 12 14
5 10 14 11 6 10 3 5 3 6 7 4 6 8 6 3 1 5 9 10 11 12 14 15 15 15 14 16 16 16 17 16 15 14 10 8 6 5 3 7 7 9 11 12
7 5 16 13 13 7 8 7 3 3 4 4 5 6 6 5 4 5 11 13 14 15 14 16 16 15 14 15 15 14 14 14 15 14 14 12 11 11 12 11 10 10 11 12
5 11 13 17 16 10 4 6 6 3 3 2 1 2 7 2 5 6 8 14 14 14 14 16 16 14 14 12 11 12 12 12 13 13 14 13 13 12 10 8 10 13 15 17
3 8 10 7 6 9 5 4 4 3 2 2 6 7 5 4 6 4 6 16 17 17 17 16 15 13 11 10 9 9 10 12 11 11 12 13 12 12 13 15 17 20 21 23
1 3 2 8 7 3 4 4 0 1 1 5 1 2 8 5 5 8 13 23 21 19 18 16 14 12 10 8 7 8 9 10 11 12 12 13 14 14 16 18 21 24 27 30
8 6 6 4 5 6 6 7 5 6 4 4 3 6 6 2 8 11 24 29 24 21 18 16 13 10 8 6 5 6 8 9 10 12 13 13 14 16 19 21 24 27 29 31
12 5 4 5 6 11 5 8 4 4 2 1 3 7 9 4 6 3 20 31 27 23 20 16 13 9 6 4 4 4 6 7 9 12 13 14 16 19 23 26 28 29 30 30
6 4 1 3 6 2 7 8 2 2 3 4 4 5 5 6 4 2 7 22 26 21 19 16 13 9 7 5 3 1 2 6 9 11 13 16 19 22 25 26 27 27 28 29
6 4 3 5 6 8 3 3 4 4 4 4 1 5 5 6 5 8 7 21 24 20 18 16 13 11 8 7 4 2 2 6 9 12 15 18 22 24 25 26 26 27 27 28
3 6 5 4 1 5 5 7 6 4 4 1 3 6 2 6 6 8 13 19 19 17 16 16 14 12 11 8 5 2 3 6 10 13 17 22 24 25 25 25 26 27 28 27
7 2 5 3 1 3 4 4 4 5 3 7 6 5 3 7 6 6 14 16 17 16 17 17 16 14 12 9 5 3 5 9 12 18 23 25 24 24 25 25 26 25 26 27
8 3 6 9 5 7 5 5 5 6 4 5 6 5 4 5 3 5 10 13 14 15 17 17 17 15 12 8 5 4 6 10 17 23 24 23 23 25 25 25 25 26 28 30
4 4 3 3 3 5 7 9 10 9 7 7 5 8 5 3 2 2 1 5 9 13 17 18 17 15 12 8 4 4 7 15 22 23 23 23 24 25 25 25 27 28 29 31
2 2 3 2 3 2 3 4 8 5 4 3 5 5 4 3 4 4 3 3 0 6 13 15 16 14 11 8 5 5 12 20 25 23 24 25 25 25 25 26 28 30 32 34
6 5 3 3 1 3 4 8 7 5 4 7 7 7 5 3 6 5 6 5 3 4 9 15 16 13 11 7 3 10 17 21 21 24 24 24 24 25 26 28 30 33 35 38
5 4 2 3 1 1 3 1 6 6 2 4 5 5 5 8 6 5 3 3 6 8 10 14 15 13 9 4 7 13 15 18 20 21 24 24 25 26 28 30 33 35 37 38
3 4 3 4 4 3 0 4 6 5 1 1 7 6 7 6 3 3 4 5 8 8 9 12 11 9 6 6 9 14 18 17 20 21 22 23 25 27 30 32 34 35 36 37
4 6 3 2 3 7 1 3 6 4 2 5 8 5 6 6 2 3 4 4 4 4 7 9 9 8 6 7 14 18 18 18 19 20 22 23 25 28 31 32 34 34 34 37
3 3 4 2 2 6 3 3 3 5 4 8 11 11 9 4 4 2 2 1 2 5 8 10 9 5 7 11 17 17 15 17 20 21 22 24 26 29 31 33 32 34 37 39
5 6 4 3 2 6 3 4 6 5 12 15 12 8 5 3 1 1 2 2 2 5 7 7 6 8 11 14 14 13 15 18 20 22 24 26 28 30 31 32 34 36 38 40
2 4 4 6 4 1 1 3 18 16 19 11 6 6 4 3 1 3 5 6 6 7 8 8 9 9 11 11 14 15 17 20 22 25 27 28 30 31 31 34 36 39 39 39
1 2 2 3 2 2 13 17 14 12 10 8 5 4 2 2 1 5 7 6 7 8 9 9 9 10 11 12 14 17 19 22 24 27 28 30 32 35 35 35 36 38 38 36
3 5 4 0 2 3 7 9 11 9 6 4 2 2 3 5 6 7 6 6 6 7 8 10 11 10 11 13 16 17 20 23 25 27 29 33 35 36 37 37 37 36 34 27
5 5 5 5 9 5 9 11 8 6 5 5 3 3 6 9 9 8 6 5 5 6 9 10 10 11 12 15 17 18 21 23 26 30 33 34 36 37 38 39 41 37 31 26

GFSCGP_850_spd_015.txt.gz
Wind_Speed
24 8 14 20 11 6 7 6 10 3 2 2 5 6 14 13 9 13 8 10 10 9 9 10 11 12 12 13 13 16 17 17 13 10 7 4 2 2 3 5 7 9 10 11
9 15 10 11 9 6 6 5 5 4 1 2 6 15 14 6 7 8 12 15 15 14 13 13 14 15 15 16 18 18 19 17 15 13 11 10 9 9 9 8 7 8 9 10
16 12 14 12 10 9 4 6 4 3 3 1 5 6 5 2 2 3 10 19 16 17 17 15 15 16 15 16 17 17 17 17 18 17 14 12 11 11 10 10 10 10 10 11
13 3 18 17 16 10 11 5 4 2 4 2 4 6 5 6 3 4 11 17 20 20 18 16 16 15 14 16 15 15 15 16 17 15 13 11 12 11 12 10 10 9 11 14
5 8 23 20 19 11 4 6 5 3 3 2 1 2 6 2 4 6 10 16 19 20 19 17 15 15 15 13 12 13 13 14 14 13 13 12 12 12 9 9 10 13 17 20
3 2 12 7 9 10 8 6 4 3 1 2 5 5 5 3 4 4 7 17 20 22 21 18 16 14 13 12 11 10 11 13 12 11 12 12 11 11 11 14 17 21 24 28
9 4 3 6 11 5 4 7 2 2 3 5 2 2 9 3 4 6 14 24 24 24 24 20 17 15 13 11 9 9 9 11 11 11 11 12 12 13 16 19 22 25 28 30
8 2 7 6 5 7 4 7 4 5 4 3 3 5 5 2 5 9 16 28 26 26 23 20 17 14 12 11 9 7 8 9 8 9 11 11 12 15 18 21 25 26 27 28
12 4 1 4 5 10 3 5 3 4 2 1 2 5 7 1 4 3 14 30 31 28 25 21 18 15 14 11 9 6 6 6 6 8 9 11 14 18 22 24 25 26 26 27
4 3 3 4 6 3 6 8 2 1 4 3 3 4 4 5 5 3 5 16 27 26 24 22 19 17 15 11 8 6 4 3 4 7 9 12 17 20 23 24 25 25 24 23
5 4 1 5 4 7 3 2 2 4 3 3 0 4 4 5 5 4 9 25 28 26 24 22 19 17 15 12 9 6 2 2 3 6 10 15 18 21 23 24 23 22 22 22
6 6 4 4 1 4 6 8 7 4 3 1 2 5 1 6 6 6 15 26 26 23 22 20 19 18 16 12 9 6 2 1 4 8 14 18 20 22 22 21 21 21 21 22
6 2 5 4 1 3 4 4 4 4 3 6 5 4 1 3 3 4 16 25 24 20 19 20 20 18 15 13 9 6 3 2 7 13 18 21 23 22 21 21 21 22 23 24
7 3 5 8 4 6 5 5 5 8 4 5 6 4 3 1 3 5 11 18 19 20 20 20 20 18 16 13 10 6 2 4 11 16 21 24 24 22 21 21 21 22 24 27
3 3 3 1 2 6 6 8 11 10 10 10 7 8 6 5 5 7 9 13 14 17 18 20 20 19 17 14 10 5 1 8 14 18 20 22 20 21 21 21 22 24 27 29
2 3 3 1 2 4 5 6 12 11 4 7 5 7 4 5 8 7 7 8 9 11 14 17 19 19 18 13 8 4 4 10 15 17 18 18 21 21 21 22 25 27 29 32
5 6 4 3 2 5 4 10 11 7 5 11 11 9 7 4 7 10 11 9 7 4 9 15 18 18 15 11 8 4 7 12 16 16 17 18 20 21 22 24 27 30 33 36
5 4 3 3 2 2 5 1 6 8 4 5 3 5 6 11 11 10 8 7 4 1 4 11 16 16 13 11 7 6 10 14 15 17 18 18 20 22 24 27 29 32 35 37
1 5 3 4 4 4 1 4 6 7 5 6 8 6 12 15 11 6 5 3 1 1 2 7 12 13 12 9 5 7 12 16 16 17 17 19 22 24 27 29 32 34 36 37
5 4 2 2 4 6 1 2 6 4 3 8 9 8 8 9 3 2 2 0 1 2 2 8 12 12 10 6 6 10 14 16 16 16 18 20 23 25 28 31 33 34 36 38
3 2 6 3 3 5 4 4 6 4 3 9 15 16 13 4 4 6 1 1 2 3 6 9 10 9 7 6 9 12 14 15 16 17 19 20 23 27 29 32 33 35 37 39
6 6 4 3 2 7 4 4 6 4 13 19 18 14 11 10 7 4 4 3 4 6 9 10 10 8 7 8 10 12 13 15 16 18 20 23 25 28 31 33 34 35 38 39
3 4 4 6 3 1 0 1 10 24 26 15 15 11 10 9 6 5 3 4 7 9 10 10 9 7 6 10 12 13 14 15 17 20 23 25 28 31 32 34 35 37 37 37
2 3 3 3 0 2 10 18 16 18 17 13 11 10 7 7 6 5 4 6 8 9 10 8 7 7 8 11 12 11 13 16 19 22 25 28 32 34 33 33 34 35 35 34
3 5 5 2 2 6 7 14 18 16 13 11 9 8 8 9 8 7 6 6 8 9 8 7 7 7 8 9 9 12 15 17 20 24 28 31 32 33 35 35 34 34 31 25
6 6 5 5 14 6 14 17 16 14 12 10 9 9 8 8 9 8 7 7 6 7 7 7 8 7 7 8 10 13 16 19 23 28 31 31 32 34 35 36 37 32 29 26

GFSCGP_850_spd_018.txt.gz
Wind_Speed
27 10 21 25 24 16 19 18 15 14 10 6 14 19 14 19 16 15 11 11 9 8 8 10 12 14 14 14 16 17 17 16 12 11 10 8 8 7 6 6 6 6 7 8
16 21 22 20 23 22 19 18 16 12 5 7 14 19 17 18 16 12 12 14 15 13 11 13 15 17 18 19 19 18 18 17 15 13 12 11 11 12 10 9 9 10 10 11
22 15 14 23 24 22 16 17 15 12 5 9 10 20 15 7 6 5 7 13 16 18 17 15 17 19 18 19 18 18 17 16 16 15 14 13 13 13 11 9 9 10 10 12
17 16 23 22 26 24 20 12 10 7 4 5 3 5 9 9 6 6 11 16 17 18 18 16 17 18 18 19 18 17 16 16 16 14 13 11 11 10 10 10 10 11 13 15
12 14 16 20 28 25 11 13 11 7 8 4 9 6 4 3 7 8 13 18 19 18 19 18 17 19 19 17 16 15 14 14 14 12 11 10 10 10 10 9 10 13 17 20
14 8 14 23 19 21 12 12 7 4 2 7 11 9 5 3 3 5 14 19 20 20 18 17 20 19 18 16 14 13 11 13 12 10 9 9 9 9 10 12 16 19 21 23
10 14 4 20 19 8 16 16 4 5 5 6 4 7 10 3 2 4 15 21 22 21 20 19 19 19 17 15 13 12 11 11 10 8 7 8 9 10 13 16 19 21 23 24
7 4 10 17 19 10 16 15 4 6 6 6 4 6 1 5 3 4 13 22 23 22 20 19 18 18 17 15 13 11 10 9 8 6 6 6 7 10 14 16 19 21 22 23
9 4 1 3 5 13 5 10 3 2 1 3 5 4 3 3 2 3 13 23 24 24 21 20 19 18 17 15 14 11 9 7 6 4 4 5 8 11 15 18 20 21 21 20
9 2 2 2 7 7 5 7 4 2 5 4 4 3 2 3 2 4 12 23 25 23 21 19 18 18 17 16 13 11 9 6 4 3 3 7 10 13 17 19 20 20 19 19
6 8 8 7 6 12 6 4 2 4 2 2 3 4 3 5 6 4 10 23 24 23 22 20 18 18 18 16 14 11 8 5 3 1 6 10 13 16 18 19 19 18 18 19
8 5 5 5 2 10 10 12 11 4 5 2 3 2 3 5 5 3 9 20 21 22 21 19 19 20 19 17 14 12 8 5 2 3 7 11 15 18 20 19 18 17 18 19
11 7 8 6 3 2 6 11 15 11 2 10 8 3 1 2 3 3 11 20 21 21 20 19 19 19 18 17 15 12 9 5 1 4 8 12 16 19 19 18 17 17 18 19
1 4 11 10 7 11 12 19 17 18 11 10 11 7 5 4 3 6 12 18 20 20 20 19 18 18 17 17 15 12 9 5 3 5 9 12 15 17 18 18 18 18 20 22
4 4 7 4 3 15 19 19 21 22 22 14 15 17 16 10 7 9 13 17 19 19 19 20 20 18 19 18 16 13 9 5 5 8 11 13 17 18 17 17 18 20 22 24
10 3 3 2 2 8 11 19 21 24 22 24 18 16 4 6 10 11 13 17 17 18 18 18 19 18 18 18 15 13 8 5 7 10 12 16 18 18 16 17 20 22 25 26
12 6 3 3 3 4 7 18 19 20 21 21 20 20 10 8 9 12 12 12 12 13 15 18 18 19 18 17 15 11 7 5 9 13 15 17 16 16 17 20 22 25 27 30
12 7 1 1 5 3 2 2 16 22 18 20 17 5 11 11 14 12 9 11 9 9 11 14 17 18 18 17 14 10 5 6 11 15 16 16 15 17 19 22 25 28 29 28
3 2 3 3 8 6 4 5 7 12 14 15 16 8 14 19 18 9 8 8 8 6 8 10 13 16 17 15 12 7 5 8 11 16 15 15 17 19 22 25 28 29 30 29
7 2 1 2 2 5 2 3 6 6 7 13 15 16 18 18 10 6 7 7 6 6 6 9 13 15 15 13 9 6 7 10 14 15 15 16 19 21 24 27 28 29 28 28
4 4 10 4 3 6 1 5 7 6 0 12 17 21 20 9 4 15 10 7 6 6 7 10 12 13 12 9 6 7 8 11 14 14 16 18 20 23 26 28 28 27 28 29
9 7 4 4 6 9 6 5 6 4 12 17 19 17 16 17 15 12 9 8 7 7 9 10 10 10 9 7 6 7 9 12 13 15 17 20 22 25 27 27 27 27 26 27
7 4 3 7 3 2 0 2 1 11 20 13 19 16 18 16 12 11 9 7 6 7 8 9 9 9 8 8 8 7 11 12 14 17 19 21 24 26 25 25 26 26 25 24
2 3 2 4 2 1 2 7 12 16 21 20 18 17 13 13 12 10 7 7 7 8 9 10 10 9 10 9 7 8 12 13 15 17 20 23 25 26 24 26 25 25 23 23
1 9 6 1 1 5 5 11 21 22 21 20 17 14 13 12 10 7 6 6 8 10 11 11 10 9 8 6 7 10 12 13 15 18 22 23 25 25 26 27 25 25 23 21
7 6 5 3 16 3 18 19 22 22 20 16 16 15 12 9 8 7 7 8 9 11 11 11 9 7 7 7 9 10 11 13 17 21 22 24 26 26 28 26 25 21 22 23

GFSCGP_850_spd_021.txt.gz
Wind_Speed
27 12 19 27 21 27 22 17 23 21 22 20 19 19 23 21 24 20 15 14 14 11 8 7 9 10 12 13 15 15 14 14 14 13 13 12 10 9 8 7 7 7 7 8
19 19 26 28 24 22 22 21 24 17 11 13 16 17 18 19 19 23 19 18 17 14 12 12 13 13 14 16 16 17 16 15 14 13 14 13 13 12 11 10 8 8 9 10
23 23 25 28 24 25 23 28 20 17 14 10 14 19 22 19 27 21 16 17 18 18 17 16 16 15 16 17 17 17 17 17 16 15 15 15 14 12 10 8 8 9 9 11
15 21 21 27 29 27 26 16 13 16 7 9 11 7 5 11 14 12 14 18 21 20 18 18 17 16 17 18 18 17 17 16 15 14 14 13 11 10 9 7 7 8 11 14
11 8 28 28 27 22 14 16 16 13 12 7 12 6 13 8 16 13 13 19 22 21 21 20 18 17 17 18 17 17 16 15 15 13 12 10 10 9 8 6 8 11 15 19
21 17 25 23 21 23 14 17 11 7 7 7 15 13 11 12 10 8 15 20 22 23 22 19 17 17 18 17 17 16 15 15 13 11 11 9 9 8 6 8 10 13 16 19
11 19 3 11 17 20 18 20 6 4 5 7 5 12 9 10 6 6 15 21 24 24 23 20 19 17 16 16 16 14 13 14 12 10 9 7 6 5 6 9 12 15 18 20
8 7 9 6 14 10 21 15 7 7 8 11 7 8 5 8 4 6 17 23 24 24 21 20 18 17 16 15 14 13 12 11 10 8 6 5 4 5 7 11 14 16 18 20
9 4 4 18 10 18 17 19 5 1 4 8 8 10 6 5 6 8 17 24 25 25 23 22 19 17 15 14 13 13 11 10 8 6 4 3 4 7 10 13 16 18 19 19
3 1 5 4 17 4 11 13 8 4 8 5 7 8 7 10 7 7 14 23 25 25 23 21 19 17 15 14 14 12 10 9 7 4 2 3 6 8 11 15 17 18 18 18
1 3 4 4 4 11 6 11 5 3 3 3 6 5 11 4 2 7 12 22 26 25 23 22 20 17 16 14 13 12 10 8 6 3 0 3 6 10 13 15 17 18 16 16
7 4 3 4 4 8 10 9 10 7 4 3 5 6 4 4 4 5 12 21 24 24 23 21 20 18 16 14 13 11 10 8 7 3 2 5 8 12 14 16 17 15 15 17
10 6 4 4 7 5 11 9 13 11 1 10 7 6 5 7 8 8 13 20 23 23 23 22 20 18 16 15 13 11 10 9 7 4 3 6 10 13 15 16 15 14 16 19
7 7 9 4 8 12 10 18 18 16 10 9 11 8 10 7 7 9 14 19 22 23 23 21 20 18 16 15 13 12 11 10 7 4 5 8 12 15 17 16 15 16 18 21
4 5 3 2 5 16 15 19 21 21 18 13 12 15 9 10 9 8 14 20 22 23 23 22 20 18 17 15 13 12 11 9 7 5 7 11 14 16 15 14 16 18 21 23
9 2 3 4 2 6 11 17 21 21 21 20 18 16 7 1 4 9 15 20 22 22 21 20 18 18 17 16 14 13 12 10 5 5 9 13 15 15 15 16 19 21 22 24
9 5 4 3 6 5 8 18 19 19 21 19 20 17 13 6 8 10 13 16 17 18 18 18 17 16 16 15 14 13 11 7 4 6 10 13 15 15 16 19 21 22 23 25
13 11 3 1 6 5 1 3 16 20 19 19 19 15 6 10 9 7 5 9 11 11 14 15 15 16 15 15 13 13 10 6 4 8 10 13 16 16 18 20 20 22 24 25
7 5 3 3 7 8 8 4 5 12 17 20 17 15 6 17 18 9 8 10 11 11 12 13 14 15 16 15 14 11 8 5 6 8 11 15 16 18 19 21 23 25 26 27
5 5 2 1 3 4 6 3 0 5 7 5 16 13 16 20 9 6 11 11 12 12 12 13 14 14 14 13 12 9 6 5 6 10 14 16 17 19 21 23 26 26 27 29
4 3 4 4 3 7 3 4 4 5 2 3 6 15 21 12 5 24 17 13 11 10 10 11 12 12 13 12 10 7 5 6 8 13 15 16 17 20 22 25 26 27 27 28
6 6 3 4 4 7 5 5 4 3 6 9 13 17 17 19 18 18 16 13 11 11 11 11 12 12 10 9 8 6 4 7 12 14 14 16 19 21 24 26 27 26 25 27
7 7 5 9 5 3 2 3 2 5 12 15 18 17 21 20 17 15 15 12 11 10 10 10 10 10 9 7 6 4 6 10 12 13 15 17 21 23 24 24 24 25 24 25
4 3 3 3 4 2 4 2 4 13 14 16 18 19 17 18 15 14 12 10 9 8 9 10 10 9 7 6 5 7 10 10 11 13 16 20 23 24 23 21 22 23 24 26
1 9 8 1 2 2 5 6 13 16 17 18 15 13 14 15 13 11 9 8 7 8 8 9 9 7 7 7 8 8 8 9 12 15 19 21 22 22 22 21 22 24 22 23
7 6 6 3 13 4 10 17 17 19 19 18 17 16 13 11 10 8 6 6 7 8 9 9 9 9 8 7 7 7 8 11 14 18 20 20 22 21 21 23 27 22 23 23

GFSCGP_850_spd_024.txt.gz
Wind_Speed
16 9 17 22 22 20 15 16 16 17 13 19 20 23 11 17 23 19 24 17 15 20 13 7 8 10 14 13 12 14 16 16 16 17 19 17 14 11 9 8 8 7 6 6
15 20 26 15 18 19 20 19 18 17 16 21 21 19 15 10 15 25 24 23 18 23 14 11 11 13 14 18 20 22 21 21 22 20 16 13 12 13 11 10 8 7 6 8
20 21 15 19 19 20 23 21 18 15 22 8 9 9 9 12 21 24 24 24 22 27 22 18 17 16 17 19 18 20 19 19 19 17 15 16 15 13 10 8 7 7 8 10
18 22 20 20 23 18 22 22 20 25 20 7 9 4 14 24 20 17 18 21 27 29 26 22 19 19 18 19 20 20 21 20 17 16 15 13 12 12 9 7 6 7 9 12
6 11 17 22 21 18 20 17 18 25 12 10 8 4 7 11 13 21 9 17 30 31 29 26 21 20 20 21 21 21 21 20 19 17 13 13 12 10 7 5 4 7 12 17
16 11 10 20 22 21 17 15 20 22 10 8 10 7 6 9 11 10 10 21 32 31 30 26 22 21 22 21 20 20 19 19 17 15 14 12 10 9 6 4 5 8 13 17
8 20 10 9 18 16 23 14 10 4 4 4 16 8 10 4 8 11 12 25 32 31 31 28 25 22 21 21 20 18 18 18 16 15 13 11 9 6 4 4 7 11 15 18
7 11 13 17 11 16 24 13 5 6 7 5 8 7 4 6 9 16 25 29 31 31 30 26 23 22 21 21 19 18 17 16 14 12 10 8 6 3 4 7 10 14 17 20
4 11 6 13 18 18 9 10 27 2 6 6 4 3 4 9 6 8 20 27 30 31 30 26 24 23 22 20 18 17 16 15 13 10 8 5 3 2 5 9 12 16 19 20
1 8 4 5 12 13 12 16 9 3 8 6 5 8 5 9 9 7 13 21 28 30 29 28 26 23 21 19 18 16 14 13 11 8 6 3 1 4 7 11 15 18 19 18
5 7 3 4 6 10 13 8 7 3 2 4 5 2 7 8 11 10 10 26 30 31 31 30 26 23 22 21 19 17 14 12 10 8 5 2 2 6 10 14 16 18 17 16
9 5 3 4 2 13 6 7 5 0 3 3 3 2 6 8 7 10 14 27 31 29 30 29 26 25 23 21 19 16 14 13 11 8 5 2 4 8 12 15 17 17 16 16
9 3 0 1 6 6 6 5 3 5 4 3 3 3 6 8 7 9 18 28 30 30 29 28 27 26 22 20 18 16 15 13 10 8 5 3 6 10 13 16 16 15 16 17
11 5 6 3 6 9 8 6 5 5 0 1 2 7 6 7 9 8 20 27 32 32 31 30 28 24 21 20 19 17 15 12 10 7 4 4 7 12 15 16 15 15 17 20
4 2 5 8 12 11 10 11 9 10 7 2 2 7 9 10 11 13 20 26 29 29 29 29 28 24 23 21 18 17 15 12 10 6 3 4 10 14 16 15 15 17 19 22
9 5 5 7 7 7 8 10 13 14 8 7 8 5 7 4 18 18 23 24 25 28 30 27 25 24 24 22 20 19 15 12 9 5 3 6 11 14 15 15 16 19 22 26
5 3 4 4 4 3 3 9 14 13 11 11 11 8 1 6 8 12 22 23 22 24 26 25 24 24 23 21 20 18 15 12 8 4 4 8 13 15 14 16 19 22 25 28
6 2 3 1 4 2 5 2 11 11 7 11 8 6 3 8 16 18 13 19 20 23 26 24 23 22 22 21 18 16 13 11 6 3 6 10 14 14 15 18 21 24 27 28
7 1 1 2 4 5 3 2 1 6 9 8 7 9 15 24 18 12 14 16 18 21 23 22 23 23 22 20 18 15 12 8 4 4 8 11 13 14 17 20 24 26 27 29
4 5 3 3 2 2 2 3 6 3 3 6 7 8 15 14 5 4 13 19 20 19 20 23 22 21 19 18 15 13 10 6 3 5 9 11 12 16 19 23 26 27 27 30
3 3 4 2 2 6 2 1 4 3 3 9 10 21 20 5 4 26 21 19 19 19 20 18 17 17 15 14 13 10 7 4 3 7 9 11 14 18 22 24 25 27 29 31
4 5 3 3 2 6 5 3 2 2 3 4 19 23 29 29 29 27 23 21 19 19 18 16 16 14 13 13 11 8 5 2 5 8 9 12 16 20 22 24 27 27 30 32
6 6 6 7 5 2 4 5 4 3 8 14 22 24 27 28 26 24 22 19 18 17 17 14 12 13 13 11 8 5 3 3 6 7 10 14 18 20 22 26 27 29 30 31
5 1 2 4 3 4 6 4 7 9 15 15 19 23 25 28 23 22 19 18 16 14 13 12 11 11 10 9 6 3 2 4 5 9 13 16 19 22 25 26 27 29 30 31
1 7 6 2 2 3 4 7 15 18 19 20 20 20 22 22 20 18 17 14 13 13 13 11 9 8 8 6 3 1 3 5 8 11 14 17 21 25 26 26 28 28 27 25
5 5 4 3 12 6 8 19 20 23 25 23 24 22 18 18 19 16 14 12 11 11 11 11 8 7 5 4 2 2 4 6 9 13 16 20 24 25 26 30 33 29 29 26

GFSCGP_850_spd_027.txt.gz
Wind_Speed
9 6 10 11 9 7 9 11 11 9 10 14 20 19 18 18 23 19 25 18 15 24 20 13 11 10 12 11 10 13 17 22 25 26 26 24 21 17 14 11 7 7 6 4
7 18 10 9 12 10 14 15 21 15 14 11 14 19 22 18 15 26 26 26 19 27 23 17 15 16 15 14 17 20 22 23 23 23 21 19 16 13 11 11 10 7 5 4
16 6 16 13 14 14 17 16 17 16 14 15 9 16 21 13 24 29 32 34 24 35 29 24 22 20 21 19 17 19 20 21 19 17 16 17 17 16 13 11 8 5 4 5
15 16 15 13 19 16 17 16 16 17 13 11 4 7 13 15 16 9 22 25 31 37 31 31 27 24 22 23 21 21 22 21 16 13 15 16 16 16 13 9 5 3 4 8
6 5 18 20 22 14 16 8 10 14 15 16 18 6 7 7 13 18 19 20 35 41 39 35 29 27 25 23 24 23 23 22 20 18 16 16 16 14 11 6 2 2 6 10
9 6 2 15 15 15 14 3 8 9 8 11 16 12 6 8 16 10 10 28 35 41 39 34 29 29 28 26 25 23 22 21 19 18 16 16 14 12 9 6 1 4 9 13
6 17 4 5 3 3 13 4 4 5 6 11 8 15 13 5 8 12 15 28 37 43 41 36 33 31 29 28 26 24 23 23 21 19 18 15 13 11 7 4 1 6 10 15
5 5 15 13 18 8 10 15 5 7 9 10 14 8 7 21 9 18 33 39 42 43 42 36 33 31 30 28 27 26 24 24 21 19 17 15 11 8 4 1 4 9 13 16
5 7 1 9 9 19 10 12 20 5 4 1 7 8 4 3 7 16 25 34 34 41 41 36 31 31 30 28 26 25 24 22 20 18 15 13 9 5 1 3 7 11 15 16
3 9 13 11 19 15 12 12 8 6 3 7 5 5 5 6 9 13 18 25 30 38 38 33 31 31 29 27 25 22 20 19 18 16 13 10 7 3 1 5 9 13 15 16
8 6 4 6 10 15 12 11 7 4 9 3 5 4 5 10 14 17 17 28 34 40 37 34 32 29 29 26 24 22 21 19 17 14 11 8 5 2 3 8 12 15 15 14
11 4 5 8 6 8 13 9 9 8 9 16 4 3 4 9 10 13 18 27 35 39 36 34 32 31 30 27 25 23 21 19 16 13 10 7 4 2 6 10 14 14 14 14
8 5 3 3 4 10 8 13 17 23 5 2 4 4 1 6 8 16 22 27 33 37 36 36 34 32 31 27 25 23 21 19 16 13 10 6 2 4 8 12 13 13 13 14
17 5 6 2 2 7 6 18 19 15 3 2 2 6 3 4 8 9 23 30 36 39 40 39 37 33 30 27 25 23 20 17 15 12 9 5 2 6 10 13 12 12 14 16
6 4 8 13 16 9 8 5 7 5 4 4 5 6 8 8 10 14 26 29 32 36 40 41 39 34 29 26 24 22 19 17 14 12 8 3 3 8 11 12 12 13 15 18
7 5 12 7 8 8 7 5 6 4 3 2 3 2 4 5 11 13 27 31 29 31 33 37 36 32 28 27 26 23 19 16 14 11 6 2 4 9 12 11 12 15 18 21
6 2 5 2 4 5 3 7 4 2 2 5 3 5 4 6 8 13 24 29 31 36 38 37 35 31 28 27 25 23 18 15 13 9 5 2 6 10 10 11 14 17 20 23
5 1 3 3 4 2 4 2 8 11 5 6 4 3 3 10 15 11 25 35 36 37 37 35 32 28 28 26 23 20 16 13 12 8 4 3 8 9 10 12 16 19 22 23
3 2 2 1 2 5 2 4 3 6 6 6 11 6 12 19 15 14 12 27 32 33 33 31 28 27 28 26 23 18 14 14 11 6 2 5 8 8 11 15 18 21 23 25
4 3 2 3 2 3 2 4 3 1 2 2 1 11 15 11 5 3 17 21 26 28 29 29 28 28 27 23 18 14 14 13 8 3 3 6 6 9 13 17 20 23 24 26
3 3 5 2 2 6 4 3 6 2 4 6 4 15 18 6 4 26 23 25 26 28 28 27 26 24 21 17 15 15 14 10 5 2 4 4 7 11 15 18 21 24 25 27
6 6 3 2 2 6 2 2 2 3 4 6 12 18 25 29 34 31 26 26 25 26 24 21 21 19 17 15 15 13 10 6 3 2 2 5 9 13 16 20 23 24 26 28
4 6 5 6 6 2 1 2 4 2 7 10 23 24 30 33 31 29 28 25 23 21 20 18 19 19 16 14 11 9 7 5 2 1 3 7 11 14 19 22 23 25 27 28
4 4 3 4 5 4 6 4 5 9 12 17 22 26 27 33 30 28 26 24 22 20 19 18 17 17 17 14 11 7 5 3 1 2 5 9 14 17 20 21 23 26 28 28
4 8 6 2 1 2 4 7 14 19 19 21 21 23 28 30 27 26 25 23 21 19 17 15 14 14 13 11 8 6 4 3 1 4 8 12 16 19 21 22 25 26 25 23
5 6 5 5 10 6 6 19 24 24 24 24 27 26 24 24 26 24 22 20 18 17 15 14 12 11 11 10 7 6 4 1 3 7 11 15 18 20 22 25 27 24 25 24

GFSCGP_850_spd_030.txt.gz
Wind_Speed
3 3 9 10 7 6 8 5 8 2 7 7 12 17 18 20 23 20 29 36 31 24 26 23 20 16 16 16 17 18 23 26 29 29 29 29 23 17 15 14 12 10 7 5
4 11 9 9 10 9 10 14 18 8 8 11 10 16 14 18 21 23 30 29 32 20 27 24 20 17 16 15 15 17 19 22 25 26 28 27 24 20 15 12 11 10 7 3
16 7 16 12 14 12 14 15 9 8 9 15 15 21 13 15 23 26 33 34 32 30 34 29 24 21 19 17 18 20 20 22 23 25 25 23 20 17 15 16 13 10 5 1
11 18 13 13 16 12 16 7 11 10 10 5 2 10 7 7 15 16 31 29 30 33 36 33 27 25 23 22 21 23 23 23 22 20 20 20 20 21 18 15 12 7 3 3
6 7 16 21 18 14 11 10 9 9 12 10 17 9 8 14 17 17 19 28 37 40 41 37 32 29 25 24 25 25 24 22 19 17 16 20 21 19 17 14 9 5 1 6
8 4 4 16 15 15 3 5 9 3 5 9 19 11 10 12 14 11 17 25 36 37 41 40 35 32 30 28 27 27 27 25 20 20 21 19 18 18 15 11 6 2 3 7
4 11 6 4 3 7 16 8 4 7 7 11 9 11 21 7 13 15 13 24 35 41 46 43 39 36 33 32 31 29 27 26 24 22 20 18 16 14 11 8 5 2 5 9
5 6 15 14 15 7 12 15 5 6 3 8 6 10 8 16 26 32 21 26 36 42 48 46 42 39 36 34 32 31 29 28 25 22 21 19 16 13 11 7 3 3 7 11
6 7 3 9 10 15 4 12 23 6 4 3 6 5 10 12 7 7 14 29 33 38 48 48 42 39 37 34 32 30 29 27 25 23 21 18 15 12 9 5 2 5 9 11
3 5 7 8 7 10 16 7 5 6 4 5 5 7 12 14 10 7 15 21 29 32 40 43 40 38 36 33 31 29 27 26 25 23 19 17 14 11 6 3 4 7 10 12
8 7 3 7 12 17 7 10 8 6 6 3 3 6 10 16 14 15 14 27 35 38 44 43 40 37 34 32 31 29 27 26 24 21 19 15 12 8 4 2 6 9 11 11
13 4 7 17 8 17 23 20 18 7 8 6 4 7 4 8 15 18 18 24 28 36 42 41 39 37 35 32 30 28 26 24 22 20 17 14 10 6 2 4 8 10 10 11
9 4 4 4 5 9 15 17 22 14 3 16 6 7 7 7 8 13 21 25 29 35 39 38 38 38 36 32 30 27 25 23 20 18 15 12 8 4 3 6 9 10 9 11
15 5 7 8 1 7 10 22 22 18 6 10 11 17 8 6 10 10 18 28 33 39 41 40 39 38 35 32 30 27 24 21 19 17 14 10 6 3 4 7 8 8 10 13
9 5 8 14 22 16 18 22 24 26 12 12 23 25 9 8 12 14 25 27 29 32 37 40 40 38 36 32 28 26 23 21 18 15 12 9 5 3 5 7 7 9 11 15
7 4 5 7 8 16 14 17 19 16 13 22 15 2 5 4 15 14 24 28 28 32 37 39 39 37 34 32 30 27 23 19 16 14 11 8 5 4 6 7 7 10 14 16
5 3 4 6 1 14 8 18 14 18 20 8 2 2 5 4 7 11 22 29 32 36 41 41 39 36 35 32 29 26 22 18 15 14 11 8 4 5 6 7 9 12 15 18
5 3 4 3 5 3 4 3 6 6 7 6 6 3 4 5 10 15 23 30 32 36 37 38 37 36 32 28 26 23 20 16 15 14 11 6 3 6 6 8 11 14 17 19
8 2 3 2 2 4 4 5 3 4 3 6 7 6 5 17 10 6 14 24 30 32 32 33 33 32 29 27 25 22 19 16 15 13 8 5 5 5 6 10 13 16 18 19
4 3 2 3 2 1 2 2 1 1 2 0 3 8 10 8 5 3 9 20 24 27 28 29 30 29 27 27 24 21 18 16 14 10 7 4 4 5 8 11 15 18 19 21
3 1 2 2 2 6 4 2 3 2 4 3 2 12 14 6 2 18 17 21 24 25 26 28 28 27 28 27 23 19 16 15 12 9 5 4 4 6 9 13 17 18 20 23
4 5 2 2 1 5 4 3 2 3 2 3 0 10 14 22 29 26 25 27 27 29 29 27 28 28 26 22 18 16 16 14 10 6 4 3 4 7 11 14 16 19 22 25
4 5 4 7 5 1 3 1 3 1 2 3 13 19 28 35 33 31 32 31 30 30 29 28 27 26 22 17 14 16 14 11 7 5 4 3 6 9 13 16 18 22 24 25
4 3 2 1 2 2 3 2 2 3 7 12 21 28 32 37 32 32 30 30 29 27 26 24 23 23 22 19 16 12 11 8 6 5 3 4 8 11 14 16 20 23 24 24
4 5 4 4 3 0 4 5 6 10 16 20 21 24 30 34 33 32 30 28 26 25 23 20 20 20 19 17 14 11 9 7 6 4 4 6 10 13 16 18 22 23 22 22
4 5 4 5 7 4 3 14 17 20 22 22 25 28 29 30 32 29 28 26 24 23 21 19 17 16 16 15 12 9 8 6 4 3 5 9 12 16 19 21 22 20 22 22

GFSCGP_850_spd_033.txt.gz
Wind_Speed
3 3 9 13 10 6 6 5 6 3 7 5 8 12 11 13 20 24 26 31 32 31 32 28 21 25 23 22 22 24 23 27 30 30 31 30 26 22 18 13 10 9 12 8
3 11 8 9 7 10 7 14 13 8 8 8 10 20 15 16 20 23 24 30 36 38 32 22 23 26 24 21 20 22 26 27 28 30 32 32 27 22 17 14 13 10 9 7
13 4 11 7 8 10 11 15 11 10 7 12 9 26 20 16 23 28 32 34 36 40 37 28 27 28 24 23 20 20 22 25 29 29 31 32 27 24 19 15 13 13 10 7
10 14 16 11 13 9 19 9 14 13 5 5 1 9 7 7 15 18 25 30 32 39 39 30 32 31 27 23 19 18 20 22 25 30 30 30 28 25 20 16 16 13 9 5
6 5 10 18 15 15 8 8 9 11 8 7 17 6 5 9 17 16 9 25 33 37 37 32 35 34 28 23 21 21 23 25 27 26 25 24 24 21 21 20 16 12 7 4
14 4 4 7 10 16 2 8 14 10 9 12 10 11 7 10 14 9 9 25 29 35 37 34 37 34 30 25 24 26 26 26 24 22 21 21 23 23 23 20 15 10 5 4
3 10 5 4 4 7 11 6 4 7 8 10 8 12 22 8 6 6 9 17 28 36 37 38 40 36 32 30 30 28 28 27 25 21 21 21 21 20 18 16 12 7 4 6
5 6 13 13 14 7 17 13 5 5 4 6 7 9 11 15 23 34 33 27 19 28 36 41 44 40 37 34 33 33 32 29 25 24 25 23 21 19 16 12 8 5 5 7
6 6 3 7 11 13 6 13 15 6 4 4 5 8 13 14 15 10 14 22 27 30 36 42 48 44 40 37 35 35 33 29 28 27 25 23 19 15 12 10 7 4 6 9
3 5 7 7 14 10 8 6 5 6 6 6 7 7 12 9 23 23 10 10 20 28 34 41 48 45 40 36 34 32 30 30 29 26 24 21 18 15 12 8 5 4 7 9
5 6 2 3 12 15 7 6 6 4 4 4 3 7 3 12 16 12 8 17 27 34 38 43 45 41 38 35 33 33 31 30 28 26 23 20 18 14 10 6 4 6 8 10
10 4 8 20 7 15 20 15 12 6 7 7 2 10 2 8 13 8 9 20 23 27 33 43 43 40 37 35 34 33 31 29 27 25 22 19 15 12 7 4 4 7 9 10
10 5 5 4 5 10 10 13 14 16 2 10 9 10 7 11 12 4 17 25 28 31 36 41 40 39 37 36 34 32 30 28 26 23 20 17 13 9 6 4 5 8 9 10
15 5 8 11 10 1 6 13 17 19 11 8 15 20 23 20 9 6 11 22 29 36 40 41 40 38 36 36 34 32 29 26 24 21 18 14 11 8 5 4 6 8 9 11
9 8 12 18 20 16 4 12 20 23 22 14 10 21 25 19 10 6 12 23 28 31 37 40 40 39 38 36 33 30 27 25 22 19 16 13 10 7 5 5 7 9 11 13
5 6 4 17 20 23 10 14 22 21 24 16 13 21 19 19 27 14 19 24 26 29 35 38 39 39 38 35 33 30 27 24 20 17 15 13 10 7 5 6 8 9 11 14
4 3 3 6 6 7 6 16 24 19 20 21 13 20 23 18 8 15 22 27 31 34 38 39 38 38 37 36 33 29 26 22 19 16 15 13 10 6 6 7 8 10 12 15
5 4 3 4 2 3 4 18 19 20 14 13 13 19 22 17 6 13 20 26 28 33 36 36 36 36 35 33 30 26 24 21 18 17 15 12 8 6 7 7 8 11 14 17
10 2 4 4 3 2 4 9 9 11 12 22 24 20 9 16 9 3 12 21 27 31 33 33 32 32 32 31 28 26 23 20 18 16 14 11 8 7 7 8 10 13 16 18
3 5 3 3 3 2 2 3 10 12 3 13 19 13 8 6 4 3 13 17 21 23 26 29 29 29 29 29 27 25 23 19 17 15 13 9 7 6 7 9 12 15 18 20
3 2 3 2 3 6 4 5 2 3 4 2 4 10 10 5 2 15 18 21 21 22 24 25 27 29 29 28 27 24 20 17 16 15 11 8 7 6 7 10 15 17 19 22
5 5 3 2 2 4 6 5 3 1 2 2 6 9 13 15 20 22 22 24 24 26 26 27 30 29 28 26 25 21 18 17 15 12 9 7 5 6 9 12 15 18 22 24
4 5 4 6 4 3 4 2 3 3 2 2 6 13 23 25 24 25 27 27 27 28 29 28 28 28 27 24 19 18 18 16 13 10 7 5 5 8 11 14 17 20 22 24
4 4 2 1 1 2 3 2 5 5 7 8 15 23 25 30 28 29 29 29 29 28 28 28 29 29 27 21 16 15 16 14 10 7 6 5 6 9 13 16 19 21 23 24
3 4 3 4 5 5 6 3 3 8 11 15 19 23 30 33 32 33 33 32 31 30 29 27 26 25 24 22 19 15 12 9 8 6 4 5 8 12 14 17 20 21 21 22
5 6 4 4 4 2 1 10 10 13 15 16 22 27 27 29 33 32 32 29 28 27 25 24 23 22 22 19 16 13 10 8 7 5 5 7 10 13 17 19 20 20 21 23

GFSCGP_850_spd_036.txt.gz
Wind_Speed
4 3 8 12 9 9 3 3 6 4 8 7 11 16 17 18 19 20 24 26 32 33 27 28 27 25 24 22 20 20 19 21 28 34 33 30 28 25 24 22 19 14 9 10
0 10 8 7 5 7 8 14 17 12 10 10 13 25 18 17 19 23 24 31 31 35 36 33 26 23 23 22 21 21 21 21 27 33 33 32 31 28 26 22 17 11 9 9
8 4 5 9 7 7 8 13 14 14 6 13 12 27 20 21 29 35 37 37 38 36 37 37 32 24 23 24 23 21 21 23 24 30 33 33 32 30 28 23 17 11 12 11
8 12 12 6 4 8 16 8 13 12 5 7 4 12 9 4 11 14 26 28 33 36 37 36 32 28 26 25 22 20 20 24 26 29 32 33 34 30 26 23 17 14 14 11
6 4 5 13 16 6 5 7 9 8 7 8 12 5 5 4 11 11 9 25 32 38 38 39 33 28 26 27 24 21 20 23 25 29 31 34 35 29 24 21 18 17 14 10
13 5 4 6 4 12 1 7 5 6 5 10 11 12 23 10 10 9 11 24 31 31 32 35 32 29 30 28 24 22 21 22 24 27 32 29 31 26 22 20 19 16 12 7
3 8 6 5 6 6 9 3 3 5 7 9 7 10 23 5 7 8 10 21 28 31 30 32 33 31 34 31 27 25 24 26 26 27 28 27 25 22 21 21 18 14 9 5
3 5 10 9 16 5 13 12 5 5 4 4 5 10 15 12 21 31 31 32 24 16 22 29 31 33 37 34 31 29 29 30 29 28 27 24 22 22 22 19 16 11 6 4
5 5 4 7 6 10 5 12 13 8 7 5 5 8 11 11 16 15 14 23 27 28 23 23 29 33 39 37 35 33 33 31 30 28 26 26 25 23 20 17 12 8 4 5
4 5 8 1 4 10 12 4 5 6 6 7 6 7 11 14 12 15 20 17 22 17 21 24 28 37 41 39 37 35 33 32 29 27 28 27 24 21 17 13 9 5 4 6
4 5 2 5 10 12 7 9 7 4 4 5 3 7 5 7 2 12 14 21 25 27 26 29 32 40 43 40 37 37 35 33 31 29 28 26 23 19 15 11 7 4 5 7
9 3 6 11 12 14 15 15 19 5 5 4 3 14 5 7 8 12 12 13 15 21 27 32 36 42 41 39 37 37 36 32 31 29 27 24 21 17 13 9 6 4 6 8
10 4 5 7 1 5 7 12 14 16 3 14 6 11 7 9 7 12 8 4 13 20 25 30 34 41 41 39 38 37 35 33 31 28 25 22 19 15 11 7 5 4 7 10
15 5 8 11 19 11 7 13 17 16 7 13 18 19 17 15 15 6 4 8 14 20 24 30 38 41 39 37 37 36 35 31 29 26 23 20 17 13 9 6 4 5 8 11
7 7 9 21 26 27 24 12 18 19 26 10 17 18 12 9 10 2 6 14 17 21 27 33 40 41 38 37 36 34 31 29 27 25 21 18 15 12 8 5 5 7 9 11
6 4 5 19 20 19 19 16 17 22 20 22 19 18 12 13 6 6 10 19 19 22 27 34 38 39 38 37 36 33 30 28 25 22 19 17 13 10 7 5 6 7 10 12
3 3 3 11 10 11 5 8 15 14 14 18 15 19 15 15 16 8 9 21 22 25 33 37 38 38 37 36 34 31 28 25 22 20 18 15 12 9 6 5 6 8 10 13
6 3 3 6 7 5 4 5 13 17 12 16 12 14 11 11 18 19 17 26 24 28 33 36 36 37 35 33 30 27 25 24 22 19 16 13 11 8 6 6 6 9 12 15
15 5 4 4 4 6 5 2 4 5 6 16 17 17 16 12 8 4 13 22 27 32 34 34 35 33 32 30 28 26 25 23 21 18 15 12 10 8 6 5 7 10 13 16
8 11 3 4 4 3 3 4 7 3 5 9 15 15 10 3 2 1 12 18 23 27 30 31 30 29 29 29 28 27 25 23 19 16 14 12 9 5 4 6 9 12 15 19
3 3 6 2 3 6 2 3 13 3 3 2 16 18 5 1 2 2 15 21 21 22 25 27 28 28 29 29 28 26 23 20 18 16 14 10 6 4 5 7 11 14 17 20
5 4 3 3 3 3 3 2 2 1 3 3 7 16 21 21 8 8 15 21 23 25 26 27 29 29 29 28 27 25 23 20 17 15 11 7 5 4 6 9 13 16 19 22
3 5 3 6 5 3 3 3 5 8 7 3 7 12 23 22 22 24 25 25 26 26 27 26 28 30 29 27 25 23 21 18 16 12 8 5 4 4 8 11 15 18 21 24
3 3 2 3 2 4 3 1 5 3 2 4 6 18 23 27 24 25 25 26 26 26 27 28 30 31 30 26 22 17 17 16 12 9 6 5 4 6 10 14 18 20 22 24
3 4 3 5 7 8 9 3 1 6 8 11 14 17 22 26 27 28 28 28 28 28 29 30 31 31 30 25 20 16 15 12 9 7 5 3 5 9 12 16 19 21 21 22
5 6 4 5 5 3 1 6 8 10 12 12 17 22 22 26 31 30 30 29 29 30 30 30 29 27 25 21 19 16 12 9 7 5 3 4 8 11 15 18 18 19 20 21

GFSCGP_850_spd_039.txt.gz
Wind_Speed
5 6 10 11 8 4 2 2 9 9 9 12 13 20 17 21 23 21 26 30 29 36 32 28 27 28 28 25 25 25 24 22 21 22 32 35 34 31 26 23 22 22 18 12
3 10 8 5 4 7 8 12 15 10 11 8 13 28 19 18 25 29 30 30 30 38 39 36 30 28 28 26 27 25 24 21 21 23 32 38 36 31 28 27 27 23 17 12
5 2 4 9 5 6 7 13 13 13 10 12 16 24 15 13 25 30 32 37 35 37 40 41 40 33 28 25 25 26 25 23 21 23 31 35 34 30 30 30 27 21 16 11
6 7 4 4 5 8 13 8 12 13 7 7 2 11 8 10 14 14 18 26 32 39 39 43 42 37 33 29 25 24 25 23 21 24 29 34 36 34 33 32 28 22 16 13
4 4 4 9 9 8 6 4 6 7 8 10 13 6 9 1 6 10 11 25 32 34 37 41 44 38 34 31 28 26 26 24 23 26 28 34 36 35 34 32 27 21 17 16
7 4 5 6 5 13 2 3 8 8 5 9 13 11 19 11 12 10 10 21 28 27 30 32 39 37 35 31 30 27 26 25 25 27 30 33 34 35 34 30 25 20 19 16
4 12 7 6 5 4 8 3 2 3 5 7 6 10 20 3 9 7 12 18 24 22 25 31 31 34 36 34 32 29 27 26 27 27 29 32 34 33 30 28 25 22 20 14
4 5 9 11 15 6 10 10 5 7 5 3 3 10 8 6 14 22 29 24 30 29 25 21 27 30 34 36 34 31 28 27 28 28 29 33 34 30 27 25 23 20 16 10
5 4 1 3 3 10 6 11 14 8 10 8 8 13 17 21 15 7 16 23 27 32 25 30 20 27 35 39 37 33 31 29 29 29 31 32 29 27 26 26 22 17 12 7
1 4 4 1 3 8 6 1 4 7 5 8 6 9 13 4 10 6 10 12 24 30 28 23 25 25 33 39 40 36 32 32 32 29 30 29 29 28 26 23 19 14 9 5
4 3 3 5 9 10 9 11 8 4 5 5 7 8 7 12 6 5 8 14 24 20 24 24 26 27 33 41 40 37 36 35 35 32 31 32 31 28 24 20 15 10 6 3
8 3 5 12 9 14 15 12 18 9 8 6 10 17 7 7 7 3 11 20 20 13 16 24 26 29 34 40 38 38 37 35 33 33 33 33 30 26 22 17 12 8 4 3
8 4 4 9 2 2 8 15 22 12 8 10 3 9 7 10 4 10 14 13 11 4 11 20 25 30 35 38 39 40 37 35 34 34 33 31 27 23 19 14 10 6 3 2
13 5 7 10 14 7 12 14 15 17 8 13 16 21 14 13 15 12 16 10 7 8 12 20 26 31 38 41 41 40 38 36 35 33 30 28 24 20 16 12 8 5 2 4
7 6 9 20 24 25 26 27 22 20 26 10 16 18 16 11 5 10 17 13 9 11 15 21 29 35 39 40 40 38 37 35 34 31 28 25 22 17 13 10 6 3 3 6
6 4 5 18 22 21 21 18 16 16 21 19 21 24 17 9 7 3 11 10 10 14 18 23 30 37 39 40 39 38 36 34 31 28 26 23 19 15 12 8 4 2 4 7
4 3 3 7 13 23 4 5 7 4 7 15 14 15 11 8 7 8 13 13 14 18 22 26 34 37 37 38 38 37 35 32 29 26 24 20 16 13 9 6 2 3 5 8
6 5 3 7 13 4 2 2 6 10 9 15 11 10 8 6 12 21 22 10 18 22 25 29 35 36 36 36 36 34 32 30 28 25 22 18 14 11 7 3 1 4 7 10
15 7 3 3 4 8 3 4 2 2 6 16 14 13 9 7 16 8 5 9 17 19 24 30 33 34 34 34 33 31 31 29 26 22 19 15 12 8 5 1 3 5 8 11
10 13 6 2 4 4 3 6 1 3 4 4 9 9 2 2 3 3 5 9 16 19 24 30 32 32 32 32 32 31 30 27 23 20 17 13 10 6 2 2 4 7 10 14
4 4 11 8 3 7 4 7 2 4 5 4 10 8 3 1 3 3 7 13 16 19 24 29 31 31 31 32 31 29 27 24 21 18 14 11 8 3 3 3 6 9 13 16
5 5 3 3 3 6 3 2 2 2 7 11 10 8 10 7 8 9 12 16 17 21 26 27 30 31 32 31 30 28 25 22 18 15 12 9 5 3 2 5 8 12 15 17
3 5 4 6 5 5 7 6 9 10 11 9 10 9 9 15 11 14 15 15 19 22 26 28 30 33 32 30 27 26 23 20 16 13 10 6 4 2 3 7 10 14 16 18
3 3 2 2 3 6 11 8 6 7 7 7 5 6 10 13 16 18 20 21 22 25 28 30 32 33 32 28 24 19 20 17 13 12 8 5 3 2 6 10 13 15 18 19
4 5 4 5 7 8 10 9 4 4 5 7 7 8 13 16 20 23 24 23 25 27 28 29 32 32 30 26 23 19 16 14 12 9 6 4 2 5 8 11 14 16 18 20
6 6 4 4 3 0 2 3 4 5 8 10 11 15 15 18 24 24 26 26 27 28 29 31 32 31 30 25 21 18 15 11 8 6 5 2 3 7 10 13 15 16 17 19

GFSCGP_850_spd_042.txt.gz
Wind_Speed
12 7 12 13 13 8 1 6 9 10 10 18 19 23 21 25 29 29 30 30 32 33 27 25 23 22 21 28 31 28 27 24 24 25 24 26 29 33 32 30 28 26 24 21
6 12 12 7 11 13 14 15 15 13 11 10 18 32 24 26 26 32 32 33 35 35 34 33 29 28 24 25 30 29 28 25 24 24 24 22 33 37 35 31 29 27 25 22
8 3 4 14 12 12 15 15 14 16 15 17 20 25 16 5 12 20 27 31 33 35 35 33 34 33 29 26 27 30 29 28 26 25 25 33 38 37 34 31 29 28 26 22
9 11 6 9 11 12 13 8 13 13 9 6 3 11 17 16 18 17 23 23 26 27 29 32 35 33 33 30 30 29 30 30 28 29 28 31 36 40 35 32 32 30 26 20
5 6 11 14 13 11 6 5 7 9 11 13 14 6 13 6 15 15 15 19 20 20 22 26 30 33 31 32 36 32 30 30 30 27 27 28 32 35 36 34 33 30 25 22
8 4 6 10 9 12 3 7 9 8 5 8 15 15 19 12 10 8 7 7 12 14 16 22 24 25 28 27 35 34 31 31 30 28 27 29 34 37 36 35 34 30 26 22
8 16 8 10 8 8 11 4 3 4 6 8 1 12 22 2 6 11 12 15 20 20 20 19 19 23 25 28 33 35 34 33 31 29 28 31 32 33 31 34 34 29 26 22
5 5 15 12 16 7 16 11 5 6 5 7 4 11 9 4 3 6 8 18 17 17 21 24 21 21 23 29 32 34 36 34 32 30 30 29 31 32 33 34 33 28 23 19
5 4 3 7 5 12 7 10 13 16 16 11 10 20 26 26 23 20 22 9 11 17 22 21 22 19 23 25 32 36 36 34 32 31 30 30 31 33 35 33 29 24 21 17
2 4 4 3 6 10 13 1 3 5 5 9 11 19 15 8 13 8 7 8 13 18 23 16 19 19 20 24 30 32 33 33 32 31 31 30 31 32 34 30 27 23 19 14
7 4 4 4 10 13 9 8 7 5 6 6 10 13 6 9 10 12 6 9 15 16 23 12 13 16 18 23 29 31 31 32 32 32 32 32 33 33 30 28 25 21 16 11
12 4 7 15 11 14 15 12 19 8 8 9 12 22 13 15 11 7 7 13 15 12 17 9 8 15 20 24 28 33 33 32 34 35 34 34 34 32 30 28 23 18 13 9
10 5 4 4 5 4 8 13 20 18 13 22 15 14 4 10 8 9 9 17 16 10 11 3 7 14 20 24 27 32 34 36 35 34 35 35 34 33 29 25 20 16 11 7
14 5 8 9 11 9 9 16 15 16 10 22 22 31 25 13 13 17 23 14 13 8 6 1 10 15 21 25 31 35 37 37 37 37 37 37 34 30 26 22 17 13 9 5
9 5 12 18 22 22 23 25 26 19 23 16 29 20 18 14 14 16 18 12 9 7 3 7 11 17 22 31 36 37 39 38 38 38 37 35 32 27 23 19 14 10 6 2
7 4 8 13 20 20 21 21 20 17 12 16 22 24 23 19 17 17 11 9 8 7 8 11 15 19 25 35 40 40 40 39 38 37 35 31 28 24 20 15 11 8 4 1
5 4 3 8 13 23 5 4 10 8 7 7 9 13 13 11 8 6 10 13 16 11 14 16 18 22 32 37 40 41 40 38 36 34 31 28 24 21 17 13 9 5 2 1
5 5 2 7 14 3 5 4 8 8 11 13 14 14 12 11 13 13 12 9 8 14 16 18 23 30 33 37 39 39 38 37 35 31 28 25 21 17 14 10 7 3 1 3
14 6 3 4 7 15 1 2 6 3 5 9 14 12 11 14 10 8 13 7 11 15 18 21 27 31 35 38 39 39 37 34 31 28 25 21 17 14 11 8 5 1 2 5
10 10 5 3 5 4 4 4 2 3 4 11 7 7 7 8 5 3 9 9 14 17 21 25 27 29 32 34 35 35 34 31 27 25 22 18 15 11 9 5 3 1 4 7
4 3 12 10 5 9 6 5 4 4 5 6 11 5 4 6 4 5 9 12 14 20 24 27 29 30 32 34 33 32 31 28 25 22 19 16 13 9 6 4 1 3 7 10
7 6 4 4 5 7 1 3 5 3 7 9 3 6 5 9 10 11 14 15 17 24 27 28 30 30 31 31 31 30 28 24 21 19 16 14 12 8 4 2 3 6 9 12
4 6 2 7 5 3 3 6 6 6 8 8 7 4 5 10 11 14 16 17 18 22 27 28 30 31 31 30 27 27 25 23 20 18 16 12 8 5 3 2 5 9 12 14
5 5 4 3 3 8 4 4 6 7 4 5 6 9 11 14 15 20 20 19 21 23 25 28 30 31 30 28 24 21 23 21 19 17 13 10 7 4 1 4 8 11 13 14
1 5 5 6 12 12 3 3 3 3 3 5 5 7 13 19 20 21 22 23 23 25 26 28 31 31 30 27 24 22 21 19 17 13 10 7 5 1 4 7 10 12 13 14
6 5 4 3 3 3 3 1 2 1 4 7 10 13 13 17 22 24 24 25 25 27 27 29 30 30 30 28 25 22 19 15 11 10 8 5 1 3 6 9 11 12 12 15

GFSCGP_850_spd_045.txt.gz
Wind_Speed
11 9 13 16 15 16 3 7 10 10 9 17 19 21 21 23 28 28 29 30 31 33 28 27 28 30 32 34 32 30 27 24 22 22 24 23 26 27 27 26 28 26 25 24
6 14 15 9 8 10 12 13 14 14 13 10 18 28 24 26 28 32 34 36 36 35 34 34 33 32 32 33 34 32 30 27 27 24 24 23 26 32 35 37 32 29 30 26
9 1 7 13 10 10 12 13 13 15 15 18 22 26 23 16 21 33 39 40 36 34 33 34 34 36 34 35 34 33 31 29 29 26 23 24 32 38 42 38 36 33 30 25
12 8 4 9 12 11 11 9 10 11 9 6 4 10 17 17 17 16 18 19 21 24 26 29 32 33 35 37 34 33 32 30 28 28 28 35 38 41 39 37 34 33 29 25
6 7 13 11 12 8 5 2 5 7 9 12 14 8 12 8 14 13 11 15 16 17 19 21 23 28 32 32 36 34 31 30 29 30 32 35 33 26 33 37 34 30 30 27
8 5 7 9 6 9 3 4 8 8 8 8 15 15 15 6 7 8 8 7 8 10 13 16 17 23 26 30 27 34 32 32 30 33 32 31 25 32 33 38 36 33 31 29
12 14 7 10 7 6 8 2 2 4 4 8 2 11 17 13 17 7 7 10 12 11 14 18 20 21 22 26 32 30 31 31 31 31 28 26 28 31 29 35 35 32 31 29
9 6 18 11 13 5 14 8 4 5 4 8 7 10 6 10 2 6 9 13 15 17 18 14 20 24 22 25 29 30 29 30 30 28 27 26 32 28 30 34 31 32 31 28
6 2 2 8 7 12 6 8 10 11 16 10 9 16 17 19 19 9 14 21 18 13 13 17 22 22 21 21 26 31 30 29 29 28 29 31 29 30 31 34 33 34 31 25
0 3 6 6 5 10 12 0 2 2 5 7 10 16 13 12 12 9 9 10 13 12 13 17 21 16 20 20 23 28 29 29 29 28 28 29 29 30 30 32 35 31 26 22
6 3 6 5 10 12 10 10 6 6 7 5 10 10 12 10 9 9 11 11 9 14 16 15 17 12 14 18 22 26 28 29 29 29 31 30 30 30 31 31 30 27 22 21
9 3 5 11 8 8 14 11 16 6 7 7 10 20 14 18 10 14 17 18 15 15 12 13 13 5 10 16 23 25 26 32 31 30 30 30 31 31 33 32 28 23 22 18
10 5 3 3 3 7 9 16 17 17 14 22 14 15 4 12 17 18 15 18 18 17 11 8 8 6 10 18 23 25 26 30 32 31 30 32 33 35 34 29 25 23 19 15
10 4 7 4 8 6 5 13 16 14 7 22 23 33 28 25 19 16 21 24 22 18 8 7 5 9 12 18 23 23 25 27 32 32 34 37 36 33 30 28 25 21 16 12
5 5 10 16 20 20 19 20 19 18 20 15 30 26 28 22 21 17 20 20 18 9 8 6 8 13 18 21 23 24 25 29 35 36 37 38 36 32 30 27 22 18 14 9
4 4 6 12 19 18 16 18 20 19 18 15 16 21 21 18 13 13 17 14 10 16 13 8 12 18 20 23 26 28 31 38 38 39 38 36 33 30 27 23 19 14 10 6
5 2 3 5 9 17 6 6 6 9 12 7 9 10 11 10 7 10 13 16 20 25 15 15 17 19 22 27 30 35 39 39 39 39 36 32 30 27 23 19 15 11 7 3
6 8 3 6 11 3 8 4 4 8 10 9 14 14 12 13 11 8 13 15 7 16 17 17 19 22 24 29 33 38 39 38 37 35 32 28 26 23 20 16 12 9 4 1
10 3 3 3 6 14 8 2 5 2 3 8 11 9 10 8 8 3 15 12 12 14 16 18 20 24 28 33 35 39 40 38 34 32 28 25 23 20 17 13 10 5 1 2
10 9 3 3 4 3 2 4 3 3 2 10 9 11 11 12 1 3 11 12 16 16 19 21 22 25 29 34 36 38 36 31 27 26 25 23 19 16 14 10 3 3 1 3
5 3 8 8 5 8 9 3 4 4 5 8 6 12 12 6 5 6 11 15 16 18 22 23 24 27 31 31 30 30 29 27 26 25 23 19 16 13 8 4 5 1 3 6
8 8 4 4 5 8 1 2 5 4 4 3 7 5 6 7 9 11 12 15 18 23 23 22 25 26 23 23 27 28 27 25 23 20 18 16 13 8 7 4 1 2 6 9
5 6 4 7 6 7 2 8 11 7 8 5 5 3 5 8 9 12 14 14 20 24 24 26 28 27 26 25 21 23 23 22 20 17 15 14 11 8 4 1 2 6 8 10
7 7 5 3 5 9 9 10 3 5 5 4 6 8 11 10 11 13 15 19 20 18 20 21 24 24 25 22 21 20 23 20 18 18 15 11 7 5 2 1 5 7 9 10
3 6 5 11 16 11 6 5 3 2 3 4 1 7 12 15 17 17 21 19 21 22 23 23 23 25 26 24 22 21 21 19 17 14 10 8 5 2 1 4 6 8 11 12
8 8 5 5 6 5 5 4 5 3 4 5 7 12 13 14 17 16 15 18 22 25 25 25 24 28 28 25 23 22 19 15 12 10 8 6 4 2 3 6 9 11 11 14

GFSCGP_850_spd_048.txt.gz
Wind_Speed
13 5 9 12 12 14 11 6 11 5 7 8 10 14 14 17 23 24 26 28 33 33 29 25 28 29 34 37 34 34 35 36 33 35 33 31 22 27 27 24 26 29 29 27
3 8 10 8 5 7 9 7 10 9 8 7 10 19 17 21 20 29 30 31 32 32 30 31 29 28 33 33 37 37 32 29 34 34 36 35 29 28 29 28 30 30 32 30
6 1 11 11 4 4 6 6 8 10 11 10 12 16 11 10 23 34 35 36 31 30 32 33 33 33 34 36 38 35 34 37 31 32 32 33 32 32 34 34 34 35 38 32
7 6 5 6 9 6 6 2 5 6 6 4 11 7 6 9 10 8 16 21 27 32 32 31 31 31 35 37 36 37 35 39 35 34 37 39 39 40 42 40 42 43 37 32
5 3 6 5 6 5 2 5 4 5 5 7 4 3 7 4 7 6 8 24 21 18 22 21 23 25 29 26 28 38 38 35 40 39 40 43 42 43 40 41 43 40 33 31
5 3 3 5 2 3 6 2 4 4 2 5 10 9 5 3 4 6 10 13 12 12 12 12 15 17 18 22 29 24 37 37 38 38 41 44 44 42 41 40 41 39 36 33
5 7 3 4 7 4 3 3 1 2 2 6 3 9 11 15 12 15 8 2 7 6 6 8 12 13 19 24 26 31 26 39 36 35 40 40 44 40 37 37 39 37 37 34
7 4 14 10 8 5 9 4 2 4 2 4 7 7 6 12 10 5 7 8 11 12 9 10 11 14 21 22 24 29 33 34 36 36 38 38 38 34 34 30 32 34 35 33
7 2 9 12 6 8 5 7 1 4 4 2 5 6 9 14 10 9 4 12 14 21 18 10 10 14 23 22 27 27 28 32 35 35 36 36 32 34 30 29 32 37 36 32
5 3 2 7 7 9 7 6 3 1 2 5 5 7 7 4 7 7 6 6 10 11 11 8 11 15 22 20 23 23 28 32 32 34 35 36 36 33 27 29 37 37 33 32
4 2 2 5 7 9 7 5 2 1 3 3 4 5 4 5 7 7 9 19 20 10 8 12 13 18 19 16 17 21 29 32 31 34 39 39 38 30 28 32 35 33 32 27
6 3 3 8 8 12 11 6 8 3 4 4 2 7 16 9 2 2 7 17 26 15 10 11 13 17 15 13 14 24 28 29 37 39 39 38 32 30 32 32 33 32 29 25
7 3 2 3 2 6 4 6 9 10 4 12 6 6 3 14 20 27 27 21 20 17 16 5 5 10 13 12 15 22 28 36 37 37 36 32 30 32 32 32 32 30 27 23
13 4 4 2 4 2 3 6 7 6 5 13 19 25 25 22 24 23 28 28 26 20 10 4 3 5 9 13 17 30 34 35 36 35 31 31 33 33 34 34 32 27 24 20
4 3 5 10 13 9 10 10 13 15 20 12 23 23 26 23 22 18 14 19 15 28 9 6 3 8 11 15 25 29 32 31 31 29 32 35 36 37 36 33 29 25 23 18
3 2 4 5 12 12 12 16 16 19 19 16 19 24 16 25 11 12 12 14 15 17 3 4 5 12 18 24 28 29 29 28 29 34 38 39 39 37 33 29 26 23 18 14
6 3 1 3 7 9 8 9 9 4 7 8 9 17 14 16 13 8 11 15 19 21 15 9 15 22 23 26 27 27 29 32 35 39 40 40 37 34 31 27 23 19 14 10
5 5 2 4 8 4 2 6 6 7 8 8 13 14 11 8 6 16 17 14 8 3 13 16 21 22 20 22 24 29 33 35 38 39 38 35 33 30 27 24 20 16 11 6
5 2 2 2 5 9 3 4 1 1 3 4 8 12 13 4 5 11 19 11 10 14 16 16 16 16 19 24 27 33 34 38 37 36 34 31 27 26 23 19 15 11 6 3
6 5 0 3 3 3 2 4 4 7 2 4 0 8 11 11 4 3 13 8 10 11 13 16 17 22 25 28 31 33 33 34 34 32 30 26 23 19 17 15 10 6 3 1
4 2 6 4 3 6 7 7 8 1 4 4 2 7 11 4 5 8 11 12 10 14 17 19 22 27 30 32 29 31 30 28 27 26 22 20 19 19 14 7 5 4 2 2
6 6 3 3 3 7 1 4 0 2 3 7 3 2 7 8 10 13 18 19 23 24 21 20 25 27 29 31 31 28 27 25 23 24 25 24 18 9 7 7 6 3 2 5
5 6 5 6 6 8 5 8 4 5 5 6 3 3 7 9 11 11 19 20 21 26 25 24 28 30 26 24 24 27 27 26 27 23 17 14 12 11 9 6 3 2 5 7
4 11 3 4 5 9 5 8 6 6 5 7 6 7 10 12 13 13 18 19 21 23 26 28 30 29 28 24 25 28 28 24 21 19 16 13 10 8 6 4 3 6 8 9
1 1 4 6 9 4 7 7 4 5 4 4 1 10 11 13 15 15 18 18 18 21 21 21 25 28 27 25 27 26 22 18 16 15 12 10 7 6 4 4 6 8 9 11
6 5 4 3 4 1 2 3 3 2 1 2 5 10 11 13 15 18 19 20 22 23 20 20 24 26 27 26 24 21 17 13 10 10 9 7 5 4 4 6 7 9 11 13

GFSCGP_850_spd_051.txt.gz
Wind_Speed
7 3 5 9 6 5 4 3 5 4 5 4 8 9 12 15 25 25 25 32 35 35 30 24 25 29 35 37 38 38 35 30 39 39 37 34 33 32 35 30 28 27 30 27
3 4 5 6 9 9 9 7 4 6 3 5 10 18 16 19 18 29 32 31 38 40 41 37 31 27 25 33 40 35 38 40 36 39 37 38 36 29 36 32 30 29 30 32
6 4 7 5 5 4 2 2 2 4 6 4 9 10 8 8 20 33 35 35 34 41 40 36 35 36 33 28 32 34 33 34 44 43 42 40 37 33 34 34 34 34 33 35
3 3 2 5 4 4 1 5 1 3 4 4 4 6 6 8 8 5 18 26 35 38 39 35 30 34 35 35 28 30 32 31 27 39 44 43 44 42 38 38 38 38 36 37
6 5 5 3 3 4 3 5 5 4 3 5 3 2 7 6 4 5 3 12 26 24 22 24 28 30 30 28 27 28 38 35 35 31 41 42 45 41 39 41 37 39 39 40
4 6 4 5 2 4 6 3 3 3 3 2 7 5 4 2 4 2 4 18 12 13 9 7 13 17 18 19 21 25 24 37 37 37 39 44 43 43 42 44 40 42 42 40
3 3 1 2 4 3 4 5 2 1 1 6 2 4 7 10 13 8 9 9 7 7 5 4 7 7 9 12 15 17 22 26 34 42 41 44 44 44 44 46 44 45 45 40
5 1 8 5 5 6 5 5 4 5 3 4 4 6 6 7 14 16 8 2 7 8 6 7 10 12 13 15 17 18 22 27 27 36 44 45 45 46 43 45 44 44 42 39
4 3 6 7 3 6 3 4 4 1 3 3 5 7 9 8 7 7 10 6 10 16 19 14 13 14 12 13 17 21 24 26 27 30 42 45 44 42 40 41 42 39 38 35
2 4 7 5 5 4 5 4 3 2 0 4 5 5 7 4 7 7 8 11 19 22 23 11 11 11 12 14 20 22 23 27 26 30 39 41 41 37 36 36 35 34 34 32
1 4 2 3 5 8 5 2 2 3 4 4 2 6 5 4 4 1 4 17 24 26 27 28 22 16 12 14 16 16 19 27 26 34 38 38 36 33 33 31 30 33 34 34
2 3 3 7 5 7 4 5 5 4 5 3 2 8 8 13 4 9 23 27 30 26 32 26 18 14 17 19 19 12 21 25 31 34 31 32 30 30 31 29 29 34 35 33
5 3 3 3 3 4 5 8 5 3 2 6 2 6 2 7 15 30 20 27 27 27 19 13 12 10 11 14 16 17 23 27 29 29 29 30 30 32 29 29 33 35 34 29
7 4 5 5 2 4 4 5 7 9 3 4 10 14 22 18 19 23 31 24 12 13 19 14 9 7 10 12 15 16 24 26 27 31 30 31 30 30 30 32 33 33 31 28
3 3 2 5 7 5 7 7 8 9 16 8 21 16 22 21 23 25 29 22 20 20 19 15 16 5 6 8 13 17 26 29 32 33 29 28 30 29 30 34 35 33 29 26
2 1 2 5 9 10 10 12 13 17 20 16 23 26 22 22 25 18 12 15 17 18 14 9 4 5 7 10 14 21 26 30 30 29 27 28 29 32 35 37 34 31 27 22
4 3 1 4 4 3 5 10 16 7 7 10 11 13 13 15 8 9 14 17 15 17 12 12 7 9 14 17 20 21 24 24 23 25 27 30 33 38 37 33 29 27 23 18
5 4 3 3 4 1 4 3 6 9 5 6 9 10 11 14 3 10 14 11 12 12 13 17 16 17 18 19 19 19 19 21 24 27 32 36 37 34 30 29 26 22 18 12
3 4 2 2 3 6 1 2 3 5 4 4 6 9 11 15 7 8 12 11 9 9 11 14 15 16 17 17 19 19 24 27 29 28 27 26 27 30 29 25 21 18 15 12
4 3 1 2 1 3 1 2 2 4 2 6 7 5 8 11 2 2 9 6 7 8 9 12 14 15 17 21 20 24 26 25 25 23 27 27 26 25 24 20 16 11 10 6
3 3 4 6 3 6 8 5 5 2 4 5 6 2 3 2 2 4 5 8 8 9 12 14 14 17 19 18 16 20 17 22 26 28 28 26 23 19 16 15 13 9 6 4
7 6 4 5 3 7 4 4 3 6 4 4 4 4 9 12 10 12 16 13 12 12 12 13 19 22 20 22 20 27 29 29 29 27 24 21 19 17 15 11 10 7 3 1
3 6 5 7 6 7 6 9 5 4 4 3 3 5 10 14 15 13 14 19 19 15 15 17 19 21 19 24 25 29 29 25 24 23 24 19 15 13 11 8 6 3 2 3
4 9 3 2 5 10 21 8 4 6 4 5 5 7 13 15 16 18 17 19 19 21 24 24 24 24 24 22 24 21 25 25 24 20 18 15 13 11 9 5 3 1 2 3
5 3 5 5 8 2 3 2 5 6 5 4 2 8 12 16 16 21 23 21 20 20 21 23 25 25 25 24 26 25 23 19 17 17 16 13 10 8 6 3 2 2 4 6
5 6 4 4 4 2 2 5 5 5 3 2 4 10 12 13 17 21 21 22 24 26 25 23 23 25 26 25 23 22 19 17 17 16 14 11 9 6 4 3 4 5 8 11

GFSCGP_850_spd_054.txt.gz
Wind_Speed
8 3 5 8 9 4 6 2 4 4 4 3 7 6 10 16 19 20 26 34 37 38 35 28 26 30 33 41 45 38 37 31 37 39 38 38 36 33 32 35 32 29 29 28
3 4 5 4 5 4 3 4 6 7 2 2 6 12 15 15 16 28 34 34 35 37 39 36 31 27 24 28 35 39 37 36 36 42 44 43 39 37 34 34 33 32 33 29
6 5 7 5 3 5 4 4 3 4 5 1 7 9 7 6 12 27 32 34 34 40 44 43 40 38 34 31 26 26 37 40 35 39 43 44 41 39 37 35 36 37 38 34
3 3 7 5 3 4 4 1 2 4 4 4 5 5 6 7 9 6 9 16 27 32 32 32 34 35 35 34 32 30 25 27 34 33 43 46 46 45 41 39 38 41 39 37
6 8 8 4 5 5 3 5 4 3 3 4 2 2 8 5 6 2 1 10 15 18 21 21 20 22 26 26 26 29 30 29 25 29 29 42 48 47 44 42 38 40 41 41
3 5 3 4 3 6 6 5 6 4 3 2 4 5 6 3 4 3 5 21 12 2 5 11 13 15 18 20 23 26 25 25 30 34 33 34 42 47 44 41 42 42 42 42
2 2 2 3 7 3 6 6 2 4 2 6 3 4 9 9 11 4 9 18 7 8 3 5 8 9 12 13 15 17 20 23 23 23 32 39 38 40 44 42 43 43 42 42
5 2 6 3 4 5 4 6 4 5 2 4 2 5 5 5 10 8 8 17 18 21 20 16 8 9 13 16 19 20 21 24 26 29 31 30 39 40 43 43 41 41 42 42
5 1 2 4 4 6 4 2 3 4 3 3 4 6 9 4 6 8 13 25 28 31 29 26 15 10 11 15 17 20 21 23 27 33 34 35 33 40 43 43 41 41 42 42
5 4 5 3 5 3 5 6 3 3 1 3 4 5 5 2 3 5 10 21 32 37 38 34 25 21 21 18 15 15 18 23 27 31 34 32 34 36 41 43 39 39 38 39
2 4 0 3 3 6 3 1 3 4 4 3 2 6 5 4 3 4 6 15 15 24 28 31 31 30 26 23 18 21 20 22 27 29 30 30 32 37 39 37 37 35 34 35
2 5 3 3 2 4 4 5 5 4 4 0 1 7 4 3 3 7 21 20 32 27 22 24 25 23 16 18 17 14 19 25 24 24 27 29 30 36 35 32 33 31 32 33
3 2 3 2 4 2 3 5 4 4 3 6 4 6 1 6 13 21 20 28 31 26 15 23 23 16 15 16 13 15 17 22 23 26 24 25 28 29 28 28 27 27 30 32
6 2 4 5 4 4 4 5 8 6 3 3 7 11 15 16 13 19 29 28 25 26 23 26 25 20 17 15 15 14 15 18 22 24 25 26 27 26 23 21 24 27 31 33
4 3 4 5 6 2 4 6 8 13 16 6 3 8 17 18 18 23 26 20 21 20 21 22 17 16 12 12 10 11 12 14 20 24 25 26 26 25 24 25 28 29 31 32
2 1 1 4 6 8 7 10 10 13 15 15 21 24 23 25 14 15 15 18 17 20 26 15 7 6 11 8 6 4 6 10 16 19 22 24 25 26 26 27 28 30 31 28
4 3 1 4 3 1 5 11 15 7 7 10 13 17 13 9 10 6 12 13 13 18 18 6 4 5 7 6 5 5 10 15 19 21 23 22 24 25 26 26 28 27 25 23
5 4 3 3 3 3 5 4 7 14 10 11 14 14 10 8 2 2 8 11 11 11 6 4 6 7 6 6 8 12 11 10 14 18 22 23 20 20 22 26 26 25 22 18
4 3 2 2 2 6 2 2 4 6 5 7 8 7 8 9 7 3 10 8 6 5 4 4 7 9 10 9 10 9 12 15 14 16 18 18 18 27 26 25 26 21 19 16
3 4 2 1 1 3 2 2 4 4 4 8 9 7 4 4 0 2 9 5 3 3 5 6 8 9 9 11 8 5 10 13 19 23 21 19 22 26 26 22 21 18 11 8
3 2 4 4 3 7 7 2 6 2 5 6 11 8 3 2 2 3 2 3 4 4 7 8 9 9 11 11 7 14 18 11 16 21 26 28 27 23 20 18 14 12 10 7
6 5 3 3 3 7 4 4 2 3 8 6 6 6 6 9 7 5 4 5 6 6 7 8 11 14 13 16 12 12 16 21 25 25 25 24 20 17 15 12 12 11 8 6
4 6 5 7 6 6 4 8 13 12 11 8 5 6 11 13 11 8 8 8 9 10 10 10 12 12 12 12 17 23 25 24 24 22 21 20 18 16 15 11 9 6 4 2
4 8 3 2 5 8 14 16 18 11 8 6 5 8 14 15 15 13 11 13 13 13 16 15 16 19 20 21 21 22 22 20 19 19 17 16 16 15 12 8 6 3 2 2
4 4 3 5 8 15 9 7 6 9 8 5 4 8 16 15 17 17 16 15 17 18 19 19 19 20 21 20 19 19 20 19 17 16 15 15 12 10 7 5 3 1 2 5
7 7 4 4 6 6 6 5 7 8 8 4 3 10 15 16 18 20 20 18 18 19 18 19 18 19 21 19 18 18 16 13 14 15 13 11 8 6 3 1 2 3 6 8

GFSCGP_850_spd_057.txt.gz
Wind_Speed
9 2 10 13 7 2 6 4 2 2 3 3 5 5 14 16 15 17 29 35 37 37 37 36 32 27 27 37 43 39 33 28 28 29 41 38 38 36 35 33 30 29 29 25
3 3 8 12 10 4 2 2 3 5 1 1 5 9 16 13 13 24 30 31 35 38 40 39 36 31 28 24 34 43 40 36 34 32 33 41 40 40 38 35 34 33 32 30
4 5 10 10 8 6 3 4 3 3 4 2 7 7 7 3 8 19 25 32 36 38 43 45 42 37 33 29 24 26 30 33 36 35 34 40 42 43 42 40 36 36 37 34
3 3 9 8 5 6 4 3 3 3 3 2 5 5 6 5 8 6 14 14 13 20 25 24 25 24 29 34 32 30 29 26 23 28 37 37 43 44 46 43 39 37 37 38
3 2 8 4 4 5 3 5 5 3 4 3 2 2 8 3 4 5 4 17 22 19 9 10 11 11 10 16 24 29 29 27 25 22 26 32 41 45 45 45 45 42 40 38
3 3 3 2 4 4 8 5 6 4 2 2 3 3 6 2 2 5 7 19 28 29 25 13 8 9 8 8 13 19 22 24 27 28 29 27 28 33 43 43 45 45 40 40
4 2 2 4 7 5 5 6 2 4 3 4 3 2 8 9 7 4 5 14 22 26 28 26 16 10 6 8 10 12 15 19 22 23 23 24 29 34 32 34 42 45 45 42
4 2 4 1 4 6 1 5 4 4 2 3 1 5 5 5 9 10 11 18 25 27 28 25 20 15 11 9 10 12 16 18 20 23 24 24 24 25 31 35 35 40 43 44
4 3 1 3 3 5 4 2 3 5 3 2 3 7 8 2 5 7 15 25 28 29 31 24 22 16 13 15 18 18 19 21 23 24 26 29 30 29 28 32 37 39 38 39
4 4 2 2 5 5 4 7 3 3 2 3 4 5 4 3 3 5 10 20 28 32 29 22 22 23 20 19 22 23 23 24 24 24 25 27 31 31 29 28 36 38 38 38
4 3 2 4 3 5 3 1 5 4 2 3 1 5 5 4 3 5 10 20 20 28 28 25 21 25 26 23 21 24 24 23 23 23 25 29 33 29 28 29 33 39 37 33
1 4 3 2 1 3 3 5 4 4 3 1 1 6 3 6 7 3 14 22 30 30 28 26 20 24 26 25 16 16 19 19 19 23 26 30 26 25 25 29 32 36 34 30
3 2 3 2 2 2 3 4 4 5 3 5 5 5 2 5 5 15 15 20 22 24 26 23 21 27 21 20 16 12 13 16 18 20 20 19 20 19 23 25 28 29 27 25
6 3 4 5 3 4 3 4 6 5 3 3 7 7 11 13 13 15 21 15 22 21 21 21 21 16 15 18 19 16 17 18 19 17 15 14 17 17 18 22 23 23 24 25
4 2 2 3 4 2 5 4 8 11 9 6 3 6 11 12 14 23 12 18 19 19 25 23 15 11 14 11 10 12 13 15 13 12 8 10 13 16 18 20 22 25 25 24
2 1 1 3 4 6 5 7 8 9 10 12 19 22 24 28 22 11 11 14 14 20 24 14 7 7 7 7 7 9 10 8 6 4 5 10 14 17 21 23 23 23 21 23
3 3 2 4 4 3 5 8 13 7 5 14 12 20 13 9 8 8 9 9 12 14 14 9 4 5 4 5 7 8 6 5 4 6 11 14 16 19 21 21 20 20 26 26
4 4 2 2 4 2 6 3 6 14 9 14 14 14 14 8 10 6 5 8 8 8 8 5 3 3 4 4 3 1 1 1 4 9 11 13 13 14 17 19 22 24 23 22
4 3 2 1 2 6 1 3 5 6 5 11 15 13 5 7 6 4 4 7 4 4 4 2 0 1 1 0 1 3 7 7 9 11 11 9 9 14 20 22 24 23 23 21
4 4 3 1 1 3 2 1 3 4 3 5 11 7 1 2 3 1 3 2 1 2 2 2 2 2 3 5 5 4 8 10 10 13 15 16 18 20 23 23 23 20 16 14
3 2 4 5 3 6 7 6 3 2 3 8 7 11 4 3 1 1 1 2 3 3 3 4 4 5 6 5 4 6 9 11 16 20 22 21 22 23 22 21 18 16 13 12
6 5 3 3 3 6 4 1 3 3 7 8 10 8 9 7 5 3 4 4 5 4 4 4 4 6 6 5 7 7 10 15 14 16 21 23 21 19 17 15 14 14 12 9
3 5 4 7 5 6 5 8 13 12 10 8 8 8 9 9 8 6 6 6 6 8 8 8 7 8 12 6 11 18 22 21 21 22 21 19 18 16 16 14 12 10 7 4
4 6 3 1 4 12 19 13 12 8 8 9 8 8 11 11 11 8 10 9 10 12 12 13 14 16 17 17 20 22 21 19 18 18 17 16 15 15 13 10 8 5 3 2
4 6 4 4 8 17 15 9 2 6 7 7 6 7 11 12 13 11 12 12 13 14 16 18 18 19 20 19 18 18 17 18 17 16 16 14 12 10 8 5 4 2 1 3
7 7 4 5 4 5 14 9 7 7 6 5 4 5 10 13 14 16 15 15 13 14 17 19 17 18 18 16 17 17 16 13 12 13 12 11 8 6 4 2 1 2 5 9

GFSCGP_850_spd_060.txt.gz
Wind_Speed
14 6 14 20 12 5 7 5 4 3 2 0 5 5 11 17 15 14 23 30 33 35 32 31 28 29 28 25 30 34 35 31 30 27 26 32 37 37 35 33 30 28 26 26
4 5 9 12 7 7 8 7 4 1 1 2 5 8 14 14 10 23 26 32 32 34 37 38 34 30 29 27 26 27 35 36 35 32 30 32 28 37 37 34 32 31 30 28
6 6 9 5 10 4 2 5 3 2 2 2 6 6 6 2 5 9 15 20 19 23 27 29 30 30 31 31 27 26 26 32 36 36 34 35 35 35 38 39 36 34 33 34
4 9 15 16 5 8 2 4 4 4 3 3 3 4 6 4 8 5 7 15 15 20 12 11 11 10 11 17 28 30 28 24 20 21 31 36 38 39 38 38 36 37 36 36
1 8 11 13 9 7 4 5 5 4 4 1 2 3 7 2 4 6 9 16 22 25 28 22 13 7 3 4 11 22 31 30 25 22 24 24 33 39 39 38 40 40 40 39
3 4 3 2 6 4 10 6 6 4 2 2 2 3 5 1 2 4 4 14 24 28 27 24 20 15 11 6 4 8 13 17 22 26 25 25 25 25 31 35 38 41 43 42
5 4 3 5 8 4 3 4 2 4 3 4 2 1 7 6 4 1 2 14 23 28 28 25 22 18 12 9 8 5 5 9 15 18 20 22 23 26 29 29 31 34 40 43
4 1 1 1 4 6 2 4 4 4 2 2 3 5 4 3 3 9 7 16 23 26 26 22 18 17 14 12 10 9 9 9 10 13 15 17 18 21 23 26 29 34 34 35
4 3 1 2 3 2 3 3 2 6 3 2 3 6 6 3 1 5 15 21 24 25 25 23 20 16 18 20 15 16 15 14 14 16 17 18 19 22 23 23 25 29 34 35
2 5 3 2 4 8 3 7 3 3 2 3 4 4 3 2 3 7 9 19 23 26 26 24 20 18 19 20 20 18 21 23 20 20 20 21 22 23 22 24 27 29 31 33
4 4 0 3 1 4 2 1 4 4 3 3 1 4 5 7 6 3 6 17 19 26 27 26 23 17 17 22 22 21 19 19 22 22 21 21 23 26 28 26 26 28 29 30
2 4 3 1 1 2 3 5 4 4 3 1 1 5 3 6 4 11 12 17 19 22 24 24 22 18 19 18 15 17 15 13 14 15 17 20 22 23 24 22 23 26 27 28
4 2 3 1 1 1 3 4 4 5 3 5 4 4 3 3 7 12 10 17 18 23 22 23 20 18 15 14 16 16 15 13 11 12 15 18 19 18 16 14 17 19 19 21
6 3 4 5 3 3 3 4 5 5 3 3 5 6 6 6 9 15 21 15 16 17 20 19 13 9 10 11 11 11 15 18 19 20 22 19 15 11 9 8 10 15 19 21
3 3 1 4 2 3 4 4 8 6 5 5 3 6 8 9 12 18 20 9 13 13 14 14 12 9 10 9 11 14 15 16 14 13 16 11 7 6 7 9 12 16 20 21
3 1 2 3 2 6 4 7 8 9 7 9 9 18 18 23 18 14 4 8 10 10 13 11 10 10 12 11 13 15 16 15 13 11 6 6 5 7 10 11 14 16 19 20
3 3 2 3 4 3 4 7 11 6 5 8 7 11 8 9 8 7 6 6 8 9 11 8 7 8 10 11 11 11 10 10 10 4 1 2 3 6 6 9 12 14 17 20
4 4 2 2 4 2 4 1 6 12 4 11 9 11 12 9 10 8 5 6 8 8 8 6 5 6 7 7 8 8 7 7 6 3 4 4 4 6 9 11 15 20 23 21
2 3 1 1 2 6 0 2 5 5 1 9 12 12 17 8 7 2 3 6 6 5 4 3 3 4 4 5 6 6 5 4 1 3 7 7 6 10 12 17 20 19 18 19
5 5 3 0 1 2 2 2 2 1 2 2 7 9 5 3 3 1 3 4 4 2 1 1 1 1 4 5 5 5 3 3 4 6 8 10 13 14 16 18 18 17 17 17
2 1 3 1 2 6 6 6 2 2 4 8 3 8 6 4 3 2 0 2 2 0 1 1 1 2 5 3 4 4 6 9 11 12 14 15 16 18 19 19 17 15 12 12
5 4 2 3 3 6 4 1 2 2 8 10 10 7 5 4 3 3 2 2 3 2 4 3 2 4 4 6 6 8 14 15 13 13 15 18 18 17 16 15 15 14 12 11
3 5 3 6 5 4 2 7 11 16 17 13 9 8 5 6 7 7 6 4 4 5 7 7 6 7 8 7 9 13 15 14 15 17 18 18 17 16 15 13 12 10 9 6
3 5 3 1 3 8 15 15 14 16 9 9 9 7 6 8 9 9 9 8 8 9 10 11 12 12 16 18 20 19 20 19 17 17 17 16 15 14 12 10 8 6 5 3
4 4 4 4 7 11 6 11 11 8 8 8 6 5 5 9 11 9 11 11 11 13 16 17 18 18 19 18 18 17 16 15 14 15 15 14 12 10 8 7 6 5 5 6
6 7 4 5 8 4 9 13 16 15 12 7 5 4 4 10 11 12 12 12 12 15 19 19 19 20 19 17 17 16 13 11 11 12 12 10 8 6 5 5 5 4 5 7

GFSCGP_850_spd_063.txt.gz
Wind_Speed
17 10 14 18 10 4 8 7 4 3 2 3 4 5 9 16 16 16 22 24 26 28 25 25 25 25 25 26 29 28 32 32 30 31 32 34 35 36 35 31 28 27 26 26
3 12 8 9 8 4 12 9 5 1 2 2 2 7 12 11 10 17 20 23 22 23 24 26 28 29 28 26 25 28 28 30 36 36 34 34 31 33 35 36 32 30 28 28
5 6 7 10 17 12 4 10 4 4 2 2 3 5 3 1 4 4 6 5 6 8 13 15 18 22 25 28 28 26 28 27 29 35 37 37 35 33 34 31 30 33 33 32
7 6 14 5 7 5 7 1 5 6 3 2 3 3 2 2 10 10 14 17 17 18 17 14 9 2 7 14 24 30 31 27 26 23 34 40 40 40 38 35 31 33 34 36
2 15 16 12 5 4 2 5 3 3 4 1 1 2 3 0 5 4 7 15 18 18 19 20 18 15 8 3 5 14 25 30 27 24 22 26 35 38 38 38 35 35 36 36
5 4 4 2 17 12 10 6 6 4 2 0 1 2 2 2 3 2 2 10 16 19 18 16 16 14 12 10 8 3 6 14 23 25 24 26 27 28 28 30 33 36 38 37
3 4 4 6 10 3 3 3 2 2 1 2 1 2 5 2 2 4 2 9 15 17 18 17 15 13 11 9 6 4 2 2 9 15 21 23 25 28 28 28 28 29 31 34
3 4 2 2 3 6 2 3 3 4 3 2 1 5 2 3 6 9 3 7 13 17 18 16 14 12 11 10 9 8 7 5 5 6 8 12 17 22 25 25 26 28 29 29
4 4 3 5 2 2 2 2 2 6 2 1 2 4 3 2 2 1 4 8 13 15 16 16 13 11 10 12 13 13 13 14 14 13 13 13 13 14 15 17 20 22 24 26
2 6 3 1 3 10 2 6 2 2 3 3 2 3 4 5 4 1 3 9 11 14 17 17 16 13 9 11 13 13 14 15 18 20 20 18 16 15 15 16 17 19 23 26
4 4 1 1 1 6 2 2 4 3 1 3 1 3 5 9 7 2 5 10 10 16 18 19 18 13 12 12 12 10 12 12 12 14 17 18 17 17 18 20 22 24 25 27
1 5 4 2 1 2 2 3 3 3 3 1 1 4 1 5 5 2 10 13 10 14 18 19 17 13 10 10 11 12 11 9 8 6 7 9 12 15 18 21 24 25 26 27
4 2 4 1 1 2 2 4 4 4 2 4 3 3 1 2 5 16 10 14 11 12 16 16 13 11 10 10 10 11 11 12 12 13 12 11 11 14 18 18 18 18 17 15
6 3 4 4 2 3 2 4 4 4 2 4 5 5 3 4 6 14 20 7 9 12 14 13 11 10 8 8 9 10 12 13 11 10 11 13 16 17 17 10 8 8 10 12
3 3 2 1 2 3 4 4 7 5 5 5 2 5 6 7 7 12 15 7 9 10 11 8 9 7 7 7 9 12 12 12 13 11 10 12 13 10 7 7 6 8 11 14
3 2 2 3 1 4 3 4 7 8 3 7 1 13 13 20 14 8 1 6 5 7 8 6 4 5 7 9 11 11 11 14 15 12 11 9 7 5 3 4 4 5 8 11
3 4 2 2 2 1 4 9 11 5 4 8 7 9 6 5 3 1 3 2 3 5 5 4 3 4 6 8 8 10 12 14 15 13 9 8 8 8 6 2 4 5 10 14
4 4 2 1 2 2 3 1 7 12 4 11 6 9 10 10 7 5 3 1 3 3 2 2 1 3 5 7 8 10 11 12 13 10 8 8 8 8 7 9 12 14 17 18
1 3 2 1 2 5 1 2 5 5 1 9 13 13 14 10 4 3 1 1 0 1 1 0 2 4 5 6 8 9 9 9 8 7 7 8 8 9 11 12 14 17 16 17
4 5 3 1 1 2 2 0 2 2 3 3 9 6 4 1 2 1 3 1 1 1 2 2 4 3 3 5 6 6 5 6 7 8 9 12 13 14 15 15 15 16 16 17
1 1 3 2 2 5 5 4 3 1 3 3 2 7 5 3 3 3 4 3 3 4 4 4 4 2 3 6 7 6 10 13 14 15 16 16 16 17 18 18 16 14 13 11
5 4 3 2 0 5 4 1 1 1 6 12 11 7 5 5 6 6 6 5 4 4 5 5 4 3 6 9 7 14 17 19 19 19 19 19 18 16 15 13 14 14 13 11
3 5 3 6 5 4 3 4 8 13 16 11 7 7 5 6 8 8 7 4 4 5 6 7 6 8 9 10 13 16 20 18 20 19 17 16 15 15 15 13 12 11 9 7
3 3 2 1 1 7 11 11 8 8 9 9 8 6 5 7 9 10 9 6 6 8 10 10 11 13 16 17 17 19 21 18 16 15 15 15 13 13 12 10 9 8 7 6
4 6 4 4 7 8 5 4 7 8 13 11 9 6 5 7 10 10 10 8 9 11 15 15 17 19 20 19 18 18 17 16 15 16 15 13 11 10 8 7 6 5 5 5
7 6 4 5 7 5 9 10 15 14 17 12 10 6 5 7 10 11 12 11 12 16 19 19 19 19 19 19 18 16 15 13 13 13 12 10 8 7 6 5 5 6 7 8

GFSCGP_850_spd_066.txt.gz
Wind_Speed
24 11 9 17 24 12 12 17 10 14 6 12 16 12 15 17 17 17 19 19 18 17 16 19 22 26 26 29 31 31 29 28 25 28 31 34 34 34 35 35 32 29 28 27
11 17 21 15 17 10 12 16 14 3 9 7 6 9 11 14 19 18 18 18 18 15 15 17 22 23 26 27 28 29 30 32 31 27 34 35 37 40 39 38 38 36 33 31
13 2 9 12 17 11 14 15 13 6 7 3 2 8 11 5 2 3 1 2 2 3 4 6 14 21 25 27 29 30 30 29 31 32 28 30 32 34 37 37 36 36 38 38
5 1 13 15 14 13 8 6 11 11 10 4 3 3 4 5 7 7 8 7 5 5 6 6 5 1 8 16 24 29 32 32 34 33 29 27 34 37 40 38 36 36 36 37
4 11 12 2 8 13 4 7 10 6 4 1 5 4 7 8 9 9 8 7 7 6 7 9 10 11 8 4 3 11 21 29 32 31 32 27 28 28 33 36 36 36 37 37
5 5 8 3 4 8 10 9 10 6 2 3 5 4 8 8 9 8 5 6 6 7 7 7 10 10 9 8 6 4 3 11 22 29 29 28 24 24 24 28 32 37 39 39
4 4 4 8 7 10 6 10 4 3 3 1 1 4 4 8 4 8 6 5 5 6 7 7 7 6 6 6 5 4 3 1 6 13 23 28 28 25 23 25 23 25 28 32
3 4 1 4 2 7 14 2 3 5 6 5 3 5 4 2 6 7 2 1 3 5 7 8 8 7 6 7 7 6 5 5 6 6 9 14 21 25 26 27 25 24 24 29
4 3 4 2 1 3 5 3 2 5 2 2 4 3 2 7 10 5 2 3 3 5 7 8 8 8 8 9 10 11 11 11 11 12 13 12 13 14 15 17 18 19 21 22
5 6 4 7 8 9 1 8 3 1 5 4 5 4 6 12 10 6 4 2 2 3 6 8 8 8 7 8 9 9 9 11 13 13 14 16 16 16 16 17 19 20 22 24
5 3 4 3 1 5 4 2 2 1 2 2 4 3 7 17 13 9 5 1 0 2 5 7 7 6 5 4 4 4 6 7 7 8 10 12 15 16 16 17 18 20 21 24
1 5 4 2 3 2 1 2 3 3 4 1 1 3 6 15 10 2 5 2 1 0 4 5 5 4 2 2 4 5 5 6 8 6 5 4 5 7 9 12 15 18 21 24
5 4 5 2 2 2 5 4 3 4 2 4 2 4 3 7 7 8 7 4 1 1 3 4 4 4 5 5 5 6 7 7 6 5 6 6 6 7 8 10 14 18 19 20
3 3 0 3 3 4 4 8 8 3 3 4 4 2 8 8 5 7 4 2 2 1 2 3 4 5 4 4 5 6 8 8 7 5 3 4 5 7 9 12 14 12 12 11
1 3 2 3 2 2 3 5 10 6 3 4 2 4 6 3 7 6 5 1 1 1 2 2 3 4 2 3 4 6 7 8 7 4 4 6 8 7 6 6 6 8 8 9
2 3 2 2 2 5 5 7 10 12 11 11 8 14 10 9 4 4 1 1 2 1 2 2 0 2 1 3 4 6 7 7 8 6 8 7 5 6 5 5 4 4 3 3
1 4 1 0 2 3 5 9 12 8 8 11 9 7 3 7 5 5 4 4 3 1 1 0 2 1 1 2 3 5 5 7 8 9 7 8 8 8 8 7 6 5 4 5
5 4 1 0 2 2 3 2 3 11 5 12 8 10 11 11 10 6 5 5 3 1 2 3 3 2 3 3 4 4 4 6 8 8 8 9 9 10 10 10 11 11 12 13
1 2 2 2 2 4 2 3 4 4 2 11 13 13 14 10 2 5 5 4 4 4 4 5 5 5 4 3 3 3 4 6 7 9 9 11 11 14 14 16 17 16 14 15
4 5 1 1 2 2 2 2 2 2 2 2 9 7 6 1 5 1 9 5 5 4 5 6 6 5 4 3 2 3 5 7 9 11 13 14 16 16 17 17 17 15 13 14
3 1 4 3 3 3 2 2 2 3 5 1 4 7 6 4 3 4 7 7 5 5 7 6 6 6 4 4 5 6 10 13 16 17 18 18 17 17 17 16 14 13 12 11
6 5 3 3 3 4 5 3 3 3 1 6 7 5 5 6 6 7 8 7 6 6 8 8 7 6 7 6 9 13 15 17 19 19 20 19 18 17 14 13 14 13 12 10
4 3 1 5 2 2 3 1 3 4 7 6 4 5 5 7 9 10 10 8 7 8 9 9 8 9 8 12 14 16 20 20 21 19 18 16 15 15 14 13 12 10 9 8
4 4 3 2 3 9 8 8 6 4 2 5 7 6 5 6 9 11 11 8 8 10 11 10 11 11 15 16 17 20 22 20 18 16 15 16 14 13 12 10 9 7 6 4
0 7 5 5 9 11 6 5 2 6 7 11 12 8 6 6 10 12 12 11 9 11 12 13 16 18 20 21 20 19 18 16 15 16 15 14 12 10 9 8 7 5 3 3
7 7 5 5 5 4 4 4 9 12 11 13 15 10 7 6 9 13 13 12 11 14 17 19 20 21 21 19 18 16 15 14 14 14 13 11 9 8 7 5 4 2 1 4

GFSCGP_850_spd_069.txt.gz
Wind_Speed
19 15 18 28 28 20 17 17 21 15 8 13 23 18 17 13 13 14 16 17 17 17 16 16 17 18 18 19 21 21 21 21 20 20 27 26 30 28 27 26 21 22 23 23
13 19 11 14 22 21 13 19 21 8 8 8 13 20 17 13 18 20 19 20 19 18 17 15 16 16 18 19 20 23 23 22 23 23 25 30 27 30 33 34 34 33 30 30
19 6 17 11 16 17 21 14 16 11 12 9 6 13 14 15 18 16 11 15 15 12 13 14 14 14 18 20 20 20 21 23 25 25 24 26 23 20 27 33 37 40 38 35
15 5 18 14 10 16 15 15 12 12 14 6 13 3 16 15 11 10 10 8 6 5 5 3 2 2 9 15 22 27 27 26 27 28 28 26 26 27 27 28 32 35 38 38
3 12 13 17 7 14 4 4 11 13 15 6 12 5 10 10 11 11 10 8 6 5 4 4 4 4 3 0 5 12 20 26 28 28 30 25 27 26 24 24 24 27 29 33
7 11 4 2 4 9 7 12 8 2 3 5 11 10 10 11 12 12 10 9 7 6 5 5 5 5 5 5 4 3 1 7 16 24 28 28 28 22 23 22 23 22 25 28
5 4 4 7 6 8 10 10 5 4 4 3 6 6 4 8 12 11 11 10 6 5 5 4 3 2 3 3 4 3 3 3 3 7 14 21 25 24 22 21 22 21 24 28
4 4 1 1 1 4 9 2 2 5 9 9 5 7 4 11 10 11 8 6 5 4 3 3 3 3 3 5 4 4 3 4 4 5 6 8 15 21 24 20 20 19 20 20
5 3 2 4 2 4 4 3 1 2 3 4 8 4 6 9 11 11 9 7 5 3 2 3 4 4 3 4 5 6 6 7 8 8 9 8 7 10 12 15 18 18 20 21
5 5 2 3 4 3 1 6 2 2 5 5 6 6 5 15 15 11 9 9 6 3 1 3 4 4 3 3 5 5 6 7 8 9 11 12 14 14 14 14 14 16 15 17
7 4 3 4 4 4 2 3 2 3 3 3 5 3 9 18 15 12 8 5 4 2 1 3 3 2 3 3 4 5 6 7 8 7 7 7 8 10 12 13 14 15 16 18
3 5 4 2 2 4 4 4 6 3 3 1 3 4 9 16 15 12 6 4 5 3 1 1 1 2 3 3 3 3 4 5 6 6 5 3 2 3 5 7 9 11 13 16
5 4 5 2 2 3 5 7 4 1 2 3 2 5 7 15 11 3 2 3 6 5 2 1 1 1 2 1 2 3 4 5 5 4 4 5 4 4 4 5 7 10 12 14
3 2 2 1 4 5 3 8 7 3 2 2 3 8 11 12 10 6 2 4 5 5 4 4 3 2 1 1 2 3 4 4 4 4 3 3 3 5 6 7 8 10 12 12
2 2 3 3 3 0 3 5 10 5 5 2 5 2 11 12 9 5 3 5 6 5 5 5 5 3 2 1 2 3 3 4 4 4 3 4 4 3 3 3 4 6 6 6
0 2 2 1 1 3 5 6 8 12 14 12 8 7 4 8 5 4 3 5 6 7 7 6 5 4 2 0 1 0 2 3 4 3 2 2 1 1 3 4 3 4 5 6
2 4 2 0 2 4 7 12 12 9 8 13 10 11 6 4 2 4 5 7 7 9 7 7 7 6 5 3 3 3 2 1 3 3 2 2 4 7 8 7 8 9 9 8
3 3 1 2 2 3 3 1 4 12 6 11 8 6 5 4 6 6 6 7 8 8 8 7 7 6 6 4 4 3 2 2 3 4 5 5 7 8 10 10 13 14 13 12
3 3 2 3 4 5 4 4 4 7 3 14 12 9 5 3 2 7 6 6 8 8 6 6 6 7 7 7 4 3 3 4 5 5 7 8 9 13 13 14 16 15 13 14
1 1 3 1 2 2 4 3 3 2 3 5 4 2 2 1 4 3 8 7 6 6 6 7 8 8 7 6 5 5 5 6 8 8 11 13 15 16 16 17 18 16 14 13
4 3 6 5 3 4 6 4 1 3 3 6 4 4 4 4 2 5 6 6 5 7 7 9 9 7 7 6 7 7 9 11 12 14 16 17 18 18 17 16 15 12 10 10
6 4 3 4 4 4 7 4 2 3 3 6 6 4 4 2 4 5 7 7 7 7 8 9 8 8 8 8 9 11 13 15 16 18 18 18 18 16 14 12 12 11 10 8
4 3 1 5 2 4 6 2 4 3 1 3 4 4 3 4 7 7 9 9 9 8 8 9 10 10 9 9 12 15 18 18 19 19 17 16 15 15 13 11 10 9 7 4
5 4 4 2 4 7 6 3 3 0 2 1 5 6 5 4 6 9 10 11 9 9 10 11 10 11 12 15 16 18 21 21 18 16 15 15 13 12 10 9 8 5 4 2
3 7 7 7 9 6 10 7 3 2 4 6 9 10 7 5 7 10 11 11 10 10 11 13 13 13 17 19 20 22 22 19 16 15 15 13 12 10 9 8 6 3 1 1
9 8 7 3 4 4 3 5 3 6 7 8 10 11 10 8 7 10 12 12 11 12 13 14 15 17 20 22 22 22 20 17 16 15 13 12 10 9 7 5 4 1 1 3

GFSCGP_850_spd_072.txt.gz
Wind_Speed
14 6 14 26 22 5 10 11 14 15 12 21 19 14 16 12 8 10 16 12 15 17 16 17 19 16 17 20 20 20 18 21 18 20 22 22 26 25 24 23 22 22 22 23
7 10 10 11 14 15 15 8 14 12 12 9 12 19 16 15 14 17 17 16 15 14 15 14 17 19 19 18 20 23 24 21 23 25 23 26 26 25 27 29 29 27 26 26
12 9 15 12 14 15 12 10 12 9 7 3 2 7 16 15 18 20 21 19 18 12 12 8 7 10 16 20 19 19 21 27 24 25 25 25 25 27 26 27 30 32 32 31
7 14 19 13 13 11 13 11 16 10 11 5 8 4 13 15 9 9 12 8 10 11 12 8 10 13 17 21 26 28 27 26 26 27 27 27 26 28 31 31 30 30 30 31
7 17 19 12 6 7 4 11 10 7 8 7 7 1 5 13 11 8 10 14 9 8 9 5 5 3 3 3 8 15 24 29 29 31 32 32 32 22 19 23 24 25 29 30
8 13 4 3 13 8 6 5 5 7 3 2 9 7 4 6 11 8 11 14 12 10 9 7 8 4 3 4 4 4 1 4 13 23 28 29 31 32 29 22 22 23 23 21
6 4 3 5 8 8 3 10 3 3 1 4 11 8 8 9 11 9 11 17 13 11 11 9 7 3 2 2 3 2 3 0 1 3 8 17 22 25 26 21 19 19 21 22
4 7 1 1 2 5 7 1 1 4 4 4 5 5 4 7 16 20 19 18 13 12 10 7 5 4 1 2 3 3 2 4 5 5 5 5 10 16 21 25 23 19 17 16
5 4 3 0 1 5 5 5 4 4 5 4 5 3 4 2 8 13 15 13 13 11 8 6 4 3 2 4 6 5 5 7 8 8 8 9 10 11 13 18 23 24 24 24
4 6 2 4 2 2 3 5 4 2 2 3 5 7 4 11 11 10 9 15 14 10 8 4 3 2 3 4 3 5 5 6 7 8 9 10 12 13 12 12 15 17 19 20
6 2 4 6 4 5 3 2 3 1 1 1 3 2 5 16 12 10 10 16 15 10 7 5 3 2 1 2 2 3 3 4 5 5 5 5 5 7 10 12 12 14 15 15
5 4 3 3 3 1 2 5 5 3 2 1 1 3 7 9 9 12 13 11 11 10 7 5 5 3 1 2 2 2 2 3 3 2 6 4 4 6 8 9 10 12 13 12
3 3 4 3 2 2 3 3 2 5 2 2 1 2 7 10 9 10 10 12 12 9 6 5 4 4 4 2 2 2 2 3 3 3 4 5 6 5 5 5 5 6 7 9
5 4 3 3 3 4 2 4 5 4 2 2 4 5 7 12 9 8 15 12 13 10 8 8 7 6 5 4 3 3 3 3 2 2 2 2 3 4 5 5 5 6 8 10
4 3 3 4 4 3 4 3 7 4 5 3 5 2 8 10 8 11 12 13 13 12 9 10 10 8 6 4 3 3 2 1 1 2 2 2 2 2 2 1 1 2 1 1
2 2 3 2 0 2 3 5 6 7 7 7 5 5 4 14 12 7 8 13 11 11 12 12 13 10 8 7 4 3 2 2 1 1 1 2 1 1 2 1 0 1 3 6
2 3 1 1 1 4 5 10 9 6 6 9 7 6 1 4 5 7 6 10 11 13 13 13 11 12 12 8 5 4 4 3 2 1 1 1 2 3 4 3 5 8 11 12
2 2 1 1 1 2 3 4 2 8 6 7 7 4 5 3 1 2 8 9 12 13 12 12 12 11 10 9 8 6 6 4 3 3 4 4 4 5 6 10 13 15 16 16
3 2 2 1 3 1 1 2 3 5 5 8 6 3 7 4 2 5 8 9 11 11 10 11 10 10 11 11 9 8 6 5 5 5 4 4 6 9 13 15 17 17 16 16
1 3 1 2 1 2 3 3 1 2 2 3 9 6 4 3 1 2 10 9 10 9 11 12 12 10 11 12 9 8 8 8 7 7 8 9 11 13 16 17 18 17 15 14
3 3 3 4 2 4 5 6 2 2 3 7 3 2 4 3 2 7 8 8 7 10 10 10 9 11 11 10 9 9 9 9 9 11 13 14 15 16 17 17 15 12 12 11
5 4 4 4 2 5 6 3 1 6 7 6 5 3 3 2 3 5 6 8 9 9 8 9 11 11 9 10 10 10 10 11 13 15 16 18 16 15 15 13 13 11 9 8
2 2 2 5 3 2 9 8 6 3 3 2 5 2 2 2 3 5 7 9 10 8 7 9 10 10 10 10 10 12 13 15 17 18 18 16 15 13 13 11 10 8 6 5
5 2 1 3 2 7 8 6 1 3 5 4 3 2 3 1 4 5 8 11 11 10 10 9 11 12 10 10 13 14 16 17 19 19 17 16 14 13 11 9 7 5 4 2
1 4 5 4 5 3 6 7 11 5 3 2 4 5 3 4 7 6 8 11 11 10 10 11 13 11 10 13 15 18 20 20 18 16 16 15 13 12 11 9 6 3 2 1
6 4 3 2 3 6 10 10 5 1 2 4 6 7 7 6 6 9 9 10 11 10 11 13 15 11 14 15 19 22 22 20 18 17 16 14 13 11 9 7 5 4 2 3

GFSCGP_850_spd_075.txt.gz
Wind_Speed
7 8 13 27 15 5 5 9 6 10 8 6 8 7 12 14 12 20 22 23 19 26 21 18 18 16 18 20 13 12 15 16 21 20 19 28 32 27 24 24 23 21 21 20
3 14 7 7 9 5 7 10 10 4 9 12 9 14 10 14 9 16 17 17 17 7 10 14 15 16 20 22 25 23 21 16 19 21 21 21 22 24 26 25 25 25 26 26
5 3 11 11 13 11 4 5 3 1 3 3 6 7 8 11 18 22 21 22 18 11 9 8 12 16 18 20 21 23 26 27 21 19 22 23 24 24 25 26 29 33 30 29
7 8 17 10 13 11 7 6 6 3 7 5 4 4 9 14 18 12 25 28 21 18 14 12 14 14 15 17 21 25 27 30 31 27 24 26 30 30 30 29 26 25 27 31
6 17 17 9 9 6 4 4 3 6 9 3 4 1 7 8 17 20 15 22 12 12 12 11 11 12 13 14 18 24 27 28 28 30 32 29 28 24 21 20 21 22 22 22
6 11 4 2 5 7 5 6 8 3 2 3 7 6 5 6 20 6 12 16 18 14 12 8 6 6 6 5 6 7 10 20 30 32 29 32 31 27 24 21 15 21 21 20
11 2 3 8 8 5 6 4 2 3 4 5 8 5 10 6 5 9 10 21 17 14 10 11 11 6 6 6 6 6 6 6 8 12 21 30 33 33 32 31 22 19 19 19
4 6 4 2 3 4 4 4 2 4 4 4 4 6 5 7 13 23 27 24 19 17 16 15 11 8 7 6 6 6 7 6 6 6 7 8 11 16 20 23 26 22 21 22
5 4 3 6 2 3 6 4 6 2 0 3 4 2 6 7 7 17 23 25 20 20 16 13 12 11 9 7 6 6 7 7 8 8 9 10 11 11 12 16 21 24 25 25
4 7 3 4 3 3 1 6 3 2 1 4 4 3 5 6 7 10 12 20 22 19 15 13 11 10 8 6 6 6 6 7 7 7 8 11 13 15 15 14 15 18 22 24
7 5 5 5 5 8 4 3 2 2 3 3 2 5 5 14 12 11 10 21 22 17 15 12 10 8 6 5 5 5 5 5 6 7 8 8 10 11 12 14 15 15 16 17
3 5 4 2 5 10 5 5 4 4 5 3 2 4 3 8 8 15 17 20 20 19 14 11 9 7 6 4 3 4 4 4 5 7 8 8 9 9 9 10 11 12 13 14
3 3 4 3 2 3 4 8 5 2 2 3 4 4 2 8 8 16 19 22 20 17 13 12 10 9 6 4 4 4 4 4 5 6 7 8 9 8 7 7 7 7 6 8
2 3 5 6 4 5 4 5 5 4 3 3 4 4 6 10 9 10 15 17 17 15 14 12 11 9 8 7 6 5 5 6 6 6 6 6 6 7 8 7 8 8 8 8
4 3 2 2 4 4 5 4 7 4 4 5 1 3 11 12 10 16 19 20 20 17 15 14 13 12 9 9 7 6 6 6 5 4 5 5 5 5 5 4 4 4 4 3
3 2 3 2 3 3 3 6 7 5 4 4 4 4 7 17 21 12 20 22 22 19 16 15 15 14 12 10 8 8 7 6 5 5 4 4 4 5 5 5 4 4 3 3
2 4 3 2 2 0 5 9 9 5 5 6 5 7 2 6 10 15 20 22 22 19 18 17 16 16 15 12 11 9 8 7 6 6 5 4 4 5 5 5 5 7 7 7
2 3 2 2 2 1 5 1 8 9 7 8 4 4 4 7 8 8 11 16 16 15 16 16 16 16 16 14 13 11 9 8 7 7 5 4 3 5 7 8 10 12 12 13
2 2 1 3 2 4 2 3 5 7 6 7 7 5 4 7 5 3 8 11 12 13 15 16 15 14 15 16 15 13 10 9 8 7 5 5 7 8 11 13 14 15 15 14
3 3 3 2 1 3 2 2 1 3 3 5 11 6 6 6 2 4 9 9 11 13 15 16 15 13 14 15 14 12 12 10 8 8 7 7 9 11 14 15 16 17 14 12
1 1 3 2 2 5 1 3 4 3 3 4 8 8 10 4 6 3 11 10 12 14 13 13 13 14 15 15 14 13 12 10 9 9 9 11 13 16 17 17 16 13 11 10
5 4 3 3 3 5 5 3 2 4 8 7 6 5 6 6 6 7 9 10 13 12 11 11 13 14 13 13 13 13 13 12 11 12 13 15 17 18 16 14 14 12 10 7
2 5 4 6 4 4 9 4 8 11 8 6 7 5 5 6 6 7 9 12 12 11 11 11 12 14 15 14 14 14 13 13 15 16 17 18 17 16 14 13 12 10 8 5
2 4 1 3 1 5 12 7 5 4 6 7 6 5 4 3 3 5 8 12 14 13 11 10 13 15 15 14 14 14 14 17 18 18 19 18 17 16 14 13 10 8 5 3
4 3 3 3 5 5 10 11 10 7 6 5 4 4 5 5 6 4 6 11 14 12 10 11 13 15 14 12 14 17 18 19 20 20 19 18 16 14 13 11 8 7 5 3
5 5 3 4 2 5 3 14 9 7 3 2 4 5 6 7 9 8 8 9 12 13 12 12 13 13 12 13 16 19 20 20 21 21 20 18 16 14 13 11 9 7 6 5

GFSCGP_850_spd_078.txt.gz
Wind_Speed
4 6 7 20 9 3 7 7 8 3 5 3 5 4 9 17 11 14 19 20 20 17 18 15 17 19 18 17 15 16 17 19 21 24 33 34 31 29 26 24 23 22 21 21
1 10 8 13 11 4 12 11 5 3 10 4 8 13 8 10 10 18 19 22 20 19 17 25 23 25 25 21 21 19 19 18 19 21 23 23 33 33 30 28 26 25 24 24
5 3 7 9 14 9 2 9 6 3 3 4 3 7 9 9 19 22 21 21 23 22 14 13 20 22 24 25 24 22 20 20 21 21 22 22 22 25 29 33 30 28 27 27
5 4 4 8 18 12 4 5 4 2 2 4 5 5 9 15 14 12 23 30 23 21 18 15 14 17 20 22 25 26 25 24 23 23 23 25 27 28 27 27 26 27 27 29
5 9 8 9 13 9 4 6 7 3 2 1 1 2 5 3 13 20 25 28 31 23 21 19 16 16 15 16 19 22 25 27 29 29 29 28 26 28 29 28 28 27 25 24
5 3 6 6 4 6 8 8 7 3 2 4 8 8 5 7 12 10 20 26 30 21 19 15 12 12 15 18 19 21 26 29 32 33 31 29 28 28 27 28 30 30 29 25
3 4 2 5 10 4 5 7 3 3 4 5 6 7 13 7 7 9 14 24 24 25 21 16 12 11 11 11 11 11 11 12 15 23 30 31 29 28 28 28 27 25 26 24
4 4 1 3 4 5 4 5 4 5 4 3 6 8 7 4 17 13 23 28 27 23 18 15 14 12 10 10 9 8 8 8 8 9 11 13 18 24 29 31 30 28 26 23
4 3 1 6 1 2 4 3 2 4 0 3 5 6 8 3 2 12 20 26 26 23 21 19 15 12 11 9 8 8 9 9 10 10 11 11 12 12 13 15 17 18 20 22
4 5 4 3 3 8 4 9 3 2 3 4 4 4 5 3 7 9 12 20 23 23 21 17 15 13 10 9 8 8 9 10 10 11 11 13 14 15 14 13 13 14 16 19
6 3 5 4 3 6 4 4 2 2 3 4 1 5 4 9 11 13 9 25 27 23 20 16 14 11 10 9 7 6 8 8 9 10 10 10 11 12 13 14 15 15 16 16
3 4 5 2 4 4 4 5 6 4 4 2 4 5 4 7 8 13 18 25 24 21 18 16 14 12 10 8 7 6 7 7 8 8 8 9 10 11 11 11 12 13 14 14
4 2 4 2 2 4 4 6 7 3 3 5 5 5 4 4 8 17 21 24 23 21 18 16 14 13 10 9 7 6 6 7 7 8 9 10 10 10 9 8 7 7 8 8
4 3 5 6 4 5 6 8 9 5 3 2 5 4 1 4 8 9 19 24 23 21 19 17 15 14 11 9 8 7 7 7 8 9 9 9 9 9 9 9 8 8 8 8
3 3 3 2 5 4 5 7 10 8 6 5 3 7 7 10 9 17 23 24 23 21 19 19 18 15 13 11 10 9 8 8 7 8 8 8 8 8 8 8 8 8 8 7
3 2 2 4 1 1 2 6 8 6 5 3 4 6 6 11 12 17 22 23 24 24 22 19 17 16 15 13 12 11 10 9 8 8 7 7 7 7 8 7 7 6 6 5
2 4 3 3 1 1 5 10 9 5 5 7 6 7 2 11 10 18 20 24 26 25 23 21 19 17 16 15 13 12 11 10 9 8 7 7 7 7 7 6 6 7 7 7
4 4 2 2 2 2 5 1 7 9 6 8 3 4 4 9 16 19 18 24 26 23 22 21 19 18 17 16 15 13 12 11 10 9 8 8 7 7 7 8 9 9 10 11
3 3 2 3 3 5 3 3 4 6 7 8 8 5 2 11 11 4 11 16 19 19 19 18 17 17 16 16 15 14 14 12 10 9 9 8 7 8 9 11 12 13 13 14
5 4 3 2 2 4 2 1 2 4 4 4 11 7 6 8 3 4 12 14 14 15 16 16 16 16 15 15 15 14 14 12 11 10 9 8 8 10 12 13 15 15 14 13
2 1 4 2 1 6 4 2 5 1 4 1 10 15 13 5 6 4 7 10 11 12 13 14 14 14 14 15 15 15 15 13 11 11 10 9 10 12 14 16 16 15 13 12
5 5 3 3 3 5 4 3 3 3 3 4 8 8 11 7 6 6 8 10 11 12 13 13 14 14 15 15 15 16 15 13 11 11 11 12 14 16 18 17 15 14 12 10
2 5 4 6 5 5 9 3 5 8 6 4 4 4 5 7 7 7 9 11 12 12 13 13 13 14 15 16 16 16 15 15 14 14 14 16 18 18 16 15 14 13 11 8
2 3 2 1 2 5 9 6 6 5 4 4 4 5 4 5 5 5 7 10 13 14 14 12 13 15 16 17 16 17 16 15 15 17 18 19 20 19 17 16 14 11 8 6
4 4 3 3 5 2 5 9 7 5 6 6 4 2 3 5 6 7 7 9 12 13 14 14 13 14 16 16 17 18 18 18 19 19 20 21 20 18 17 15 12 9 8 6
5 5 4 4 4 4 4 11 9 7 6 4 3 3 4 7 9 9 10 9 10 13 14 14 13 13 15 16 16 18 20 20 21 21 23 22 21 19 17 14 12 10 8 7

GFSCGP_850_spd_081.txt.gz
Wind_Speed
5 6 8 10 8 5 11 8 5 4 2 4 4 2 6 8 20 21 25 29 31 22 17 16 17 20 20 18 18 19 22 23 30 25 24 27 28 26 24 23 20 19 19 19
5 13 9 13 9 6 14 10 4 2 2 4 4 7 7 8 9 20 24 33 40 34 25 22 19 20 22 21 19 20 21 22 22 25 26 31 30 30 29 28 26 23 22 22
7 3 8 10 11 7 2 16 6 4 3 2 3 5 7 11 16 19 21 23 24 27 27 27 23 23 22 25 23 22 22 22 22 22 24 26 26 28 32 34 33 30 25 24
2 3 8 6 8 4 4 8 7 3 4 4 6 4 6 11 14 8 24 29 28 20 20 18 17 18 22 26 27 24 21 23 24 24 25 26 29 28 27 26 28 30 30 28
1 6 7 2 8 5 3 6 7 4 4 2 0 1 6 4 9 20 23 24 27 29 21 20 16 17 18 19 21 23 23 23 24 24 25 26 27 28 28 28 28 26 27 28
1 8 3 5 3 6 5 10 8 5 3 2 6 6 5 6 9 4 15 28 32 30 24 22 19 17 16 17 17 18 20 22 24 25 25 27 29 29 28 28 30 30 29 28
2 4 4 0 3 4 6 4 3 3 4 4 3 6 12 5 6 5 7 17 26 30 28 25 22 19 17 17 17 19 20 21 23 26 28 29 27 26 28 27 27 27 28 28
3 2 4 2 4 7 5 7 4 6 4 3 2 6 6 7 12 19 21 21 22 28 30 26 20 17 15 13 13 14 14 14 14 13 13 15 18 23 26 28 28 27 28 28
4 3 1 5 3 2 4 4 5 5 3 3 4 7 8 4 7 6 9 15 23 30 28 25 21 17 14 12 11 10 10 10 10 9 9 10 9 9 11 13 15 17 19 20
3 4 1 6 0 7 3 9 3 2 2 3 4 5 6 5 9 4 7 18 29 28 26 23 19 16 14 12 10 10 10 10 10 10 10 11 12 13 13 12 12 12 13 15
2 2 2 5 3 6 3 2 2 3 3 4 1 5 6 6 8 9 8 20 28 26 25 22 18 15 12 10 9 9 8 8 9 9 9 10 11 12 13 14 15 15 15 15
6 4 3 2 4 6 1 5 5 4 4 2 3 6 2 7 7 11 12 25 27 26 24 20 17 14 12 10 9 7 6 6 7 7 8 9 10 11 12 13 13 14 15 15
6 2 4 2 2 1 4 4 3 4 3 5 5 5 2 3 5 16 22 26 27 24 22 19 17 15 12 11 9 7 6 6 7 7 8 9 10 11 11 11 11 11 11 12
5 3 4 6 3 6 5 7 12 8 4 3 5 7 7 3 5 10 20 27 27 24 22 19 17 15 13 11 9 8 7 7 8 8 9 9 10 9 10 10 10 10 9 10
3 4 4 3 4 4 4 8 15 14 13 8 4 6 8 7 8 15 24 24 23 22 20 20 18 16 15 14 12 10 9 8 8 8 8 8 8 8 9 9 10 10 10 10
1 2 2 3 1 2 2 6 12 17 12 9 6 7 6 7 11 13 22 25 26 25 23 20 18 17 16 14 12 12 10 9 9 9 8 7 7 8 9 9 9 8 8 7
2 4 3 3 1 1 5 10 11 8 6 12 10 11 3 3 7 18 22 26 28 26 23 22 20 18 17 15 14 12 11 11 10 9 8 8 8 9 8 8 8 8 8 7
4 3 2 2 1 1 5 2 7 12 6 9 4 5 5 8 17 22 24 25 24 23 22 21 19 18 17 17 16 15 13 12 11 10 9 9 9 8 8 8 8 8 8 8
3 4 2 3 3 5 2 2 4 6 7 11 12 7 3 3 11 8 16 16 16 21 19 19 18 17 17 18 16 15 14 13 12 11 9 9 9 9 9 9 10 10 11 12
4 5 3 1 2 4 2 2 5 4 4 2 10 8 6 6 4 3 12 12 11 14 16 16 17 18 18 17 16 15 14 14 13 12 9 9 9 9 10 11 12 13 13 13
3 1 4 2 1 6 5 3 5 2 4 2 8 14 12 4 4 4 7 11 13 13 13 14 15 16 15 16 16 16 15 14 12 12 10 10 9 9 11 13 14 15 14 13
5 5 3 2 2 6 3 1 4 4 1 2 3 8 13 9 4 4 5 6 7 8 11 12 13 14 15 15 15 15 15 13 13 12 11 11 11 12 15 16 17 16 14 12
2 5 4 6 5 4 6 3 5 3 3 3 5 4 5 7 5 5 5 7 8 9 10 11 12 13 14 15 15 16 15 15 14 13 12 13 13 15 17 18 17 16 14 11
1 2 2 1 2 4 5 5 2 2 1 2 3 6 4 2 2 2 4 7 9 11 12 12 13 14 14 15 16 16 16 15 15 15 15 15 16 19 19 18 17 14 12 10
3 3 2 3 5 5 5 9 6 4 4 5 5 4 4 6 7 8 10 8 8 10 12 13 13 12 13 15 16 17 17 17 17 16 17 18 20 21 19 17 15 13 11 9
5 5 4 4 4 3 5 9 8 7 6 5 3 2 2 3 6 8 9 10 10 10 11 13 13 13 13 15 16 17 18 19 19 19 20 21 23 21 20 18 17 15 13 11

GFSCGP_850_spd_084.txt.gz
Wind_Speed
7 7 16 12 8 3 11 7 6 4 4 5 4 5 4 11 17 19 21 10 29 30 19 7 16 18 17 17 17 18 22 24 24 25 24 26 28 25 24 22 19 17 17 17
4 13 11 6 11 5 16 13 5 2 3 3 6 7 8 8 15 24 28 34 33 32 35 21 21 22 24 21 19 19 20 21 24 25 25 22 22 25 26 24 22 22 21 20
5 1 12 5 11 11 11 19 6 6 4 3 5 5 7 4 11 23 29 34 38 31 31 28 27 23 22 26 24 22 21 21 20 21 21 24 23 25 27 28 28 27 25 23
2 3 7 6 4 9 7 9 8 9 7 4 2 5 6 8 10 9 27 30 37 40 41 37 31 30 26 26 26 25 24 23 22 22 23 24 25 27 27 24 25 27 28 27
1 4 6 1 4 8 4 11 7 5 5 5 1 1 6 3 11 21 19 21 27 30 25 21 23 22 22 25 28 27 25 25 25 26 26 26 27 26 27 27 26 25 24 25
3 4 3 6 10 0 5 12 9 5 3 2 6 6 5 5 9 5 14 29 32 31 28 25 21 20 19 19 20 22 23 23 23 24 25 26 26 26 27 27 28 28 28 28
2 4 2 5 3 3 2 7 4 3 3 4 3 5 9 4 6 7 9 18 23 30 33 32 28 23 20 20 18 16 16 18 19 21 23 25 26 27 28 27 27 27 27 27
5 5 6 4 3 1 4 4 4 6 5 3 3 6 6 7 11 19 21 18 16 16 27 32 32 28 22 19 18 18 18 18 19 20 20 20 21 22 24 26 25 23 22 23
4 3 4 2 3 2 3 2 4 6 3 3 4 5 9 4 9 11 12 14 22 21 24 32 32 28 24 20 17 15 15 14 13 12 12 11 10 9 11 14 17 19 21 22
1 4 4 2 5 5 6 8 3 1 3 2 3 3 5 5 6 4 6 11 12 15 23 30 28 26 22 17 15 14 12 11 11 10 10 10 11 11 11 11 11 11 12 12
4 2 4 7 3 4 4 3 4 3 3 4 0 4 6 5 5 9 6 10 13 20 27 28 25 21 18 16 14 12 10 9 8 9 9 10 10 11 12 13 13 14 14 14
6 3 3 2 2 6 1 4 4 4 3 3 3 5 2 5 7 8 9 11 17 22 24 23 22 21 19 17 14 10 9 8 7 7 8 9 10 11 13 13 13 14 15 15
6 2 4 4 2 2 2 3 4 5 3 6 4 4 2 4 6 2 9 15 23 25 24 22 20 18 16 13 11 9 8 7 6 6 7 9 10 11 12 12 12 13 13 14
4 2 3 4 3 5 5 5 6 6 3 4 6 6 12 9 5 4 8 18 22 24 24 21 19 17 15 13 11 9 9 7 6 6 7 8 10 11 11 11 11 11 10 10
3 3 2 2 1 2 2 5 10 9 8 8 2 9 11 8 7 9 14 20 23 23 23 21 19 17 15 13 11 10 9 8 7 7 7 8 9 9 9 10 10 10 11 11
2 1 3 1 3 2 3 7 10 13 10 7 11 12 6 12 6 6 15 21 25 25 24 22 19 17 17 15 12 11 11 10 9 8 8 8 9 9 9 10 10 10 9 10
2 4 2 2 0 0 5 7 12 7 5 12 9 14 5 2 5 13 18 24 27 26 24 22 21 19 17 16 14 13 12 12 11 10 9 10 10 11 11 10 10 11 10 10
3 3 2 2 1 1 4 1 5 10 4 11 8 4 5 6 9 14 19 25 26 25 23 22 20 18 17 17 16 15 14 13 12 12 11 11 11 11 10 9 9 9 10 9
2 3 3 2 1 6 2 1 3 5 5 11 14 14 6 4 3 9 17 21 21 19 19 19 18 17 17 18 17 16 15 14 13 13 13 12 11 11 10 10 10 10 10 10
4 4 4 1 2 3 2 3 3 3 4 2 7 9 7 6 2 4 13 17 15 14 15 16 17 18 18 18 18 17 16 15 14 13 12 12 11 11 10 10 11 12 12 13
2 1 4 3 2 6 5 3 5 3 4 7 6 9 9 5 6 1 8 10 10 10 10 12 14 15 15 16 16 17 16 15 13 14 13 13 12 10 10 11 13 15 15 15
5 4 3 3 1 6 3 2 3 4 3 4 5 2 11 8 3 1 3 3 4 5 7 8 10 12 14 14 14 15 16 14 14 14 14 14 12 12 12 14 16 17 17 16
1 4 4 6 5 5 4 5 4 4 0 1 4 4 5 3 2 1 1 2 3 5 6 8 9 11 12 12 14 15 14 15 14 15 14 13 13 12 13 16 18 20 18 16
2 3 2 1 2 4 7 7 5 3 2 1 3 6 7 7 5 3 3 4 4 5 7 8 10 10 11 12 14 14 14 15 15 16 15 14 14 14 16 18 19 17 17 15
3 2 2 3 6 7 10 8 6 4 3 3 4 4 3 1 2 4 5 9 11 8 8 10 10 10 10 12 14 14 15 16 17 17 16 16 15 16 18 20 18 17 14 12
5 4 3 4 3 3 5 4 7 5 5 4 2 2 1 1 3 5 6 8 9 10 9 11 12 12 11 12 13 15 16 17 18 19 19 18 18 18 21 20 20 18 17 15

GFSCGP_850_spd_087.txt.gz
Wind_Speed
2 1 14 15 11 12 13 6 12 6 4 7 8 6 7 6 11 14 15 19 24 32 19 9 4 11 14 18 20 18 17 18 20 23 24 24 24 22 21 19 16 15 15 15
1 9 12 11 13 5 14 8 4 3 3 5 6 10 8 7 12 19 18 17 22 25 19 13 8 11 14 13 12 11 17 18 17 24 22 21 21 23 23 21 20 20 20 19
1 5 17 12 10 4 8 12 5 7 4 2 6 6 7 5 10 20 22 22 23 29 22 15 13 13 14 14 18 21 20 22 23 24 23 22 22 23 23 23 23 24 22 20
1 7 17 8 9 8 7 12 8 13 10 6 1 4 5 8 9 9 23 24 27 26 31 29 25 22 18 20 19 24 23 22 22 22 21 22 21 21 20 19 18 19 20 22
1 2 12 10 7 7 5 15 7 4 5 3 1 2 4 1 13 13 15 26 35 32 32 31 30 25 28 25 25 24 25 25 24 23 22 22 22 21 21 20 21 21 21 21
1 4 2 3 5 7 8 11 10 4 3 2 5 5 4 4 8 11 19 31 34 33 34 31 30 29 22 23 26 28 27 27 26 26 25 24 23 24 23 23 23 23 24 25
2 1 2 5 5 3 14 17 5 4 3 4 1 4 7 5 6 7 11 26 36 36 36 33 34 39 26 21 22 23 25 26 23 22 22 22 22 23 23 24 25 25 26 26
4 3 5 4 3 5 16 6 4 7 6 4 2 5 5 6 10 17 12 13 12 25 31 36 39 38 33 25 22 21 21 22 21 20 19 20 22 24 26 27 28 28 28 26
4 4 3 5 6 3 1 2 3 6 3 3 3 5 8 6 7 5 13 13 19 20 15 24 32 34 31 28 26 23 21 19 18 18 19 21 21 19 18 18 19 20 21 23
3 5 5 3 7 7 3 3 3 2 4 2 0 3 3 3 2 5 4 13 14 13 19 22 26 32 30 27 24 21 18 16 14 14 14 14 13 13 13 13 12 12 13 13
6 1 5 2 4 4 2 2 4 4 2 3 3 3 4 3 3 7 8 10 10 10 12 18 23 27 25 23 20 18 16 15 14 13 12 11 12 12 13 14 15 15 15 14
6 1 4 1 1 5 0 4 3 4 4 2 2 3 3 4 5 8 10 4 4 8 14 21 25 24 20 17 16 15 14 13 13 11 11 11 11 11 12 13 14 14 15 16
4 2 4 3 2 4 3 2 4 4 3 6 5 4 3 4 4 7 4 3 8 15 20 22 22 21 19 17 15 13 13 12 11 10 9 9 9 10 11 13 13 13 14 14
2 2 2 4 4 4 5 6 6 5 3 6 4 5 7 8 7 7 4 7 15 20 22 22 22 21 20 17 14 13 13 12 10 8 7 7 8 9 11 12 12 12 12 12
1 2 2 3 1 3 1 3 7 6 5 6 6 8 12 6 7 10 8 9 17 21 22 22 21 20 17 16 16 16 14 12 10 8 7 7 7 8 9 11 11 11 11 11
1 2 1 3 2 2 2 5 7 9 5 4 3 9 5 13 9 9 6 11 19 22 23 22 21 20 20 18 17 16 14 12 11 10 8 8 8 9 9 9 10 11 11 11
2 3 2 2 2 2 5 5 7 4 4 7 8 8 5 3 4 10 9 15 20 23 24 23 23 22 19 17 16 15 13 13 12 12 10 10 10 10 10 11 11 12 12 11
3 3 2 1 2 1 3 1 3 7 3 8 6 4 5 7 11 11 11 12 18 21 23 23 21 21 19 17 17 16 16 14 14 13 13 12 11 11 11 10 9 9 10 11
2 3 3 2 2 5 2 1 2 2 4 4 11 11 9 7 5 11 12 13 14 18 19 20 18 18 17 18 18 19 17 16 15 14 13 13 12 11 11 10 9 9 10 11
4 4 3 1 1 2 2 2 2 2 3 2 4 7 6 9 4 4 7 7 12 13 14 15 16 17 19 20 20 20 19 17 15 14 14 14 13 12 11 9 10 10 11 11
1 2 3 3 1 5 5 4 4 2 3 7 6 7 7 4 5 3 2 4 9 9 9 10 12 15 16 18 19 19 18 17 13 15 15 15 13 13 11 9 11 13 13 13
3 4 2 2 1 5 3 1 1 4 4 4 7 4 5 3 3 3 4 3 4 5 6 8 9 11 13 15 16 16 16 13 15 15 15 14 13 13 13 12 13 15 16 16
1 4 4 6 5 4 4 6 3 5 4 3 6 5 4 3 2 3 3 2 0 1 3 4 6 9 11 12 13 14 13 15 16 16 15 14 14 14 13 14 16 18 18 18
2 3 1 1 1 4 5 6 6 3 2 3 2 5 7 7 8 7 5 6 6 4 3 5 6 8 9 10 11 13 14 15 15 15 15 15 15 14 14 15 16 19 20 20
2 2 2 3 5 8 5 6 4 4 3 3 3 3 3 3 3 2 3 4 5 8 8 5 7 7 8 10 10 12 14 15 16 17 16 16 15 15 15 16 17 19 18 17
4 3 3 3 3 3 5 8 5 4 5 5 4 3 3 2 3 3 3 4 5 6 8 9 9 10 10 11 10 11 13 15 16 18 18 18 16 17 16 17 20 22 20 19

GFSCGP_850_spd_090.txt.gz
Wind_Speed
3 5 12 22 14 10 15 17 23 19 8 18 17 18 14 6 11 18 17 14 14 24 23 17 17 16 19 19 20 19 19 18 16 16 21 22 24 24 23 21 18 16 16 15
3 11 13 13 10 11 11 20 17 17 7 15 16 16 16 16 15 16 17 20 18 15 20 19 19 13 17 20 19 19 18 18 17 18 17 17 20 21 24 24 21 20 17 17
7 2 12 15 9 3 15 21 16 19 9 4 8 14 15 16 18 19 19 18 16 20 22 17 16 15 13 13 16 17 19 17 13 10 12 16 21 22 24 27 25 23 21 21
7 3 16 16 15 5 14 18 14 18 15 9 9 6 17 20 15 18 18 20 18 17 22 17 16 16 12 14 12 16 19 18 16 23 13 22 23 24 23 23 21 19 20 21
2 2 17 13 17 9 1 6 15 17 16 6 10 6 6 6 20 17 19 20 22 19 20 20 23 18 16 15 20 14 14 22 24 22 16 27 27 29 28 26 27 22 20 19
4 1 4 6 12 11 5 9 10 9 8 6 11 13 7 8 14 19 22 23 22 23 22 20 16 21 21 16 19 23 21 19 21 25 26 26 25 25 25 25 23 21 20 21
3 2 5 13 5 4 4 11 5 6 6 6 4 9 9 7 5 10 15 25 24 24 24 25 24 27 26 23 17 17 25 27 26 24 25 26 27 27 28 25 22 22 22 23
4 4 9 6 2 4 4 6 4 8 9 9 5 8 7 7 12 14 9 8 10 24 25 25 24 26 32 28 21 19 20 23 24 26 23 22 23 23 23 24 25 25 25 26
4 2 8 4 4 8 2 8 1 4 3 5 6 5 12 8 7 5 10 12 9 11 18 25 24 27 30 29 33 29 25 24 22 22 21 21 21 22 23 24 25 25 26 26
2 3 8 9 7 3 4 8 4 1 6 5 4 3 1 5 5 1 1 7 11 11 14 14 17 21 27 29 27 26 24 23 21 19 18 18 19 20 20 20 19 18 17 16
1 3 4 7 4 7 4 3 3 2 3 1 5 4 3 6 6 6 6 6 6 8 9 14 15 15 22 28 26 25 23 20 18 18 17 16 16 16 17 17 17 16 16 16
6 1 2 5 2 4 3 6 3 2 3 2 3 5 5 4 5 8 9 4 2 4 7 10 14 17 21 25 22 19 17 16 15 14 15 15 14 14 15 16 17 17 18 18
4 2 5 7 3 1 4 4 3 4 1 2 1 5 4 4 3 9 8 4 1 5 9 13 15 17 20 20 19 17 15 13 13 13 12 13 12 12 12 14 15 16 17 18
5 1 3 2 5 7 4 10 10 4 3 5 4 2 5 8 3 7 8 3 5 8 12 15 16 17 19 19 18 16 15 15 14 14 12 11 9 11 12 13 14 14 15 16
2 1 2 4 4 3 5 10 11 6 4 5 5 10 14 8 5 9 7 3 8 11 14 15 17 18 18 16 15 15 14 14 13 12 11 10 10 10 11 12 13 14 14 14
3 0 1 2 3 3 3 6 12 12 10 11 7 14 6 12 13 8 6 5 11 13 15 15 18 18 17 17 16 15 15 15 14 13 12 11 11 10 11 12 12 14 14 15
0 0 1 2 3 4 2 2 8 5 5 9 10 10 4 6 2 4 8 7 11 15 17 19 20 19 17 16 16 16 16 15 15 14 14 13 12 12 12 13 14 15 16 15
2 1 1 1 0 2 4 2 2 7 6 11 10 9 9 7 8 8 8 7 10 15 18 19 19 18 17 16 16 16 17 16 16 15 15 14 14 14 14 14 15 16 14 14
1 1 2 1 2 2 3 2 1 1 3 1 7 8 12 13 11 15 11 12 10 12 15 17 18 16 16 16 17 18 19 18 17 17 15 15 15 15 15 15 14 14 14 13
2 2 0 1 2 0 3 2 1 2 3 2 4 7 7 5 5 3 6 8 8 11 13 15 15 16 17 18 19 20 21 20 19 17 16 16 16 16 16 15 14 12 13 12
2 2 3 2 1 2 1 1 4 3 3 4 4 7 1 3 3 5 4 1 4 8 11 12 13 15 17 19 20 22 22 21 17 17 17 18 18 17 17 15 14 12 12 12
2 4 2 2 2 3 2 1 2 2 4 3 4 2 2 1 1 2 4 4 4 4 5 7 7 10 13 16 17 20 20 17 17 18 18 18 18 17 16 16 15 14 14 15
3 2 0 3 0 2 3 6 3 3 4 3 2 4 3 2 1 3 4 4 4 2 1 2 4 6 9 11 13 15 14 16 18 18 19 19 18 17 16 16 16 17 17 18
2 2 2 2 2 3 3 4 5 4 2 1 3 5 5 6 6 5 5 4 6 7 5 2 3 5 7 8 10 12 14 15 17 18 19 18 18 17 17 16 17 18 19 20
2 2 2 3 1 3 5 5 3 3 2 2 3 4 3 3 3 2 2 3 4 3 3 4 4 5 7 9 10 12 13 15 17 18 18 19 18 18 17 17 17 17 19 20
3 1 2 2 4 5 6 10 3 3 5 5 3 4 4 3 3 3 4 4 5 5 6 8 8 10 10 11 12 12 13 13 15 17 19 19 18 19 18 18 17 18 19 20

GFSCGP_850_spd_093.txt.gz
Wind_Speed
3 3 9 15 15 10 6 22 18 23 17 20 19 21 14 11 17 22 23 23 24 22 23 23 15 19 18 20 17 17 21 20 18 18 21 25 24 22 20 17 17 14 12 12
3 10 14 11 14 10 9 14 20 21 15 18 18 19 17 14 16 20 20 22 20 21 21 26 16 16 22 23 21 20 17 18 19 16 16 19 20 20 19 20 18 17 16 16
9 5 11 12 10 7 9 15 19 23 12 12 11 16 17 17 21 18 18 19 22 22 20 26 18 13 21 24 23 22 21 17 18 18 16 18 18 15 15 16 16 18 19 18
9 6 11 14 7 9 11 15 14 17 15 10 14 6 17 19 20 19 22 23 21 20 19 21 18 15 19 22 22 22 24 23 20 18 16 16 13 14 14 11 14 15 14 18
2 4 12 14 12 12 3 15 7 14 14 11 14 7 14 23 21 20 21 25 22 21 20 25 22 17 21 20 22 19 18 19 21 17 21 12 13 13 13 10 13 17 20 21
4 3 2 3 11 13 5 6 11 9 8 7 13 15 11 11 16 18 18 23 22 22 20 25 19 15 17 16 19 22 19 21 19 19 20 14 15 15 14 11 15 18 18 28
1 2 4 10 7 4 3 5 5 4 4 6 15 12 3 8 3 11 16 22 23 22 23 23 23 17 17 20 15 17 16 18 23 22 26 26 24 13 19 14 18 23 23 27
4 3 4 7 1 3 3 1 2 6 8 11 3 7 7 9 7 8 8 6 19 22 22 24 26 23 17 23 20 17 10 13 17 18 19 17 22 21 20 21 24 26 28 30
3 5 7 2 3 6 4 5 7 6 1 8 8 7 7 5 5 5 9 9 10 11 15 20 19 20 18 21 22 22 19 13 13 17 24 27 26 24 28 28 26 30 27 27
4 5 8 7 6 2 3 6 3 3 4 5 5 11 6 9 8 7 6 14 13 10 12 14 20 20 15 15 19 22 24 22 18 15 17 19 21 22 22 21 21 22 23 23
0 2 3 7 7 8 4 3 7 4 2 4 6 5 9 9 7 5 2 3 7 10 11 12 10 15 16 15 20 22 24 34 32 25 18 17 17 17 17 18 18 18 18 18
3 2 4 2 4 6 3 6 8 3 3 2 3 5 6 10 7 8 7 3 3 5 8 9 13 13 14 16 18 20 22 22 21 20 17 16 14 14 15 16 17 17 18 19
6 2 4 5 3 2 4 6 7 1 3 1 4 6 7 5 3 7 6 4 3 5 8 10 13 14 13 14 15 17 18 18 16 14 14 14 13 12 14 14 15 15 17 18
6 0 3 3 5 9 5 11 11 2 2 2 4 6 7 6 4 5 7 2 2 5 8 10 12 13 14 15 15 16 16 16 15 14 14 13 12 12 12 12 13 14 15 17
3 2 2 4 5 5 8 12 12 5 5 3 5 6 5 3 1 3 4 2 3 6 9 11 13 14 14 14 14 14 14 14 13 13 13 12 11 11 11 11 11 12 14 15
3 2 1 2 3 1 3 5 10 8 10 12 12 16 10 10 12 12 7 3 3 8 9 11 11 12 12 13 13 13 13 12 12 13 13 12 11 11 11 11 12 12 13 15
2 1 2 3 2 3 2 6 8 7 6 10 11 9 8 6 6 3 3 3 3 7 11 13 13 13 12 12 12 12 12 13 13 13 13 12 12 12 12 13 13 14 15 17
6 3 1 1 3 4 4 2 1 8 5 8 11 10 11 12 9 7 7 5 4 4 11 13 14 13 12 12 13 13 13 13 13 13 13 13 13 14 14 15 15 15 16 16
3 5 1 2 2 5 4 4 1 3 3 1 5 6 8 7 9 15 11 6 6 5 9 13 13 12 12 14 14 15 15 15 15 15 14 14 15 15 16 16 15 16 16 15
3 4 4 1 2 1 6 3 0 2 4 0 4 7 9 4 4 5 6 4 4 5 5 9 11 11 12 14 15 17 17 17 16 16 16 16 16 17 17 17 17 17 15 13
1 2 5 3 2 2 4 3 3 4 3 3 5 8 5 3 5 6 5 3 1 4 9 12 12 12 13 15 17 18 18 18 17 16 17 17 17 17 18 17 17 17 15 13
2 2 2 2 2 2 3 3 4 5 3 3 4 4 3 3 3 4 5 4 3 3 4 7 9 11 14 15 16 18 18 18 16 17 17 18 18 18 18 17 16 15 15 15
2 2 4 3 3 3 1 4 4 4 5 3 4 4 2 1 3 2 4 4 5 5 3 1 3 5 8 10 12 14 14 14 14 16 17 18 18 19 18 17 16 16 16 16
2 1 3 3 4 3 3 3 3 2 2 1 2 2 3 5 4 4 4 5 5 5 4 2 1 3 5 6 7 9 11 12 13 15 17 19 19 18 17 17 17 17 18 18
3 2 3 6 1 3 5 8 5 1 1 1 2 3 4 2 3 3 3 4 4 4 4 3 2 2 5 6 7 9 10 12 13 15 17 19 18 18 18 18 17 17 18 18
3 4 2 1 8 7 6 11 8 2 2 3 3 2 4 4 3 3 3 3 4 5 6 6 5 6 8 9 12 13 12 13 14 15 17 18 18 19 19 19 19 18 18 17

GFSCGP_850_spd_096.txt.gz
Wind_Speed
4 1 5 6 9 8 2 14 13 12 10 11 10 8 14 14 20 19 22 22 20 22 17 21 18 15 22 24 22 20 20 20 23 23 31 28 27 24 24 21 22 18 16 14
1 6 11 8 10 14 6 3 17 6 13 15 14 11 14 9 7 15 15 18 22 19 23 18 22 18 22 24 25 22 21 22 21 20 20 25 28 27 25 25 23 22 19 16
5 6 7 13 9 9 6 4 7 9 5 4 8 12 13 11 15 16 19 23 23 25 18 21 24 22 22 22 26 24 22 23 22 19 19 17 20 24 25 25 22 20 18 16
6 10 7 7 6 5 2 3 12 16 13 3 14 5 5 11 12 10 19 19 16 16 20 22 28 25 25 23 23 24 21 19 18 21 19 15 13 13 16 16 16 15 14 11
2 4 6 10 4 9 2 9 8 3 6 6 12 2 5 20 13 14 15 21 21 17 15 20 26 26 25 28 27 25 27 25 22 19 20 15 13 7 9 11 11 10 9 7
5 8 4 2 11 8 4 3 4 3 2 3 9 7 5 10 22 11 17 26 24 23 24 18 23 26 22 23 26 29 29 26 24 20 18 16 17 14 14 12 14 13 11 9
6 3 3 9 6 5 5 2 3 3 2 2 11 5 6 2 12 14 15 25 29 27 26 21 25 25 22 22 21 22 23 23 22 19 16 15 9 14 17 17 21 13 15 16
3 4 2 2 3 2 1 3 1 3 4 5 7 3 5 4 9 2 3 23 27 26 24 23 28 25 20 20 19 19 21 20 21 23 24 22 19 28 24 14 24 13 13 19
2 4 3 6 3 1 5 3 5 4 4 4 4 1 5 8 7 4 5 2 1 15 25 25 21 23 21 22 24 22 21 18 17 22 23 22 24 27 24 22 25 22 25 24
2 4 7 5 4 6 4 4 2 1 3 3 3 6 4 6 6 6 4 7 6 6 9 14 24 18 21 21 19 23 21 19 18 14 14 14 15 20 22 23 23 22 22 21
2 2 3 3 4 6 3 1 5 4 1 1 4 1 4 7 7 6 5 5 12 12 10 11 16 13 16 20 20 24 24 22 21 18 12 9 12 16 18 18 18 18 18 19
3 0 3 2 2 3 4 6 3 2 5 3 3 1 8 7 6 8 7 3 3 6 8 13 11 15 18 20 19 19 24 25 25 21 22 21 16 17 17 17 16 16 16 17
3 1 3 3 2 3 2 4 3 0 1 2 1 2 6 1 4 8 8 7 5 7 11 14 14 19 20 19 19 21 21 20 21 22 23 24 23 20 18 16 14 15 16 16
3 1 2 1 3 6 4 6 8 4 1 4 3 2 4 6 4 9 8 5 6 8 10 12 14 15 15 14 15 17 18 17 17 16 16 17 17 15 14 13 12 13 13 14
2 2 1 3 3 4 4 7 12 5 4 2 3 3 4 5 3 6 5 5 6 9 10 12 13 14 15 16 15 15 15 16 16 15 15 15 14 12 11 10 10 10 11 12
4 3 0 3 2 3 3 7 7 4 6 6 5 3 4 10 9 8 5 7 4 8 10 12 14 15 17 17 17 16 14 14 14 14 13 12 11 10 10 9 9 9 10 12
2 2 1 1 1 2 2 4 6 2 3 2 4 2 5 6 7 2 7 4 2 5 11 13 15 15 15 15 16 14 13 12 13 13 12 11 10 10 10 10 11 11 11 12
5 5 1 1 2 1 2 5 5 3 3 2 5 5 6 7 11 9 4 6 4 3 10 13 15 16 14 13 13 12 12 11 11 11 11 11 11 11 12 12 12 13 14 14
3 3 2 1 2 3 2 2 1 0 1 3 3 5 8 7 7 7 5 7 7 4 2 12 14 15 16 15 13 12 11 11 12 13 12 12 11 12 12 13 14 14 15 16
3 4 2 2 1 1 2 2 4 3 1 4 4 5 6 5 2 2 9 4 4 4 5 10 11 13 13 13 13 13 13 12 12 13 13 13 13 13 14 15 15 15 16 17
2 2 3 3 1 2 3 3 0 1 2 4 5 5 6 3 3 2 4 4 3 3 9 12 14 13 12 12 14 15 14 13 13 12 14 15 14 15 15 16 16 17 17 17
1 2 3 1 0 1 3 2 2 2 2 4 6 5 5 6 5 7 8 7 5 4 3 9 13 15 16 16 15 14 14 15 15 14 15 15 15 15 16 16 17 18 17 16
2 2 1 2 0 2 2 1 2 3 4 3 4 4 4 3 5 6 7 8 8 7 6 4 2 4 6 8 10 12 13 13 13 14 14 15 15 16 17 17 16 16 16 16
3 3 2 2 3 5 8 5 5 3 2 0 3 5 4 6 5 5 4 5 5 6 6 5 3 2 1 2 4 7 7 8 9 11 12 14 15 17 17 16 16 16 16 16
4 5 3 0 8 7 12 10 7 3 2 1 1 2 1 2 5 3 4 5 5 5 5 4 3 3 3 2 3 5 6 7 8 11 13 14 15 17 16 16 16 16 17 16
5 4 3 1 8 8 5 12 8 3 1 3 2 3 5 4 4 1 2 2 3 4 4 4 4 3 5 7 8 9 9 10 12 13 14 15 14 16 16 16 17 17 18 18

GFSCGP_850_spd_099.txt.gz
Wind_Speed
4 2 3 1 6 8 4 2 8 2 7 9 7 8 10 22 28 24 26 17 17 26 23 22 18 18 18 23 27 29 29 31 31 29 26 26 28 27 25 21 20 19 15 14
3 6 6 1 7 2 3 8 9 7 5 5 8 9 19 8 6 35 32 33 23 23 28 26 23 20 21 23 23 22 23 29 33 33 33 30 29 27 25 23 21 22 20 18
5 5 8 5 6 4 3 3 10 8 2 4 9 6 3 5 9 7 16 22 22 18 18 28 29 25 22 26 26 23 23 23 26 29 28 30 30 28 27 27 24 23 23 20
4 8 7 5 3 4 4 7 7 7 2 5 2 3 8 8 10 6 15 16 19 21 22 27 31 28 25 24 27 26 23 23 25 23 24 25 22 26 30 30 25 21 20 21
3 5 5 3 6 6 2 3 1 5 2 5 3 1 5 7 15 11 16 24 21 14 18 23 29 29 26 25 26 27 26 25 24 26 24 21 20 18 18 19 15 10 10 12
3 5 3 2 6 6 1 1 11 6 3 2 6 4 4 13 24 5 6 23 23 19 14 8 26 30 29 28 27 28 27 24 22 22 22 24 22 20 18 17 14 12 11 9
3 3 6 8 5 4 5 2 3 3 2 3 12 8 7 7 11 14 15 28 25 22 21 16 24 35 32 30 27 26 28 28 24 24 22 21 21 20 17 16 14 13 15 18
1 4 4 2 3 4 4 3 2 4 3 2 6 5 5 7 4 26 26 30 31 30 27 25 22 33 30 26 24 27 27 29 27 24 21 19 20 17 16 13 11 17 16 18
2 4 4 5 3 3 4 1 1 1 1 4 3 4 6 3 5 10 12 21 31 35 32 31 26 30 30 26 24 23 24 25 25 24 23 22 22 22 23 25 22 17 16 21
3 4 5 5 3 8 1 1 2 2 3 2 2 1 3 3 6 6 7 10 12 14 33 30 29 28 28 23 20 23 23 25 23 23 23 25 25 23 22 19 19 22 24 26
3 2 2 2 2 5 1 3 2 2 3 3 3 4 5 3 5 4 4 3 7 8 11 17 28 30 27 24 24 24 24 25 25 23 22 23 22 20 18 16 17 19 22 24
2 2 1 2 5 4 3 3 2 3 3 0 3 3 4 5 7 8 6 8 10 8 10 11 12 19 26 26 25 24 25 26 24 23 21 21 18 13 12 13 16 16 16 17
2 2 2 2 2 2 3 3 2 2 1 1 2 3 4 6 7 7 6 4 4 7 11 9 8 14 24 25 23 22 23 25 24 24 23 21 19 18 19 20 19 19 19 19
7 1 2 4 4 4 4 5 5 4 3 1 2 1 2 3 3 2 6 5 3 5 8 11 15 18 20 20 20 20 20 21 23 25 24 21 20 19 18 18 18 18 16 15
1 0 1 5 4 4 4 5 7 4 3 3 2 5 1 1 3 1 4 7 6 6 8 12 15 16 16 17 17 17 16 17 19 19 19 19 18 16 15 15 14 12 12 12
2 2 2 3 2 3 2 6 6 3 2 2 5 2 3 5 8 10 5 6 8 9 8 11 13 15 16 15 15 14 14 16 17 17 17 16 14 13 12 12 12 12 12 11
1 2 2 3 3 4 3 1 5 3 1 2 3 3 3 4 5 6 7 5 2 9 12 13 15 15 14 14 13 13 14 15 15 15 14 13 12 12 12 12 12 11 11 12
3 2 1 2 2 0 3 2 3 4 2 2 2 1 1 2 3 5 2 2 3 0 11 13 15 15 13 14 14 12 13 13 14 13 13 13 12 11 11 11 12 13 13 14
7 2 3 1 1 1 1 1 2 2 2 2 3 4 6 5 1 4 6 1 3 4 4 13 12 15 14 13 13 14 14 13 13 13 13 12 11 12 12 11 12 13 14 15
1 2 3 3 1 1 2 1 2 2 1 2 5 3 5 5 2 3 8 4 4 6 5 10 14 14 16 15 14 14 13 13 13 12 11 11 12 12 11 12 13 14 15 16
1 0 3 1 1 3 0 1 1 4 3 2 5 3 4 2 2 2 5 3 3 3 5 8 16 16 14 13 14 14 14 13 11 12 12 13 13 13 13 13 15 16 17 17
3 3 2 1 2 2 1 2 2 2 4 5 4 3 6 6 4 4 5 6 5 4 4 8 14 16 15 14 12 12 14 13 13 12 13 14 13 13 14 15 16 17 18 18
1 2 2 4 3 2 4 4 4 3 2 2 2 3 4 4 5 5 7 8 8 7 5 5 7 10 11 12 14 14 14 14 13 13 13 14 14 13 14 16 17 18 17 16
5 6 0 2 6 5 11 10 8 5 2 1 2 3 5 7 5 4 3 4 4 5 6 6 4 3 4 5 8 9 9 9 10 11 12 13 13 13 14 15 17 17 16 16
4 6 2 2 5 5 12 14 12 6 4 0 2 3 4 4 4 3 4 5 4 4 4 3 2 2 2 1 1 3 5 6 8 10 11 13 11 12 13 14 15 16 16 16
3 1 2 2 2 3 8 15 10 6 2 0 1 3 4 4 4 2 3 3 2 3 3 3 3 3 3 3 4 6 8 9 10 11 12 13 13 13 14 14 14 15 16 16

GFSCGP_850_spd_102.txt.gz
Wind_Speed
4 3 3 2 5 0 6 3 2 2 5 8 13 10 6 4 5 4 15 16 16 20 20 19 23 30 31 32 31 32 30 30 28 28 30 27 29 25 21 20 18 15 15 13
5 3 6 5 8 3 4 7 2 6 3 3 9 5 9 11 5 8 14 24 26 23 24 22 21 24 30 31 31 32 30 28 28 29 32 30 27 27 25 22 21 20 19 17
5 4 9 4 5 3 3 5 6 3 6 5 5 3 3 5 11 16 18 26 30 24 27 26 23 22 21 23 29 31 29 31 32 32 29 26 26 26 29 29 28 26 23 21
3 5 6 5 3 4 2 5 3 16 2 2 4 3 4 2 13 12 21 33 35 30 24 29 27 26 22 20 23 25 26 27 28 31 28 26 28 30 29 29 29 27 24 24
5 4 3 2 3 6 1 1 8 8 4 4 1 4 3 18 15 18 25 36 36 27 18 21 33 31 26 22 22 25 25 24 25 26 28 26 25 26 27 32 30 27 24 22
3 3 4 2 8 3 2 3 12 8 3 3 3 2 2 11 23 23 15 20 26 22 12 11 22 35 31 25 23 24 25 26 26 25 25 25 25 25 23 26 31 32 25 17
2 3 2 3 5 5 3 2 4 4 4 3 8 4 7 6 13 19 14 20 23 22 18 14 21 35 33 31 28 26 26 26 23 21 22 24 25 24 24 20 16 14 16 16
3 5 1 2 2 3 3 2 2 3 4 2 7 4 5 4 10 20 26 28 28 27 22 17 15 29 32 28 27 25 24 23 22 23 22 22 23 23 19 17 15 16 15 15
3 5 4 10 5 3 2 2 2 2 3 4 3 5 8 5 4 7 21 25 27 25 21 22 19 16 27 26 26 24 23 22 23 24 25 24 23 23 23 21 20 18 18 19
5 4 5 3 4 4 3 2 1 3 4 3 3 3 2 2 2 3 5 16 28 29 32 30 25 21 24 25 28 24 20 21 22 26 25 24 21 21 20 20 21 22 21 21
4 1 1 1 1 3 2 2 1 2 3 4 4 4 4 8 3 4 3 3 5 12 25 26 25 23 26 30 26 23 23 23 23 22 22 23 24 25 24 23 23 20 18 19
1 1 2 4 3 2 3 3 2 3 2 2 3 2 3 6 4 8 7 7 3 6 8 15 27 25 28 29 26 26 25 25 24 23 24 26 25 24 21 18 17 17 19 20
1 2 3 3 2 2 4 3 1 4 3 2 4 3 3 5 7 10 7 4 5 6 7 10 13 28 31 28 27 24 25 26 24 23 24 23 21 20 20 20 20 18 16 17
1 2 3 4 4 3 2 3 2 4 3 1 2 3 4 5 6 7 4 5 3 3 4 8 11 15 24 25 24 25 24 21 22 23 22 22 22 21 21 19 17 16 17 17
2 1 0 3 4 2 2 2 5 2 4 4 0 1 3 3 1 3 3 2 3 2 2 6 12 17 20 22 22 19 18 19 20 20 22 22 21 20 19 17 16 16 15 15
4 3 4 2 3 5 1 3 6 0 3 9 3 5 3 4 6 4 2 2 3 4 2 5 10 14 15 16 18 19 19 19 18 19 20 20 19 17 16 16 14 14 13 13
3 3 3 3 4 2 4 1 5 4 3 5 5 5 2 2 4 5 4 1 4 7 6 8 11 13 14 14 14 14 13 13 15 15 16 16 15 15 14 13 12 12 12 12
4 4 1 2 4 2 2 3 0 5 4 4 3 1 1 3 3 3 2 2 1 2 8 9 9 11 10 10 11 9 11 13 14 14 15 14 14 14 13 13 13 13 13 14
6 2 2 2 1 3 3 4 2 1 3 3 4 2 3 4 1 1 5 3 3 3 3 8 10 9 10 10 9 10 13 13 13 14 14 13 13 13 13 13 12 12 13 14
4 2 3 1 2 1 2 3 4 2 1 1 2 2 2 1 0 3 8 6 5 5 6 6 13 13 11 11 10 12 12 12 13 13 12 13 13 14 13 13 12 13 14 15
1 1 2 0 0 3 2 2 2 3 2 3 2 1 2 1 2 2 5 6 6 5 5 6 12 14 12 11 11 11 11 12 10 11 13 14 14 14 13 13 13 14 15 17
3 3 2 1 2 2 2 2 0 3 2 3 2 2 2 3 2 2 4 5 6 4 1 2 10 14 14 13 12 11 11 9 13 13 14 14 14 14 14 14 14 15 17 19
0 3 2 3 3 2 7 7 5 2 2 1 2 3 4 4 3 3 4 6 7 7 5 3 5 7 10 12 13 13 11 12 13 14 14 14 14 15 15 15 15 17 18 20
3 5 2 2 5 5 12 10 10 6 3 1 1 4 5 6 5 3 1 2 3 4 5 5 4 4 6 8 11 12 13 13 13 14 14 14 15 15 15 15 15 16 18 19
3 5 1 2 1 1 6 15 11 8 3 1 1 3 4 4 5 1 2 3 4 4 3 3 3 3 2 2 3 5 6 8 10 11 12 13 14 14 15 15 15 15 15 17
1 1 2 3 2 0 3 8 11 8 4 2 3 2 4 4 5 5 3 2 2 2 3 2 2 2 1 1 3 5 7 8 9 11 12 13 14 15 15 15 15 14 13 14

GFSCGP_850_spd_105.txt.gz
Wind_Speed
3 3 4 7 7 1 5 4 5 2 7 9 12 6 9 9 18 11 10 6 5 5 9 17 24 32 33 33 37 38 39 38 36 34 33 29 29 25 24 19 15 14 12 11
4 3 5 5 5 5 1 6 4 2 5 2 10 6 11 9 4 12 12 13 8 4 8 13 18 30 34 30 35 36 35 33 32 31 31 30 26 26 21 20 18 17 12 11
4 5 9 7 5 4 1 5 2 4 6 6 6 4 5 6 5 5 10 14 11 9 7 10 14 23 33 37 34 33 30 28 29 30 33 29 25 27 20 22 23 23 18 17
4 5 7 5 4 3 2 5 3 8 5 3 3 2 0 5 5 6 10 12 9 6 8 10 14 19 25 28 29 28 29 28 29 29 30 26 25 26 23 31 26 27 23 21
5 4 5 3 1 3 0 4 4 6 3 2 2 4 1 9 9 12 13 7 12 10 11 13 16 19 18 19 23 27 30 29 28 26 25 22 23 22 25 27 29 29 26 26
4 1 3 3 6 3 3 4 9 6 3 2 4 3 5 11 18 12 16 20 18 8 17 23 19 26 22 20 19 20 20 23 24 23 21 21 20 21 23 25 27 29 26 25
2 2 4 3 2 4 3 9 4 2 2 2 2 2 6 9 5 11 16 27 26 31 29 22 23 22 30 26 21 19 20 21 20 17 15 17 18 19 20 21 19 22 25 24
2 4 5 3 3 2 3 3 4 4 3 3 2 3 4 1 9 16 19 25 33 37 29 21 14 18 23 29 26 20 20 19 17 18 17 19 18 20 19 19 16 10 8 9
4 4 2 7 4 1 2 2 3 5 3 4 1 6 7 5 6 3 16 26 30 29 23 19 14 10 23 27 25 22 19 17 16 18 18 19 17 19 17 15 14 13 14 14
5 3 6 3 2 4 3 0 2 3 3 4 2 4 3 8 10 5 6 15 24 21 18 18 17 15 12 22 24 23 19 17 15 16 19 19 20 18 17 16 16 17 15 13
3 3 4 1 3 1 2 2 2 2 3 4 3 2 3 6 6 5 7 5 7 19 22 21 21 19 18 18 23 23 22 20 18 17 19 21 22 21 19 19 18 16 17 17
1 3 2 3 3 2 1 2 1 3 2 3 3 3 5 5 5 5 8 9 3 1 10 24 23 23 22 23 26 22 18 17 17 16 19 20 21 22 22 20 20 21 20 19
3 2 1 5 3 2 2 2 1 4 3 3 4 3 4 5 7 8 9 8 7 4 3 7 18 20 23 27 24 22 21 19 18 17 17 20 23 22 22 23 23 21 19 17
6 3 4 4 2 1 1 2 2 3 3 5 2 2 4 5 5 5 7 7 5 3 4 3 7 17 20 24 25 24 22 20 20 20 20 20 20 20 20 19 19 17 15 15
2 3 2 4 4 2 2 1 3 3 3 4 6 3 2 4 5 6 4 4 7 6 3 2 4 7 16 20 21 21 21 20 20 18 17 17 17 17 16 15 15 15 16 15
3 2 2 3 4 4 2 2 3 3 3 5 5 1 2 3 6 11 8 6 7 6 6 3 2 6 9 13 15 15 15 16 16 16 16 16 15 16 16 16 16 15 14 12
2 2 3 3 5 2 6 5 2 1 1 5 2 4 2 3 4 6 7 8 7 7 5 3 1 5 8 9 10 11 13 14 15 15 17 16 17 16 15 14 12 12 11 11
3 3 1 2 3 3 4 4 3 4 4 2 3 2 3 3 3 5 6 6 5 7 5 3 3 4 7 8 10 11 12 12 13 15 13 12 12 12 11 11 11 11 10 10
4 1 2 2 1 2 3 4 2 3 2 4 2 2 4 5 2 1 7 8 6 5 5 4 5 5 6 7 9 10 10 10 11 11 11 10 11 11 10 10 11 10 11 12
3 2 2 1 3 1 2 3 3 1 0 2 2 3 5 6 4 3 9 7 5 5 6 8 6 7 7 7 7 8 8 9 8 9 9 10 11 11 11 11 11 11 12 13
1 2 1 1 1 3 3 4 5 2 3 0 2 1 1 1 2 5 7 8 8 7 5 5 7 9 9 9 8 7 8 6 7 9 10 11 11 10 11 12 13 13 14 15
3 3 2 1 2 1 8 3 2 3 2 1 3 2 1 1 0 2 4 6 8 7 3 4 3 8 8 9 9 8 6 6 8 9 10 11 11 12 13 14 15 15 14 15
1 3 2 3 3 1 7 7 5 5 2 3 4 4 3 1 1 1 3 5 7 7 6 3 4 4 6 7 9 9 9 8 9 10 11 12 13 14 15 15 15 15 14 16
1 3 2 2 2 4 9 7 9 6 4 3 3 4 3 3 2 0 1 2 3 4 5 5 2 2 4 5 7 9 11 11 12 13 13 14 15 15 16 16 15 15 16 16
3 3 2 1 1 2 1 9 9 7 3 3 3 2 2 3 3 1 4 1 1 3 3 3 3 3 2 2 3 5 7 9 10 11 13 14 15 15 15 15 15 15 15 16
5 5 4 3 6 2 2 5 6 9 7 5 5 4 4 4 5 4 5 3 1 1 1 1 1 1 1 2 3 4 6 7 8 9 11 12 13 14 15 15 16 16 16 16

GFSCGP_850_spd_108.txt.gz
Wind_Speed
4 3 4 9 8 11 5 7 12 5 5 13 13 8 9 10 15 22 18 15 9 13 12 24 33 30 37 38 40 44 45 43 42 39 38 34 31 30 27 24 18 17 15 15
4 4 7 7 5 11 8 9 5 2 5 12 11 6 7 5 7 12 12 20 10 4 11 17 30 31 29 33 35 34 48 47 45 39 36 33 31 29 25 22 20 17 15 13
4 5 7 10 5 10 9 5 1 3 6 3 10 5 8 6 7 4 11 21 11 1 8 13 24 33 34 30 31 36 36 43 42 41 39 34 29 28 26 26 25 22 16 11
5 5 7 7 6 4 5 7 2 8 2 1 3 2 4 8 7 6 12 17 10 4 3 11 12 24 32 35 30 21 29 43 41 38 32 25 22 25 24 19 17 15 18 17
6 4 7 9 4 1 4 6 5 5 4 2 2 3 3 2 3 2 10 8 11 4 4 8 10 11 25 33 27 24 31 32 29 30 31 32 35 30 24 26 23 21 21 19
6 3 3 4 3 3 6 3 3 4 1 3 4 1 2 4 3 5 4 9 10 6 6 9 5 9 16 22 24 29 21 29 24 23 29 34 34 30 31 26 26 25 25 23
2 2 3 6 2 2 1 1 2 4 4 2 5 4 0 11 8 6 4 7 12 11 6 6 9 9 13 17 20 23 27 29 25 21 18 18 15 18 18 23 20 17 20 19
2 3 6 2 1 3 3 2 3 3 2 1 2 3 2 2 9 16 19 15 8 15 11 3 2 7 12 16 16 18 18 16 13 14 13 9 14 16 16 14 9 10 9 8
5 4 3 4 2 3 2 3 1 4 2 3 3 4 3 8 8 2 14 21 21 21 17 4 5 7 11 14 19 14 11 11 11 11 12 11 10 10 9 7 6 5 8 6
2 2 3 3 2 6 5 1 3 3 3 4 4 4 5 12 11 8 4 12 21 27 17 13 14 9 7 11 16 17 14 11 9 10 10 10 10 10 9 7 6 8 7 6
1 3 5 2 5 4 3 3 2 3 2 3 4 0 3 7 6 5 7 6 8 19 17 16 17 14 9 7 16 18 16 13 11 11 10 11 12 12 12 11 11 11 10 11
2 3 2 2 1 2 1 2 2 3 2 3 3 4 7 7 7 9 11 11 8 5 5 13 15 13 11 11 12 16 15 15 15 15 13 12 13 15 14 14 14 13 13 12
4 3 3 7 4 2 5 4 3 3 2 3 4 2 5 7 7 12 12 12 13 12 7 3 11 14 13 14 15 18 19 18 17 16 15 14 16 16 15 15 14 15 15 15
4 3 3 3 3 2 3 4 4 3 3 3 2 2 5 6 7 10 12 13 12 11 10 9 3 7 11 15 16 17 18 17 17 16 13 13 14 14 15 16 17 17 15 13
3 4 4 2 4 2 3 3 4 4 2 3 4 3 2 3 4 7 10 13 15 15 12 10 9 3 6 10 15 17 18 17 15 13 13 13 13 15 16 16 15 13 12 9
4 2 3 4 6 3 4 6 2 4 3 5 3 4 2 6 10 15 15 13 13 12 11 10 8 6 3 7 11 13 14 13 13 12 13 13 13 12 13 14 12 11 10 10
2 1 2 2 4 0 5 5 3 2 3 4 3 1 3 5 7 10 11 11 11 11 7 6 5 3 2 4 7 9 10 11 13 14 13 12 13 13 13 13 13 11 10 9
2 2 1 1 2 3 4 2 3 3 4 4 4 4 5 5 5 7 8 8 7 7 6 5 4 2 3 6 7 9 10 11 13 13 13 14 14 14 14 14 12 10 10 9
1 1 1 2 2 0 3 4 2 4 3 2 2 2 3 2 2 4 9 7 7 8 8 6 3 4 6 8 9 9 10 11 11 12 12 11 12 13 13 12 12 10 9 8
3 3 2 1 3 2 2 1 1 4 1 1 1 1 2 2 2 2 6 7 7 6 9 9 6 6 8 8 8 8 8 9 9 10 12 13 13 11 11 10 11 9 9 8
1 2 2 2 2 2 3 5 2 3 4 4 3 3 5 2 2 2 5 6 8 8 6 7 5 6 8 9 8 8 8 6 7 9 10 10 11 11 12 12 10 9 9 9
3 4 2 2 2 2 6 3 1 1 2 3 4 4 3 3 2 4 5 7 7 6 5 6 3 6 8 8 8 6 6 6 6 8 9 10 11 11 11 12 11 10 11 11
0 4 4 4 4 1 4 4 3 3 2 4 4 4 2 1 1 1 3 5 6 8 8 6 7 4 5 6 7 7 7 6 6 7 8 10 10 12 12 12 12 12 13 14
1 1 2 3 2 4 4 4 6 4 4 4 5 5 2 1 1 1 3 5 5 5 6 7 4 3 3 3 3 5 7 8 8 8 9 11 12 13 13 14 14 15 15 14
4 2 4 0 1 4 2 5 6 5 4 4 5 5 2 1 4 4 3 3 3 4 5 4 4 5 4 2 0 2 5 7 8 10 10 12 13 13 14 14 14 15 14 15
6 5 4 4 9 4 5 4 1 0 3 4 6 4 4 4 4 4 5 4 3 2 2 3 4 4 3 2 2 3 3 5 7 7 9 10 12 13 14 14 15 16 17 17

GFSCGP_850_spd_111.txt.gz
Wind_Speed
2 1 6 9 9 13 11 15 14 14 12 16 18 17 11 10 6 6 13 22 26 26 23 38 39 37 48 51 42 41 42 44 42 39 36 34 32 30 26 26 25 26 24 22
2 7 8 6 9 10 12 16 16 15 6 13 16 14 4 11 5 4 13 21 25 30 13 33 40 41 40 46 40 40 38 40 41 38 36 34 31 30 26 25 25 23 21 19
4 6 8 7 11 10 14 10 11 7 11 8 11 5 10 8 13 10 16 13 23 31 12 23 34 38 33 29 33 35 34 34 37 38 38 36 31 29 30 28 24 23 22 21
5 5 5 10 11 10 6 8 12 11 4 3 2 4 5 11 6 2 9 14 27 24 16 19 35 37 36 40 26 33 35 34 35 39 40 38 36 34 33 30 27 24 22 19
6 4 7 10 5 2 3 6 2 2 4 2 3 4 1 8 5 9 12 16 28 15 18 15 25 31 32 38 37 33 23 27 44 24 40 38 32 31 30 27 20 22 17 14
7 5 4 4 10 2 7 4 1 2 2 3 2 2 3 2 6 12 10 9 14 11 18 16 16 22 27 29 29 23 22 21 38 52 35 34 28 27 27 28 23 18 21 21
3 3 3 7 5 1 2 3 2 2 3 3 4 6 3 4 8 5 10 7 7 8 14 15 12 12 21 31 27 26 26 29 31 20 46 32 37 36 36 32 27 31 26 25
1 3 5 3 1 2 3 1 1 2 2 2 2 4 3 6 13 13 7 3 8 3 13 14 13 14 16 20 23 23 24 18 19 24 26 13 33 18 28 25 24 26 23 22
5 4 3 2 3 2 0 3 2 2 2 3 3 5 5 12 9 9 7 8 13 9 11 14 13 9 14 19 19 16 15 17 16 14 13 15 23 24 24 20 18 15 15 17
3 4 1 1 1 1 4 1 2 3 3 5 3 4 6 14 13 12 7 11 6 11 9 10 14 7 4 13 18 17 16 16 17 15 17 18 19 19 18 18 19 19 20 18
2 2 6 3 6 6 4 3 3 3 2 3 3 3 5 7 8 8 7 15 6 10 11 7 11 6 3 10 17 17 17 17 16 17 16 16 15 15 16 16 16 17 16 14
1 3 1 2 5 2 2 1 1 2 1 2 3 4 6 7 6 10 12 15 18 10 9 7 7 5 1 5 14 15 15 15 15 14 12 11 11 12 12 15 16 16 13 14
4 3 3 7 4 2 5 4 2 2 1 6 4 2 5 6 8 16 16 18 18 16 8 7 12 9 9 5 9 15 16 14 15 14 12 12 12 13 15 15 15 14 14 13
1 3 2 2 2 2 5 7 5 4 4 1 3 3 6 8 8 13 20 20 20 18 19 15 5 12 15 13 11 14 15 15 13 13 14 12 12 14 13 12 13 12 13 12
3 3 2 3 1 2 4 5 9 7 0 4 3 5 3 5 6 11 17 20 22 23 22 19 16 8 4 7 11 13 14 14 14 14 14 13 12 11 11 11 12 12 12 12
3 1 2 3 4 6 7 8 8 6 5 6 5 6 3 6 11 19 19 19 20 20 19 17 15 13 7 4 6 9 11 12 12 13 13 13 12 12 12 13 13 13 13 13
3 2 3 2 2 1 6 5 4 3 4 1 4 1 4 6 9 13 15 15 14 15 15 14 13 10 8 5 7 8 11 12 13 13 13 12 12 13 13 13 14 15 14 13
3 2 2 1 3 4 4 3 2 5 4 5 4 4 4 5 8 10 11 12 13 13 11 11 9 6 2 1 4 7 9 11 12 13 13 13 13 12 13 14 14 13 13 12
3 1 3 3 3 1 2 4 3 2 4 4 3 5 8 5 3 6 11 10 11 12 12 10 9 8 4 1 2 5 7 9 11 12 13 13 13 14 15 15 14 13 12 11
3 3 3 2 4 2 0 3 3 1 3 6 6 6 6 6 3 3 12 13 11 10 10 10 6 5 3 2 2 2 3 6 7 8 9 10 11 12 12 13 13 13 12 11
2 2 3 1 2 3 2 4 2 3 3 2 4 3 4 3 2 4 8 9 11 11 10 10 5 2 6 5 3 3 3 4 6 7 8 9 11 12 13 13 12 12 12 12
4 3 2 2 3 2 1 2 2 3 2 2 4 5 5 5 4 3 4 7 9 10 9 10 8 3 4 5 5 4 4 4 5 7 7 8 9 11 12 11 12 13 13 13
0 4 3 4 3 1 3 4 5 3 3 3 4 4 2 1 1 2 3 6 7 9 9 8 8 6 3 5 6 5 5 5 5 6 8 9 11 11 12 12 13 13 13 14
1 3 2 2 1 2 4 5 5 5 5 4 3 3 2 2 2 2 5 7 5 5 6 7 7 5 5 3 2 4 6 7 7 7 8 9 10 11 12 13 14 15 16 16
4 5 4 0 0 3 3 5 6 6 4 2 2 3 3 3 1 3 3 3 4 4 4 5 5 5 4 4 1 1 2 4 6 8 9 10 11 12 13 14 14 15 15 15
8 6 4 5 13 5 8 9 4 3 2 3 3 1 1 2 3 2 2 1 2 3 4 4 4 4 3 3 3 3 3 3 5 6 7 8 10 11 12 16 15 15 16 16

GFSCGP_850_spd_114.txt.gz
Wind_Speed
3 6 11 13 13 16 14 17 22 22 20 13 15 18 15 9 10 13 18 11 11 14 15 20 12 37 33 50 54 49 52 45 40 40 37 34 32 29 25 22 24 27 26 26
5 13 16 8 12 16 19 20 23 23 23 17 15 19 17 13 12 15 16 16 14 15 17 18 15 26 34 52 51 48 42 45 40 40 35 33 33 28 28 29 29 28 28 26
11 11 9 14 14 17 19 19 21 21 8 13 12 12 14 8 10 14 15 14 17 20 18 18 16 29 29 38 43 44 43 39 43 43 36 35 32 30 31 32 30 30 27 24
10 6 8 13 17 14 19 7 14 16 10 5 16 6 11 10 10 14 16 15 10 14 15 16 20 30 35 36 47 38 39 34 37 34 34 36 37 35 35 33 30 27 26 24
4 9 9 14 11 5 6 6 11 13 8 5 12 3 4 12 9 10 8 7 4 12 12 14 20 28 37 38 28 27 27 27 22 29 35 36 36 35 33 33 30 28 28 25
18 10 6 4 12 13 11 7 5 4 2 5 3 2 3 1 2 3 4 3 3 8 7 11 18 26 36 36 35 22 20 28 22 34 34 35 37 37 33 32 31 28 25 25
5 5 4 4 7 5 3 6 2 2 3 5 5 9 7 8 2 3 3 13 12 16 6 12 21 32 29 36 34 27 31 20 16 26 23 31 36 32 24 24 26 25 24 19
5 1 5 1 1 4 3 5 4 4 4 3 5 5 4 10 10 4 4 9 14 15 6 5 19 25 31 31 30 31 33 33 28 22 20 25 22 14 29 29 24 22 21 17
5 2 0 3 3 3 3 3 4 2 1 2 4 4 6 17 16 11 10 7 8 9 7 8 24 22 26 29 26 24 19 20 26 28 30 16 14 31 33 28 28 33 23 24
3 5 1 1 3 2 2 3 0 1 3 4 4 6 9 19 16 14 10 3 13 13 7 19 24 20 23 23 22 18 17 24 24 26 23 17 19 27 27 33 27 26 23 27
4 3 6 1 6 5 4 2 2 1 3 3 3 5 10 10 11 14 8 12 16 23 24 19 26 19 18 24 25 22 21 26 25 27 24 24 25 27 30 34 28 27 25 27
3 3 3 3 4 5 4 7 4 3 4 5 6 5 10 11 15 14 14 10 16 19 23 18 20 19 16 18 23 24 22 23 23 25 24 24 23 23 25 25 28 28 27 27
3 3 2 3 1 1 5 13 5 2 2 5 3 5 7 12 15 19 19 14 9 12 17 17 15 16 15 12 17 20 20 19 21 23 23 22 22 24 25 27 29 30 27 25
3 4 6 5 4 4 6 17 10 1 7 13 10 12 13 14 15 17 19 17 18 19 16 10 7 6 8 11 10 16 20 19 20 21 24 24 22 22 24 27 28 26 24 25
3 4 5 6 3 3 9 13 16 8 5 9 10 14 11 11 11 14 16 18 19 19 19 20 13 6 2 2 9 10 15 19 19 20 21 22 22 22 23 25 25 24 24 24
3 2 2 6 9 10 14 16 12 13 13 14 14 13 7 9 10 15 16 16 17 17 16 16 15 14 8 7 8 10 11 13 14 15 19 20 21 22 22 23 23 22 22 20
3 1 1 2 4 5 7 12 10 9 10 6 10 6 6 9 12 15 14 15 14 14 14 15 13 12 11 7 8 9 10 11 14 16 16 17 19 20 19 19 19 19 20 20
3 1 1 2 2 3 3 4 2 12 10 9 8 6 6 6 7 12 14 14 13 14 13 13 12 8 7 7 7 6 8 11 12 13 14 15 16 18 20 21 21 21 21 21
4 2 2 1 4 3 3 3 2 4 7 8 6 5 6 3 2 12 15 15 14 15 14 12 9 6 5 3 3 5 5 5 6 9 12 14 15 16 17 18 18 19 20 19
1 2 2 1 2 2 2 1 3 3 3 6 6 7 8 3 3 6 11 14 15 14 14 12 9 4 4 3 2 2 3 5 7 9 11 13 14 16 17 18 19 20 19 19
1 2 3 3 3 2 1 1 2 1 4 5 6 7 7 5 5 4 9 12 13 14 15 14 10 5 3 4 4 4 3 3 5 7 9 11 12 13 13 14 14 15 17 17
1 1 1 1 1 2 2 3 2 4 5 4 4 4 4 5 4 5 7 10 11 13 13 13 12 8 6 4 4 4 5 5 5 5 6 8 10 12 13 14 16 16 17 17
2 1 1 2 2 2 1 2 5 4 5 3 3 3 3 3 3 4 7 9 10 10 12 12 12 10 6 3 2 2 2 2 4 6 8 10 12 13 14 15 15 16 18 18
3 3 1 3 3 2 1 3 4 5 4 5 4 3 2 3 3 2 4 7 8 9 9 9 10 9 8 6 4 3 4 4 4 5 5 7 9 12 13 15 17 17 18 18
1 8 5 1 2 3 4 4 6 6 5 3 2 2 3 4 1 1 1 2 3 4 5 7 9 9 9 8 6 5 4 5 6 5 6 9 9 10 12 14 15 16 16 16
9 5 5 4 12 3 10 13 10 8 5 3 2 2 3 4 4 3 1 3 3 3 4 4 5 7 7 7 7 7 6 5 5 6 7 9 10 11 13 15 15 13 15 17

GFSCGP_850_spd_117.txt.gz
Wind_Speed
9 7 11 18 16 19 16 19 23 23 22 22 22 19 20 23 17 20 23 21 24 20 17 17 17 20 25 22 34 32 46 44 44 35 38 32 32 28 27 28 27 29 25 26
7 14 17 14 16 15 18 21 26 25 22 19 22 25 15 17 16 18 17 18 21 19 19 16 17 15 21 22 30 17 44 44 45 37 39 35 32 28 29 29 28 29 27 28
14 15 9 13 14 17 19 20 25 24 24 21 23 24 19 18 22 17 14 16 21 22 22 17 11 13 23 29 37 30 29 43 42 40 40 37 31 30 29 26 27 27 27 25
12 11 9 11 16 14 20 20 25 24 17 13 13 5 16 16 12 13 18 16 20 22 18 16 9 15 23 33 27 38 51 39 46 43 39 37 35 35 32 32 31 29 26 26
6 7 11 15 18 8 11 13 11 13 10 8 12 6 2 14 9 10 9 15 14 16 16 14 14 20 29 22 37 30 51 52 47 46 41 39 36 35 31 29 28 30 28 26
18 22 13 12 14 14 15 10 14 7 4 5 8 10 3 1 9 8 4 7 2 2 10 14 17 21 29 23 25 34 34 39 47 37 36 36 35 31 30 28 25 26 30 28
8 8 6 2 8 6 6 11 3 5 6 1 0 6 5 7 5 5 9 10 9 3 2 8 14 19 28 28 19 28 8 34 27 31 31 34 32 32 26 29 28 29 31 30
5 2 4 2 3 5 8 6 4 5 3 4 9 5 6 9 4 18 13 9 10 16 13 2 11 20 28 29 16 25 24 19 18 26 21 32 30 26 28 23 27 29 28 25
5 3 3 3 3 2 7 5 9 6 2 2 3 1 5 16 15 15 14 12 20 24 20 6 10 20 29 31 25 25 23 19 13 15 7 16 12 9 12 22 26 28 28 23
4 5 2 2 4 8 4 9 3 1 6 4 5 6 6 14 15 13 14 17 22 28 22 16 11 23 28 29 25 27 23 21 23 20 18 20 11 15 26 25 25 29 30 25
4 4 7 4 4 4 4 3 5 4 3 4 3 5 9 13 11 12 12 17 25 28 26 19 14 22 28 25 22 19 19 20 29 26 27 27 28 27 30 26 27 43 34 34
3 4 4 4 3 5 7 9 4 4 5 6 6 6 11 15 15 16 19 22 27 26 24 22 19 24 27 27 23 19 14 15 12 14 20 22 24 28 24 27 37 31 38 40
9 5 3 5 4 5 5 14 3 3 2 13 5 4 13 17 19 21 13 20 26 28 26 26 22 22 22 22 21 19 17 18 19 19 23 25 24 24 25 26 33 32 30 32
5 5 5 6 5 5 7 14 12 3 8 12 13 14 17 17 17 16 19 21 19 27 26 29 26 22 18 17 16 19 21 18 18 21 24 23 25 26 26 29 33 31 32 34
3 3 5 7 7 12 12 16 18 13 14 9 14 17 13 13 14 18 19 19 21 26 27 21 21 19 15 16 12 13 19 20 20 21 21 21 22 22 22 25 27 29 31 31
3 2 4 6 8 12 15 17 15 14 15 15 16 15 10 14 16 19 19 19 22 22 19 17 17 8 11 8 9 9 10 15 18 22 23 23 23 23 22 25 26 27 26 27
4 2 2 3 2 4 5 12 9 13 13 10 10 9 10 12 15 18 18 19 18 17 17 16 16 13 9 7 6 7 8 10 16 19 23 24 24 24 24 26 25 24 24 24
4 2 2 2 4 2 3 5 8 12 12 11 10 10 10 11 16 18 18 17 16 15 15 14 12 9 9 10 9 7 8 8 9 11 16 20 21 21 21 22 23 24 24 24
2 3 0 2 5 4 3 2 3 5 8 10 10 9 9 3 8 22 18 17 16 15 14 13 11 10 10 9 8 7 6 6 7 8 10 12 15 16 18 19 19 20 21 21
3 3 3 1 2 1 4 4 4 6 2 7 9 10 10 10 7 7 14 16 16 16 16 15 12 10 9 7 7 5 4 3 3 5 8 9 11 12 14 16 17 18 18 18
1 1 1 3 2 4 4 2 3 3 4 4 6 8 12 9 8 6 9 12 14 16 17 14 12 10 10 10 8 7 4 2 2 3 6 8 10 12 13 15 16 18 19 21
2 2 1 1 0 4 2 3 4 5 6 5 6 6 8 8 7 7 8 11 14 15 16 16 15 12 9 7 6 6 6 5 2 1 2 4 7 10 13 13 15 16 17 19
1 3 3 4 3 3 3 5 5 4 6 4 4 4 4 4 5 6 7 10 12 12 13 13 13 14 12 8 6 5 5 4 3 2 1 3 6 7 8 10 14 16 18 21
3 2 1 3 4 6 6 5 5 4 5 4 4 3 2 3 3 3 5 6 8 9 10 10 10 12 12 12 10 8 6 6 4 6 8 5 6 8 11 13 14 15 17 19
2 7 5 2 4 4 5 5 6 6 5 3 2 3 2 2 1 0 1 2 3 5 6 7 8 9 10 9 9 9 8 7 4 3 4 8 8 11 11 12 15 17 18 19
10 6 5 2 11 7 12 13 10 7 5 3 2 1 1 2 2 1 2 2 2 4 5 4 4 6 6 7 8 9 9 6 5 5 5 6 7 8 11 14 17 18 19 18